[[{"header":{"parameterUnit":"m.s-1","parameterCategory":1,"la1":30.6,"la2":29.2853,"lo1":-89.7004,"lo2":-87.6739,"dx":0.0162,"dy":0.0183,"nx":112,"ny":82,"refTime":"2022-12-13T18:00:00:Z","depth":0,"parameterNumber":2,"parameterNumberName":"U-component_of_WINDS"},"data":[0.0,0.0,0.0,0.0,0.0,0.0,0.0,0.0,0.0,0.0,0.0,0.0,0.0,0.0,0.0,0.0,0.0,0.0,0.0,0.0,0.0,0.0,0.0,0.0,0.0,0.0,0.0,0.0,0.0,0.0,0.0,0.0,0.0,0.0,0.0,0.0,0.0,0.0,0.0,0.0,0.0,0.0,0.0,0.0,0.0,0.0,0.0,0.0,0.0,0.0,0.0,0.0,0.0,0.0,0.0,0.0,0.0,0.0,0.0,0.0,0.0,0.0,0.0,0.0,0.0,0.0,0.0,0.0,0.0,0.0,0.0,0.0,0.0,0.0,0.0,0.0,0.0,0.0,0.0,0.0,0.0,0.0,0.0,0.0,0.0,0.0,0.0,0.0,0.0,0.0,-8.6002,-8.9164,-9.1272,-9.2561,-9.2678,-9.2717,-9.1194,-8.7603,0.0,0.0,0.0,0.0,0.0,0.0,0.0,0.0,0.0,0.0,0.0,0.0,0.0,0.0,0.0,0.0,0.0,0.0,0.0,0.0,0.0,0.0,0.0,0.0,0.0,0.0,0.0,0.0,0.0,0.0,0.0,0.0,0.0,0.0,0.0,0.0,0.0,0.0,0.0,0.0,0.0,0.0,0.0,0.0,0.0,0.0,0.0,0.0,0.0,0.0,0.0,0.0,0.0,0.0,0.0,0.0,0.0,0.0,0.0,0.0,0.0,0.0,0.0,0.0,0.0,0.0,0.0,0.0,0.0,0.0,0.0,0.0,0.0,0.0,0.0,0.0,0.0,0.0,0.0,0.0,0.0,0.0,0.0,0.0,0.0,0.0,0.0,0.0,0.0,0.0,0.0,0.0,0.0,0.0,0.0,0.0,0.0,0.0,0.0,0.0,0.0,0.0,0.0,0.0,-8.69,-9.2443,-9.2717,-9.2795,-9.3537,-9.3615,-9.1819,-8.7681,0.0,0.0,0.0,0.0,0.0,0.0,0.0,0.0,0.0,0.0,0.0,0.0,0.0,0.0,0.0,0.0,0.0,0.0,0.0,0.0,0.0,0.0,0.0,0.0,0.0,0.0,0.0,0.0,0.0,0.0,0.0,0.0,0.0,0.0,0.0,0.0,0.0,0.0,0.0,0.0,0.0,0.0,0.0,0.0,0.0,0.0,0.0,0.0,0.0,0.0,0.0,0.0,0.0,0.0,0.0,0.0,0.0,0.0,0.0,0.0,0.0,0.0,0.0,0.0,0.0,0.0,0.0,0.0,0.0,0.0,0.0,0.0,0.0,0.0,0.0,0.0,0.0,0.0,0.0,0.0,0.0,0.0,0.0,0.0,0.0,0.0,0.0,0.0,0.0,0.0,0.0,0.0,0.0,0.0,0.0,0.0,0.0,0.0,0.0,0.0,0.0,0.0,0.0,-8.5807,-8.9398,-9.4005,-9.4161,-9.4278,-9.5137,-9.4356,-9.2561,-8.9711,-8.8188,0.0,0.0,0.0,0.0,0.0,0.0,0.0,0.0,0.0,0.0,0.0,0.0,0.0,0.0,0.0,0.0,0.0,0.0,0.0,0.0,0.0,0.0,0.0,0.0,0.0,0.0,0.0,0.0,0.0,0.0,0.0,0.0,0.0,0.0,0.0,0.0,0.0,0.0,0.0,0.0,0.0,0.0,0.0,0.0,0.0,0.0,0.0,0.0,0.0,0.0,0.0,0.0,0.0,0.0,0.0,0.0,0.0,0.0,0.0,0.0,0.0,0.0,0.0,0.0,0.0,0.0,0.0,0.0,0.0,0.0,0.0,0.0,0.0,0.0,0.0,0.0,0.0,0.0,0.0,0.0,0.0,0.0,0.0,0.0,0.0,0.0,0.0,0.0,0.0,0.0,0.0,0.0,0.0,0.0,0.0,0.0,0.0,0.0,0.0,0.0,0.0,0.0,-8.932,-9.1975,-9.4786,-9.5098,-9.5371,-9.6035,-9.4864,-9.3224,-9.1116,-8.893,0.0,0.0,0.0,0.0,0.0,0.0,0.0,0.0,0.0,0.0,0.0,0.0,0.0,0.0,0.0,0.0,0.0,0.0,0.0,0.0,0.0,0.0,0.0,0.0,0.0,0.0,0.0,0.0,0.0,0.0,0.0,0.0,0.0,0.0,0.0,0.0,0.0,0.0,0.0,0.0,0.0,0.0,0.0,0.0,0.0,0.0,0.0,0.0,0.0,0.0,0.0,0.0,0.0,0.0,0.0,0.0,0.0,0.0,0.0,0.0,0.0,0.0,0.0,0.0,0.0,0.0,0.0,0.0,0.0,0.0,0.0,0.0,0.0,0.0,0.0,0.0,0.0,0.0,0.0,0.0,0.0,0.0,0.0,0.0,0.0,0.0,0.0,0.0,0.0,0.0,0.0,0.0,0.0,0.0,0.0,0.0,0.0,0.0,0.0,0.0,0.0,0.0,-9.0492,-9.3927,-9.4981,-9.5098,-9.5137,-9.5176,-9.5098,-9.3615,-9.0296,-8.9164,0.0,0.0,0.0,0.0,0.0,0.0,0.0,0.0,0.0,0.0,0.0,0.0,0.0,0.0,0.0,0.0,0.0,0.0,0.0,0.0,0.0,0.0,0.0,0.0,0.0,0.0,0.0,0.0,0.0,0.0,0.0,0.0,0.0,0.0,0.0,0.0,0.0,0.0,0.0,0.0,0.0,0.0,0.0,0.0,0.0,0.0,0.0,0.0,0.0,0.0,0.0,0.0,0.0,0.0,0.0,0.0,0.0,0.0,0.0,0.0,0.0,0.0,0.0,0.0,0.0,0.0,0.0,0.0,0.0,0.0,0.0,0.0,0.0,0.0,0.0,0.0,0.0,0.0,0.0,0.0,0.0,0.0,0.0,0.0,0.0,0.0,0.0,0.0,0.0,0.0,0.0,0.0,0.0,0.0,0.0,0.0,0.0,0.0,0.0,0.0,0.0,0.0,-8.9203,-9.2365,-9.4825,-9.5098,-9.5098,-9.5098,-9.4591,-9.3068,-9.0179,0.0,0.0,0.0,0.0,0.0,0.0,0.0,0.0,0.0,0.0,0.0,0.0,0.0,0.0,0.0,0.0,0.0,0.0,0.0,0.0,0.0,0.0,0.0,0.0,0.0,0.0,0.0,0.0,0.0,0.0,0.0,0.0,0.0,0.0,0.0,0.0,0.0,0.0,0.0,0.0,0.0,0.0,0.0,0.0,0.0,0.0,0.0,0.0,0.0,0.0,0.0,0.0,0.0,0.0,0.0,0.0,0.0,0.0,0.0,0.0,0.0,0.0,0.0,0.0,0.0,0.0,0.0,0.0,0.0,0.0,0.0,0.0,0.0,0.0,0.0,0.0,0.0,0.0,0.0,0.0,0.0,0.0,0.0,0.0,0.0,0.0,0.0,0.0,0.0,0.0,0.0,0.0,0.0,0.0,0.0,0.0,0.0,0.0,0.0,0.0,0.0,0.0,-8.5534,-8.9086,-9.2092,-9.4434,-9.4942,-9.4981,-9.4708,-9.4122,-9.2717,-9.014,0.0,0.0,0.0,0.0,0.0,0.0,0.0,0.0,0.0,0.0,0.0,0.0,0.0,0.0,0.0,0.0,0.0,0.0,0.0,0.0,0.0,0.0,0.0,0.0,0.0,0.0,0.0,0.0,0.0,0.0,0.0,0.0,0.0,0.0,0.0,0.0,0.0,0.0,0.0,0.0,0.0,0.0,0.0,0.0,0.0,0.0,0.0,0.0,0.0,0.0,0.0,0.0,0.0,0.0,0.0,0.0,0.0,0.0,0.0,0.0,0.0,0.0,0.0,0.0,0.0,0.0,0.0,0.0,0.0,0.0,0.0,0.0,0.0,0.0,0.0,0.0,0.0,0.0,0.0,0.0,0.0,0.0,0.0,0.0,0.0,0.0,0.0,0.0,0.0,0.0,0.0,0.0,0.0,0.0,0.0,0.0,0.0,0.0,0.0,0.0,0.0,0.0,-8.5768,-9.0609,-9.381,-9.381,-9.4552,-9.4708,-9.3849,-9.381,-9.2678,0.0,0.0,0.0,0.0,0.0,0.0,0.0,0.0,0.0,0.0,0.0,0.0,0.0,0.0,0.0,0.0,0.0,0.0,0.0,0.0,0.0,0.0,0.0,0.0,0.0,0.0,0.0,0.0,0.0,0.0,0.0,0.0,0.0,0.0,0.0,0.0,0.0,0.0,0.0,0.0,0.0,0.0,0.0,0.0,0.0,0.0,0.0,0.0,0.0,0.0,0.0,0.0,0.0,0.0,0.0,0.0,0.0,0.0,0.0,0.0,0.0,0.0,0.0,0.0,0.0,0.0,0.0,0.0,0.0,0.0,0.0,0.0,0.0,0.0,0.0,0.0,0.0,0.0,0.0,0.0,0.0,0.0,0.0,0.0,0.0,0.0,0.0,0.0,0.0,0.0,0.0,0.0,0.0,0.0,0.0,0.0,0.0,0.0,0.0,0.0,0.0,0.0,0.0,-8.4948,-8.9672,-9.2873,-9.2873,-9.3107,-9.3146,-9.2912,-9.2873,-9.1272,-8.7486,0.0,0.0,0.0,0.0,0.0,0.0,0.0,0.0,0.0,0.0,0.0,0.0,0.0,0.0,0.0,0.0,0.0,0.0,0.0,0.0,0.0,0.0,0.0,0.0,0.0,0.0,0.0,0.0,0.0,0.0,0.0,0.0,0.0,0.0,0.0,0.0,0.0,0.0,0.0,0.0,0.0,0.0,0.0,0.0,0.0,0.0,0.0,0.0,0.0,0.0,0.0,0.0,0.0,0.0,0.0,0.0,0.0,0.0,0.0,0.0,0.0,0.0,0.0,0.0,0.0,0.0,0.0,0.0,0.0,0.0,0.0,0.0,0.0,0.0,0.0,0.0,0.0,0.0,0.0,0.0,0.0,0.0,0.0,0.0,0.0,0.0,0.0,0.0,0.0,0.0,0.0,0.0,0.0,0.0,0.0,0.0,0.0,0.0,0.0,0.0,0.0,0.0,-8.5143,-8.9516,-9.2482,-9.2482,-9.2482,-9.2482,-9.2482,-9.2482,-9.1116,-8.7876,0.0,0.0,0.0,0.0,0.0,0.0,0.0,0.0,0.0,0.0,0.0,0.0,0.0,0.0,0.0,0.0,0.0,0.0,0.0,0.0,0.0,0.0,0.0,0.0,0.0,0.0,0.0,0.0,0.0,0.0,0.0,0.0,0.0,0.0,0.0,0.0,0.0,0.0,0.0,0.0,0.0,0.0,0.0,0.0,0.0,0.0,0.0,0.0,0.0,0.0,0.0,0.0,0.0,0.0,0.0,0.0,0.0,0.0,0.0,0.0,0.0,0.0,0.0,0.0,0.0,0.0,0.0,0.0,0.0,0.0,0.0,0.0,0.0,0.0,0.0,0.0,0.0,0.0,0.0,0.0,0.0,0.0,0.0,0.0,0.0,0.0,0.0,0.0,0.0,0.0,0.0,0.0,0.0,0.0,0.0,0.0,0.0,0.0,0.0,0.0,0.0,0.0,-8.5963,-8.9906,-9.26,-9.26,-9.2678,-9.2756,-9.2756,-9.2678,-9.1858,-9.0101,0.0,0.0,0.0,0.0,0.0,0.0,0.0,0.0,0.0,0.0,0.0,0.0,0.0,0.0,0.0,0.0,0.0,0.0,0.0,0.0,0.0,0.0,0.0,0.0,0.0,0.0,0.0,0.0,0.0,0.0,0.0,0.0,0.0,0.0,0.0,0.0,0.0,0.0,0.0,0.0,0.0,0.0,0.0,0.0,0.0,0.0,0.0,0.0,0.0,0.0,0.0,0.0,0.0,0.0,0.0,0.0,0.0,0.0,0.0,0.0,-8.6015,-8.5037,0.0,0.0,0.0,0.0,0.0,0.0,0.0,0.0,0.0,0.0,0.0,0.0,0.0,0.0,0.0,0.0,0.0,0.0,0.0,0.0,0.0,0.0,0.0,0.0,0.0,0.0,0.0,0.0,0.0,0.0,0.0,0.0,0.0,0.0,0.0,0.0,0.0,0.0,0.0,0.0,-8.5885,-9.0452,-9.3537,-9.3537,-9.4122,-9.4552,-9.4552,-9.3927,-9.2522,-9.014,-8.9477,0.0,0.0,0.0,0.0,0.0,0.0,0.0,0.0,0.0,0.0,0.0,0.0,0.0,0.0,0.0,0.0,0.0,0.0,0.0,0.0,0.0,0.0,0.0,0.0,0.0,0.0,0.0,0.0,0.0,0.0,0.0,0.0,0.0,0.0,0.0,0.0,0.0,0.0,0.0,0.0,0.0,0.0,0.0,0.0,0.0,0.0,0.0,0.0,0.0,0.0,0.0,0.0,0.0,0.0,0.0,0.0,0.0,0.0,0.0,-8.8039,-8.7534,0.0,0.0,0.0,0.0,0.0,0.0,0.0,0.0,0.0,0.0,0.0,0.0,0.0,0.0,0.0,0.0,0.0,0.0,0.0,0.0,0.0,0.0,0.0,0.0,0.0,0.0,0.0,0.0,0.0,0.0,0.0,0.0,0.0,0.0,0.0,0.0,0.0,0.0,0.0,0.0,-8.7876,-9.1741,-9.4434,-9.4434,-9.4825,-9.5098,-9.5098,-9.4669,-9.3849,-9.2522,-9.0921,0.0,0.0,0.0,0.0,0.0,0.0,0.0,0.0,0.0,0.0,0.0,0.0,0.0,0.0,0.0,0.0,0.0,0.0,0.0,0.0,0.0,0.0,0.0,0.0,0.0,0.0,0.0,0.0,0.0,0.0,0.0,0.0,0.0,0.0,0.0,0.0,0.0,0.0,0.0,0.0,0.0,0.0,0.0,0.0,0.0,0.0,0.0,0.0,0.0,0.0,0.0,0.0,0.0,-9.0999,-9.135,-9.0687,-9.1585,-9.1663,-9.1077,-9.0348,-9.0516,-9.1336,-9.1619,0.0,0.0,0.0,0.0,0.0,0.0,0.0,0.0,0.0,0.0,0.0,0.0,0.0,0.0,0.0,0.0,0.0,0.0,0.0,0.0,0.0,0.0,-8.7798,-8.8383,-8.9086,-8.8774,-8.5729,0.0,0.0,0.0,0.0,0.0,0.0,0.0,0.0,0.0,0.0,0.0,-9.0179,-9.3224,-9.5332,-9.5332,-9.5449,-9.5567,-9.5567,-9.541,-9.5332,-9.5332,-9.2522,-9.0687,0.0,0.0,0.0,0.0,0.0,0.0,0.0,0.0,0.0,0.0,0.0,0.0,0.0,0.0,0.0,0.0,0.0,0.0,0.0,0.0,0.0,0.0,0.0,0.0,0.0,0.0,0.0,0.0,0.0,0.0,0.0,0.0,-8.1875,-8.2969,0.0,0.0,0.0,0.0,0.0,0.0,0.0,0.0,0.0,0.0,0.0,0.0,0.0,-8.8859,-9.0765,-9.0882,-9.1311,-9.2014,-9.299,-9.3419,-9.3341,-9.42,-9.4942,-9.5567,-9.541,0.0,-9.1414,-9.2859,0.0,0.0,0.0,0.0,0.0,0.0,0.0,0.0,0.0,0.0,0.0,0.0,0.0,0.0,0.0,0.0,0.0,0.0,0.0,0.0,0.0,0.0,-9.3732,-9.3107,-9.3029,-9.2795,-9.1585,-8.7876,-8.4714,-8.4519,-8.4362,-8.3816,0.0,0.0,0.0,0.0,0.0,0.0,-9.0843,-9.4122,-9.623,-9.623,-9.6894,-9.7362,-9.7362,-9.666,-9.623,-9.623,-9.5098,-9.3458,-9.1233,-9.0062,0.0,0.0,0.0,0.0,0.0,0.0,0.0,0.0,0.0,0.0,0.0,0.0,0.0,0.0,0.0,0.0,0.0,0.0,0.0,0.0,0.0,0.0,0.0,0.0,0.0,0.0,0.0,0.0,0.0,-8.2812,-8.4609,-8.6913,-8.7421,-8.742,0.0,0.0,0.0,0.0,0.0,0.0,0.0,0.0,0.0,-8.9258,-9.0265,-9.1414,-9.2678,-9.3185,-9.4083,-9.541,-9.5801,-9.5996,-9.5996,-9.6386,-9.6503,-9.6425,-9.6933,-9.655,-9.5619,-9.5346,-9.4838,-9.4063,0.0,0.0,0.0,0.0,-9.1174,-9.094,-9.1838,-9.2463,-9.2658,-9.1291,0.0,0.0,0.0,0.0,0.0,0.0,0.0,-9.1116,-9.2795,-9.381,-9.463,-9.5723,-9.5254,-9.4552,-9.4669,-9.2131,-8.9437,-8.7993,-8.772,-8.7017,-8.4831,-8.5651,0.0,0.0,0.0,-9.1585,-9.3224,-9.5606,-9.6933,-9.6464,-9.7167,-9.7518,-9.7011,-9.7089,-9.7128,-9.7128,-9.6308,-9.5332,-9.42,-9.1936,-8.9594,0.0,0.0,0.0,0.0,0.0,0.0,0.0,0.0,0.0,0.0,0.0,0.0,0.0,0.0,0.0,0.0,0.0,0.0,0.0,0.0,0.0,0.0,0.0,0.0,0.0,0.0,0.0,0.0,-8.6054,-8.7226,-8.9996,-8.976,-8.9094,0.0,0.0,0.0,0.0,0.0,0.0,-8.996,-9.0507,-9.0935,-9.1205,-9.2937,-9.4122,-9.4786,-9.5645,-9.6738,-9.8026,-9.7792,-9.7714,-9.7714,-9.7948,-9.7792,-9.744,-9.8065,-9.8846,-9.9509,-9.7792,-9.6933,-9.6582,-9.5059,-9.4317,-9.4083,-9.3654,-9.3497,-9.3615,-9.4512,-9.5215,-9.5567,-9.4239,-9.3537,-9.2912,-9.1663,0.0,0.0,0.0,0.0,-9.2678,-9.4356,-9.4786,-9.5293,-9.7245,-9.6542,-9.5606,-9.6269,-9.502,-9.3302,-9.1624,-9.1311,-9.0531,-8.8149,-8.9359,0.0,-8.9789,-9.2014,-9.4122,-9.4981,-9.6425,-9.7011,-9.6152,-9.6855,-9.7089,-9.6464,-9.7206,-9.7597,-9.7362,-9.6972,-9.6542,-9.6074,-9.3849,-9.1975,-9.0687,0.0,0.0,0.0,0.0,0.0,0.0,0.0,0.0,0.0,0.0,0.0,0.0,0.0,0.0,0.0,0.0,0.0,0.0,0.0,0.0,0.0,0.0,0.0,0.0,0.0,0.0,0.0,0.0,0.0,-9.1129,-9.1203,0.0,0.0,0.0,0.0,-9.2255,-9.2384,-9.278,-9.3504,-9.3582,-9.3973,-9.4793,-9.6542,-9.744,-9.7518,-9.8377,-9.8846,-9.8924,-9.8104,-9.7714,-9.7714,-9.8572,-9.9353,-10.0095,-10.0212,-10.0603,-10.1188,-9.9548,-9.8377,-9.7558,-9.6621,-9.5762,-9.5137,-9.5918,-9.6191,-9.6347,-9.7206,-9.7518,-9.7558,-9.7479,-9.6308,-9.4942,-9.4864,-9.3732,0.0,0.0,-9.4903,-9.5293,-9.705,-9.7518,-9.7558,-9.7675,-9.7011,-9.6347,-9.6386,-9.502,-9.4005,-9.4708,-9.4825,-9.4278,-9.2482,0.0,-9.2365,-9.2326,-9.3146,-9.4122,-9.4981,-9.5918,-9.6113,-9.5254,-9.5957,-9.6464,-9.6386,-9.7206,-9.7362,-9.6503,-9.7206,-9.6894,-9.5215,-9.5801,-9.4942,-9.2404,-9.0726,0.0,0.0,0.0,0.0,0.0,0.0,0.0,0.0,0.0,0.0,0.0,0.0,0.0,0.0,0.0,0.0,0.0,0.0,0.0,0.0,0.0,0.0,0.0,0.0,0.0,0.0,0.0,0.0,-9.3437,-9.3703,0.0,-9.2964,-9.4721,-9.5424,-9.4239,-9.4715,-9.5417,-9.6269,-9.6308,-9.6699,-9.7597,-9.8221,-9.8533,-9.8533,-9.8299,-9.8455,-9.9002,-9.9236,-9.9627,-10.0212,-10.0993,-10.1891,-10.2711,-10.2711,-10.3218,-10.3882,-10.2789,-10.0798,-9.8494,-9.8182,-9.7558,-9.6816,-9.7128,-9.7597,-9.8026,-9.7792,-9.8065,-9.8455,-9.787,-9.7284,-9.6777,-9.6777,-9.6347,-9.5996,-9.6582,-9.6777,-9.6933,-9.7558,-9.7714,-9.7831,-9.8416,-9.744,-9.6699,-9.7831,-9.6699,-9.5918,-9.7323,-9.5801,-9.4083,-9.3458,-9.381,-9.3966,-9.3419,-9.4552,-9.5606,-9.5918,-9.623,-9.6074,-9.5176,-9.5371,-9.5567,-9.5567,-9.6347,-9.6972,-9.7206,-9.7011,-9.6582,-9.5957,-9.5176,-9.4552,-9.4161,-9.2482,-9.0921,0.0,0.0,0.0,0.0,0.0,0.0,0.0,0.0,0.0,0.0,0.0,0.0,0.0,0.0,0.0,0.0,0.0,0.0,0.0,0.0,0.0,0.0,0.0,0.0,0.0,-9.2443,-9.3546,-9.5273,-9.5255,-9.4877,-9.4278,-9.6074,-9.6777,-9.5645,-9.6347,-9.7206,-9.8104,-9.8091,-9.8453,-9.9346,-9.9385,-9.9502,-9.9815,-9.8977,-9.9158,-10.029,-10.0603,-10.111,-10.2008,-10.2789,-10.3608,-10.4116,-10.4389,-10.4897,-10.5404,-10.4819,-10.2984,-10.072,-10.0095,-9.9314,-9.8572,-9.8572,-9.9119,-9.9705,-9.8885,-9.8572,-9.8455,-9.7909,-9.7714,-9.7714,-9.7714,-9.7909,-9.8143,-9.8143,-9.8338,-9.8572,-9.8572,-9.8572,-9.8729,-9.9314,-9.8572,-9.8026,-9.9197,-9.8533,-9.8065,-9.9197,-9.7089,-9.5215,-9.5488,-9.5801,-9.5762,-9.5215,-9.6113,-9.6738,-9.6425,-9.6386,-9.6074,-9.5176,-9.5371,-9.5527,-9.5527,-9.6074,-9.666,-9.7206,-9.6738,-9.6269,-9.5957,-9.5137,-9.4825,-9.5098,-9.3966,-9.2404,-9.0413,0.0,0.0,0.0,0.0,0.0,0.0,0.0,0.0,0.0,0.0,0.0,0.0,0.0,0.0,0.0,0.0,0.0,0.0,0.0,0.0,0.0,0.0,0.0,-9.3458,-9.5059,-9.6285,-9.6466,-9.5736,-9.5254,-9.5254,-9.6074,-9.6582,-9.6542,-9.7323,-9.8182,-9.908,-9.8976,-9.9297,-10.0195,-10.0195,-10.0586,-10.1484,-10.0713,-10.1188,-10.2711,-10.1891,-10.2008,-10.2789,-10.3687,-10.4194,-10.4194,-10.5092,-10.5482,-10.5404,-10.5404,-10.4897,-10.3882,-10.2203,-10.0993,-10.029,-10.029,-10.0798,-10.1383,-10.0603,-9.9236,-9.7792,-9.7792,-9.7792,-9.7792,-9.7792,-9.8377,-9.9041,-9.9041,-9.9666,-10.029,-10.029,-10.029,-10.029,-10.029,-10.029,-10.029,-10.029,-10.029,-10.029,-10.029,-9.8963,-9.8026,-9.8846,-9.826,-9.7675,-9.7675,-9.7675,0.0,-9.6503,-9.6386,-9.6074,-9.5215,-9.5879,-9.6386,-9.6386,-9.6386,-9.6425,-9.6425,-9.6425,-9.6035,-9.5176,-9.5918,-9.5918,-9.5098,-9.5098,-9.3849,-9.1311,0.0,0.0,0.0,0.0,0.0,0.0,0.0,0.0,0.0,0.0,0.0,0.0,0.0,0.0,0.0,0.0,0.0,0.0,0.0,0.0,0.0,-9.4926,-9.6317,-9.5165,-9.6147,-9.7245,-9.7923,-9.8514,-9.8866,-9.8866,-10.0194,-10.0812,-10.0095,-10.029,-10.0798,-10.1696,-10.1092,-10.1416,-10.3017,-10.2387,-10.2504,-10.3285,-10.1905,-10.1383,-10.1891,-10.1618,-10.2008,-10.2906,-10.4389,-10.5404,-10.599,-10.6888,-10.6888,-10.6302,-10.6302,-10.5482,-10.3999,-10.2906,-10.1891,-10.111,-10.0485,-10.0407,-10.0681,-10.0993,-10.0485,-9.9588,-9.9588,-9.9588,-9.9588,-9.9588,-9.9744,-9.9939,-9.9939,-10.0095,-10.029,-10.029,-10.029,-10.0407,-10.0993,-10.0681,-10.0485,-10.0993,-10.0681,-10.0485,-10.111,-10.029,-9.947,-9.908,-9.7753,-9.6777,-9.6777,-9.7284,-9.7401,-9.6503,-9.6386,-9.6308,-9.6074,-9.5684,-9.5723,-9.6347,-9.6386,-9.666,-9.7284,-9.6738,-9.6308,-9.6035,-9.5059,-9.4395,-9.4161,-9.4786,-9.3849,0.0,0.0,0.0,0.0,0.0,0.0,0.0,0.0,0.0,0.0,0.0,0.0,0.0,0.0,0.0,0.0,0.0,0.0,0.0,0.0,0.0,0.0,-9.7092,-9.8369,-9.777,-9.7712,-9.8045,-9.8993,-9.9438,-9.9801,-10.0111,-10.1504,-10.2107,-10.15,-10.1813,-10.2281,-10.2789,-10.2582,-10.2988,-10.4003,-10.3183,-10.3183,-10.4003,-10.2285,-10.1816,-10.2519,-10.2519,-10.3183,-10.4389,-10.5497,-10.6419,-10.7317,-10.7395,-10.7395,-10.72,-10.6497,-10.599,-10.5599,0.0,0.0,0.0,0.0,-10.1383,-10.0915,-10.1813,-10.1305,-10.029,-10.029,-10.029,-10.029,-10.029,-10.0485,-10.0798,-10.0798,-10.111,-10.1305,-10.1305,-10.1305,-10.15,-10.1891,-10.1696,-10.15,-10.1891,-10.1696,-10.15,-10.2008,-10.1383,0.0,-10.0095,-9.8612,-9.7362,-9.7011,-9.7675,-9.8065,-9.7558,-9.7479,-9.7479,-9.7479,-9.6699,-9.6386,-9.6894,-9.6621,0.0,0.0,0.0,-9.6386,-9.6386,-9.5098,0.0,0.0,0.0,-9.4356,-9.2873,-9.2522,0.0,0.0,-9.1389,-9.1467,0.0,0.0,0.0,0.0,0.0,0.0,0.0,0.0,0.0,0.0,0.0,0.0,0.0,0.0,0.0,0.0,-9.8988,-9.9878,-10.0613,-9.9462,-9.8919,-9.9956,-9.9463,-9.9395,-10.0186,-10.1207,-10.1689,-10.1586,-10.2398,-10.2789,-10.2789,-10.3503,0.0,0.0,0.0,-10.3281,-10.41,-10.2616,-10.2616,-10.41,-10.41,-10.4882,-10.6484,-10.6498,-10.7013,-10.7708,-10.6888,-10.6888,-10.7395,-10.5912,-10.6107,-10.72,-10.5209,-10.3882,-10.3218,-10.3882,-10.3101,-10.1891,-10.2593,0.0,0.0,-10.0603,-10.0603,-10.0603,-10.0603,-10.111,-10.1618,-10.1618,-10.2203,-10.2789,-10.2789,-10.2789,-10.2789,-10.2789,-10.2789,-10.2789,-10.2789,-10.2789,-10.2789,-10.2789,-10.2281,-10.1696,-10.15,-10.0212,-9.8885,-9.8104,-9.8651,-9.9158,-9.9158,-9.9158,-9.9158,-9.9158,-9.8455,0.0,-9.7987,-9.7284,-9.7167,-9.7948,-9.7167,-9.666,-9.6542,-9.5801,-9.5762,-9.6542,-9.5801,-9.5332,-9.5254,-9.4552,-9.4122,-9.3927,-9.2404,-9.217,0.0,0.0,0.0,0.0,0.0,0.0,0.0,0.0,0.0,0.0,0.0,0.0,0.0,0.0,0.0,-9.8988,-10.0419,-10.1502,-10.158,-10.0789,-10.0495,-10.1501,-10.112,-10.0987,-10.1996,-10.2293,-10.2383,-10.2504,-10.2679,-10.2789,-10.2789,-10.2881,-10.33,-10.3984,-10.3789,-10.4097,-10.4886,-10.4606,-10.4606,-10.4918,-10.4912,0.0,-10.5586,-10.5585,-10.5687,-10.5912,-10.5717,-10.5287,-10.478,-10.4506,-10.4116,-10.3999,-10.5599,-10.5717,-10.4819,-10.4311,-10.3882,-10.3491,-10.2984,-10.2593,-10.2281,-10.2281,-10.2281,-10.2281,-10.2281,-10.2398,0.0,-10.2515,-10.2711,-10.2789,-10.2789,-10.2789,-10.2789,-10.2789,-10.2789,-10.2789,-10.2789,-10.2789,-10.2789,-10.2789,-10.3218,-10.3179,-10.1696,-10.0681,-9.9978,-9.9822,-9.9939,-10.0017,-10.0017,-10.0017,-10.0017,-10.0017,-9.99,-9.9783,-9.9783,-9.9627,-9.9627,-9.9783,-9.8963,-9.8182,-9.7479,-9.7284,-9.7284,-9.744,-9.7284,-9.6855,-9.6152,-9.6699,-9.623,-9.4825,-9.4512,-9.4825,0.0,0.0,0.0,0.0,0.0,0.0,0.0,0.0,0.0,0.0,0.0,-9.7518,-9.7982,0.0,-10.011,-10.0496,-10.1309,-10.1889,-10.1889,-10.1889,-10.1912,-10.198,-10.1401,-10.1405,-10.2295,-10.2507,-10.2608,-10.2693,-10.2788,-10.2796,-10.2789,-10.3212,-10.3585,-10.3984,-10.4017,-10.4306,-10.4997,-10.4606,-10.461,-10.4987,-10.5,-10.53,-10.5882,-10.5896,-10.6006,-10.599,-10.5599,-10.5209,-10.4819,-10.4819,-10.4194,-10.3608,-10.5404,-10.5482,-10.4702,-10.4819,-10.4506,-10.3999,-10.3608,-10.3218,-10.2789,-10.2789,-10.2789,-10.2789,-10.2789,-10.2789,-10.2789,-10.2789,-10.2789,-10.2789,-10.2789,-10.2789,-10.2789,-10.2789,-10.2789,-10.2789,-10.2789,-10.2789,-10.2906,-10.3413,-10.3804,-10.3804,-10.2984,-10.2515,-10.1813,-10.0485,-10.0603,-10.0915,-10.0915,-10.0915,-10.0915,-10.0915,-10.0485,-10.029,-10.029,-10.029,-10.029,-10.029,-9.99,-9.947,-9.9002,-9.9002,-9.9002,-9.9002,-9.8572,-9.7909,-9.705,-9.705,-9.6582,-9.5762,-9.6191,-9.6621,0.0,0.0,0.0,0.0,0.0,0.0,0.0,-9.6048,-9.7131,-9.7479,-9.8601,-9.9839,-10.069,-10.0883,-10.1077,-10.2005,-10.2199,-10.2199,-10.2392,-10.3011,-10.3204,-10.2508,-10.1813,-10.1604,-10.2303,-10.2491,-10.2582,-10.2693,-10.2691,-10.2792,-10.2783,-10.3398,-10.3705,-10.3699,-10.3608,-10.3903,-10.4714,-10.4221,-10.4289,-10.5106,-10.532,-10.5881,-10.67,-10.6589,-10.648,-10.638,-10.5287,-10.4897,-10.4897,-10.4897,-10.4506,-10.3882,-10.4819,-10.4702,-10.4194,-10.4897,-10.4702,-10.4116,-10.3882,-10.3413,-10.2789,-10.2789,-10.2789,-10.2789,-10.2789,-10.2789,-10.2789,-10.2789,-10.2906,-10.3101,-10.3101,-10.3218,-10.3296,-10.3296,-10.3296,-10.3296,-10.3296,-10.3296,-10.3491,-10.4194,-10.4506,-10.4584,-10.4389,-10.4506,-10.3687,-10.1188,-10.1305,-10.1813,-10.1813,-10.1813,-10.1813,-10.1813,-10.1188,-10.0798,-10.0798,-10.0798,-10.0681,-10.0485,-10.0485,-10.0485,-10.0485,-10.0407,-10.0407,-10.0485,-9.9705,-9.8924,-9.8182,-9.7518,-9.7167,-9.7167,-9.787,-9.8104,-9.3222,-9.3156,-9.3403,-9.4973,-9.5352,-9.5739,0.0,-9.7827,-9.8369,-9.9878,-10.0303,-10.069,-10.158,-10.1812,-10.2005,-10.2895,-10.3088,-10.3282,-10.4017,-10.421,-10.421,-10.4094,-10.339,-10.3081,-10.3525,-10.2918,-10.2499,-10.2811,-10.2694,-10.2608,-10.2611,-10.2593,-10.2581,-10.2484,-10.2379,-10.279,-10.3725,-10.4286,-10.4997,-10.5929,-10.6705,-10.7208,-10.7512,-10.6818,-10.6091,-10.5482,-10.3804,-10.3101,-10.3101,-10.3101,-10.2984,-10.2984,-10.3882,-10.4194,-10.4116,-10.4194,-10.4194,-10.3999,-10.3218,-10.2906,-10.2789,-10.2789,-10.2789,-10.2789,-10.2789,-10.2789,-10.2789,-10.2789,-10.3413,-10.3999,-10.3999,-10.4506,-10.5092,-10.5092,-10.5092,-10.5092,-10.5092,-10.5092,-10.5092,-10.5209,-10.5912,-10.6185,-10.5404,-10.5912,-10.5482,-10.2906,-10.2593,-10.2711,-10.2711,-10.2711,-10.2711,-10.2711,-10.2593,-10.2515,-10.2515,-10.2515,-10.2203,-10.1383,-10.1383,-10.1383,-10.1383,-10.0681,-10.0603,-10.1383,-10.0603,-10.0095,-10.0017,-9.99,-9.9861,-9.9861,-9.9978,-9.9588,-9.4723,-9.4716,-9.4822,-9.5961,-9.6628,-9.7209,-9.7943,-9.8833,-9.9762,-10.0496,-10.0999,-10.1502,-10.1812,-10.2315,-10.2779,-10.3088,-10.3591,-10.3901,-10.3707,-10.4209,-10.4422,-10.3816,-10.3473,-10.3302,-10.3419,-10.2689,-10.2318,-10.2386,-10.2509,-10.249,-10.2507,-10.2387,-10.2318,-10.2226,-10.2178,-10.2811,-10.4111,-10.4527,-10.5419,-10.6708,-10.7569,-10.7908,-10.7612,-10.7816,-10.6986,-10.5287,-10.4116,-10.3608,-10.3491,-10.2984,-10.3101,-10.3491,-10.3413,-10.3687,-10.4194,-10.4702,-10.4897,-10.4819,-10.4389,-10.4311,-10.4311,-10.4311,-10.4311,-10.4311,-10.4311,-10.4311,-10.4311,-10.4311,-10.4584,-10.4897,-10.4897,-10.5092,-10.5404,-10.5404,-10.5404,-10.5404,-10.5404,-10.5404,-10.5599,-10.6107,-10.6497,-10.6614,-10.6185,-10.6497,-10.6185,-10.4584,-10.3882,-10.3413,-10.2906,-10.3218,-10.3804,-10.4311,-10.3882,-10.3608,-10.3608,-10.3101,-10.2593,-10.2281,-10.2281,-10.2281,-10.2281,-10.1891,-10.1891,-10.2203,-10.1383,-10.1188,-10.1813,-10.1188,-10.0993,-10.0993,-10.15,-10.1305,-9.5445,-9.5597,-9.57,-9.659,-9.7479,-9.8176,-9.8369,-9.9568,-10.069,-10.0883,-10.1502,-10.2005,-10.2199,-10.2779,-10.3398,-10.3784,-10.4195,-10.4411,-10.3985,-10.4389,-10.4487,-10.3806,-10.3496,-10.3419,-10.3279,-10.2617,-10.2101,-10.2207,-10.2301,-10.2312,-10.2304,-10.2207,-10.2217,-10.2489,-10.241,-10.3201,-10.4799,-10.4906,-10.5681,-10.7084,-10.7784,-10.8094,-10.7899,-10.841,-10.7889,-10.6419,-10.5014,-10.4506,-10.4389,-10.3491,-10.3491,-10.3999,-10.3413,-10.3687,-10.4506,-10.5209,-10.5404,-10.5404,-10.5404,-10.5404,-10.5404,-10.5404,-10.5404,-10.5404,-10.5404,-10.5404,-10.5404,-10.5404,-10.5599,-10.5795,-10.5795,-10.5912,-10.6107,-10.6107,-10.6107,-10.6107,-10.6107,-10.6107,-10.6302,-10.6888,-10.7083,-10.7083,-10.7083,-10.7083,-10.681,-10.5912,-10.5209,-10.4506,-10.3608,-10.4116,-10.4702,-10.5287,-10.4819,-10.4389,-10.4116,-10.3491,-10.3101,-10.2789,-10.2789,-10.2789,-10.2789,-10.2789,-10.2789,-10.2789,-10.2203,-10.2281,-10.3218,-10.2515,-10.2203,-10.2203,-10.2906,-10.2711,-9.5349,-9.5506,-9.57,-9.659,-9.7479,-9.8292,-9.9104,-9.9955,-10.0806,-10.1696,-10.1889,-10.2199,-10.3011,-10.3204,-10.3707,-10.5409,-10.5109,-10.4983,-10.5799,-10.5301,-10.4923,-10.4906,-10.4015,-10.3415,-10.3391,-10.2599,-10.2183,-10.239,-10.2186,-10.2117,-10.2117,-10.2018,-10.2299,-10.3201,-10.3189,-10.3971,-10.5728,-10.5673,-10.6176,-10.7084,-10.7084,-10.7689,-10.8589,-10.8088,-10.8314,-10.8996,-10.6497,-10.5404,-10.5287,-10.4389,-10.4116,-10.4116,-10.4116,-10.4584,-10.5404,-10.5404,-10.5404,-10.5404,-10.5404,-10.5404,-10.5404,-10.5404,-10.5404,-10.5404,-10.5404,-10.5404,-10.5404,-10.5404,-10.599,-10.6693,-10.6693,-10.7317,-10.7903,-10.7903,-10.7903,-10.7903,-10.7903,-10.7903,-10.7903,-10.802,-10.802,-10.802,-10.802,-10.802,-10.7708,-10.681,-10.6614,-10.6302,-10.5404,-10.5287,-10.5404,-10.5404,-10.5404,-10.5014,-10.4194,-10.4116,-10.3687,-10.2906,-10.2789,-10.2789,-10.2789,-10.2789,-10.2789,-10.2789,-10.2789,-10.3218,-10.4116,-10.3999,-10.3999,-10.3999,-10.3999,-10.3608,-9.6155,-9.6358,-9.6435,-9.6744,-9.7866,-9.8988,-9.9259,-10.0419,-10.1696,-10.2585,-10.2779,-10.3011,-10.3784,-10.4519,-10.5086,-10.5796,-10.5709,-10.5482,-10.5282,-10.4712,-10.3986,-10.3302,-10.3525,-10.3511,-10.3399,-10.2526,-10.2018,-10.2126,-10.2483,-10.2582,-10.2,-10.2492,-10.2895,-10.3197,-10.3166,-10.3978,-10.5712,-10.568,-10.6105,-10.7021,-10.7686,-10.8587,-10.968,-10.9505,-10.941,-10.9191,-10.7786,-10.7512,-10.7903,-10.638,-10.6185,-10.6614,-10.6107,-10.599,-10.6302,-10.6302,-10.6614,-10.7005,-10.6497,-10.6614,-10.7083,-10.7083,-10.7083,-10.7083,-10.7083,-10.7083,-10.7083,-10.7083,-10.7317,-10.759,-10.759,-10.7786,-10.802,-10.802,-10.802,-10.802,-10.802,-10.802,-10.802,-10.802,-10.802,-10.802,-10.802,-10.802,-10.7903,-10.759,-10.6614,-10.5912,-10.6185,-10.6302,-10.6497,-10.7083,-10.6614,-10.6107,-10.5912,-10.478,-10.3999,-10.3687,-10.3101,-10.2789,-10.2789,-10.2789,-10.2789,-10.2789,-10.3413,-10.4116,-10.5014,-10.5482,-10.5795,-10.5795,-10.5209,-10.4506,-9.6474,-9.6783,-9.686,-9.7209,-9.8524,-9.9839,-10.0187,-10.1618,-10.3011,-10.3514,-10.3591,-10.3901,-10.4713,-10.5293,-10.5705,-10.5912,-10.5978,-10.5807,-10.5,-10.4705,-10.4202,-10.3517,-10.38,-10.4092,-10.3904,-10.3192,-10.2817,-10.2817,-10.3011,-10.3011,-10.2392,-10.2895,-10.3282,-10.3591,-10.3901,-10.479,-10.6183,-10.6183,-10.6415,-10.6995,-10.8306,-10.9309,-11.0079,-11.0495,-11.0703,-11.0596,-10.9386,-10.9191,-10.9581,-10.8215,-10.7786,-10.7903,-10.7395,-10.72,-10.72,-10.72,-10.7512,-10.7903,-10.7395,-10.7512,-10.802,-10.802,-10.802,-10.802,-10.802,-10.802,-10.802,-10.802,-10.802,-10.802,-10.802,-10.802,-10.802,-10.802,-10.802,-10.802,-10.802,-10.802,-10.802,-10.802,-10.802,-10.802,-10.802,-10.802,-10.802,-10.802,-10.7005,-10.6497,-10.7083,-10.72,-10.7395,-10.7903,-10.7512,-10.7005,-10.6693,-10.5717,-10.478,-10.4116,-10.3608,-10.3101,-10.2789,-10.3101,-10.3101,-10.2789,-10.3999,-10.4819,-10.5404,-10.6302,-10.6693,-10.6693,-10.5795,-10.4897,-9.6358,-9.6822,-9.7054,-9.7905,-9.9375,-10.0883,-10.1696,-10.3204,-10.4403,-10.4519,-10.4519,-10.4713,-10.5603,-10.5796,-10.5796,-10.5828,-10.6026,-10.5897,-10.511,-10.5302,-10.5384,-10.5178,-10.5104,-10.4891,-10.4798,-10.4587,-10.4519,-10.4519,-10.3707,-10.3204,-10.3088,-10.3204,-10.3591,-10.4403,-10.5216,-10.6105,-10.6995,-10.6995,-10.6995,-10.6995,-10.8795,-10.9694,-11.0017,-11.1016,-11.2096,-11.2978,-11.1299,-11.0518,-11.0518,-10.9699,-10.8801,-10.8098,-10.8098,-10.802,-10.802,-10.802,-10.802,-10.802,-10.802,-10.802,-10.802,-10.7981,-10.7981,-10.802,-10.7981,-10.7981,-10.802,-10.7981,-10.7981,-10.7981,-10.7981,-10.7981,-10.7981,-10.802,-10.802,-10.802,-10.802,-10.802,-10.802,-10.802,-10.802,-10.802,-10.802,-10.802,-10.802,-10.802,-10.802,-10.802,-10.802,-10.802,-10.802,-10.802,-10.802,-10.7708,-10.681,-10.6693,-10.599,-10.4311,-10.4194,-10.3804,-10.2906,-10.3687,-10.3804,-10.2906,-10.4584,-10.5482,-10.5482,-10.6302,-10.681,-10.6693,-10.5912,-10.5014,-9.6667,-9.7286,-9.7827,-9.806,-9.9839,-10.158,-10.1812,-10.3204,-10.4597,-10.5216,-10.5409,-10.5603,-10.6492,-10.6686,-10.6704,-10.6821,-10.6406,-10.6099,-10.6077,-10.5492,-10.5105,-10.5381,-10.5584,-10.5726,-10.5787,-10.6122,-10.6299,-10.6299,-10.4906,-10.3514,-10.2315,-10.3398,-10.421,-10.4403,-10.5216,-10.6105,-10.6995,-10.6995,-10.6995,-10.6995,-10.8692,-10.9695,-11.0096,-11.1604,-11.259,-11.3001,-11.1307,-11.0909,-11.1416,-10.9894,-10.9191,-10.8996,-10.8996,-10.8605,-10.802,-10.802,-10.802,-10.802,-10.802,-10.802,-10.7981,-10.7996,-10.7996,-10.7981,-10.7996,-10.7996,-10.7981,-10.7996,-10.8003,-10.8003,-10.8003,-10.8003,-10.8003,-10.7981,-10.802,-10.802,-10.802,-10.802,-10.802,-10.802,-10.802,-10.802,-10.802,-10.802,-10.802,-10.802,-10.802,-10.802,-10.802,-10.802,-10.802,-10.802,-10.802,-10.7903,-10.7708,-10.7083,-10.6185,-10.5092,-10.5092,-10.4702,-10.3804,-10.4584,-10.5014,-10.4702,-10.5795,-10.638,-10.638,-10.72,-10.7708,-10.759,-10.681,-10.6185,-9.717,-9.7711,-9.8292,-9.9027,-10.0806,-10.2508,-10.2508,-10.4094,-10.5603,-10.5719,-10.5989,-10.6415,-10.6879,-10.7305,-10.7292,-10.6698,-10.6913,-10.6888,-10.6381,-10.6124,-10.61,-10.6205,-10.641,-10.6484,-10.6492,-10.6786,-10.6802,-10.6492,-10.5216,-10.421,-10.3591,-10.4094,-10.4597,-10.5022,-10.5796,-10.6492,-10.6995,-10.6995,-10.6995,-10.6995,-10.8697,-10.9695,-11.0109,-11.1799,-11.259,-11.2486,-11.1503,-11.1104,-11.1182,-11.0206,-10.9581,-10.9308,-10.9699,-10.9308,-10.8605,-10.8605,-10.8605,-10.8488,-10.8106,-10.8309,-10.8504,-10.8088,-10.8003,-10.7996,-10.8016,-10.8016,-10.801,-10.8016,-10.7982,-10.7982,-10.7982,-10.8016,-10.801,-10.7996,-10.7989,-10.802,-10.802,-10.802,-10.802,-10.802,-10.802,-10.802,-10.802,-10.802,-10.802,-10.802,-10.802,-10.802,-10.802,-10.802,-10.802,-10.802,-10.802,-10.802,-10.802,-10.759,-10.6888,-10.599,-10.599,-10.5599,-10.4702,-10.5482,-10.5795,-10.5404,-10.6614,-10.7083,-10.6693,-10.759,-10.802,-10.802,-10.7083,-10.6693,-9.7673,-9.8176,-9.864,-10.0187,-10.1889,-10.3204,-10.3204,-10.51,-10.6608,-10.5912,-10.6415,-10.6995,-10.6995,-10.7614,-10.7691,-10.6299,-10.7396,-10.7987,-10.6717,-10.7109,-10.7578,-10.741,-10.7274,-10.7092,-10.7014,-10.6989,-10.6686,-10.5912,-10.51,-10.4906,-10.5487,-10.4906,-10.4984,-10.5796,-10.6608,-10.6995,-10.6995,-10.6995,-10.7111,-10.7189,-10.8813,-10.9708,-11.0018,-11.1708,-11.2116,-11.1595,-11.1503,-11.0987,-11.0284,-11.0214,-10.9707,-10.9191,-10.9916,-10.9792,-10.9308,-10.9285,-10.9402,-10.9511,-10.8595,-10.8914,-10.9499,-10.8406,-10.8094,-10.8211,-10.7991,-10.7991,-10.7991,-10.7991,-10.7995,-10.7995,-10.7995,-10.7987,-10.8016,-10.801,-10.7996,-10.802,-10.802,-10.802,-10.802,-10.802,-10.802,-10.802,-10.802,-10.802,-10.802,-10.802,-10.802,-10.802,-10.802,-10.802,-10.802,-10.802,-10.802,-10.802,-10.802,-10.8098,-10.7786,-10.6888,-10.7005,-10.6693,-10.5795,-10.6497,-10.6497,-10.5795,-10.72,-10.759,-10.6888,-10.759,-10.802,-10.802,-10.7317,-10.7005,-9.7827,-9.8601,-9.9336,-10.0303,-10.1889,-10.3204,-10.3204,-10.4597,-10.5912,-10.5719,-10.6415,-10.6995,-10.6995,-10.7111,-10.7382,-10.7807,-10.8105,-10.85,-10.91,-10.8617,-10.8295,-10.8512,-10.7599,-10.7105,-10.7197,-10.7075,-10.6879,-10.6802,-10.5989,-10.5216,-10.4713,-10.5216,-10.5912,-10.6686,-10.6879,-10.6995,-10.6995,-10.6995,-10.7382,-10.8078,-10.9007,-10.9577,-10.9905,-11.1012,-11.1212,-11.0505,-11.0013,-10.9581,-10.9394,-10.8581,-10.8304,-10.8191,-10.8201,-10.8593,-10.9316,-10.9214,-11.011,-11.1212,-11.0403,-11.0682,-11.1116,-10.8819,-10.8503,-10.8889,-10.8196,-10.7998,-10.7991,-10.8001,-10.8001,-10.8001,-10.8001,-10.7995,-10.7987,-10.8016,-10.7996,-10.802,-10.802,-10.802,-10.802,-10.802,-10.802,-10.802,-10.802,-10.802,-10.802,-10.802,-10.802,-10.802,-10.802,-10.802,-10.802,-10.802,-10.802,-10.802,-10.802,-10.8684,-10.8684,-10.7786,-10.8488,-10.8488,-10.759,-10.7708,-10.7708,-10.759,-10.7786,-10.7903,-10.7786,-10.7903,-10.802,-10.802,-10.8605,-10.8488,-9.8485,-9.9684,-10.0883,-10.1696,-10.3204,-10.4287,-10.3398,-10.4519,-10.5603,-10.51,-10.5719,-10.6492,-10.6879,-10.7382,-10.7691,-10.7614,-10.8001,-10.8298,-10.8298,-10.8291,-10.8207,-10.7909,-10.7803,-10.7485,-10.7096,-10.7014,-10.6995,-10.6995,-10.6995,-10.6686,-10.5796,-10.6105,-10.6608,-10.6995,-10.6995,-10.6995,-10.6995,-10.6995,-10.7189,-10.7614,-10.8504,-10.8995,-10.9198,-11.0089,-11.02,-10.9603,-10.9216,-10.8906,-10.8503,-10.8007,-10.781,-10.7917,-10.8398,-10.9095,-10.9995,-10.9915,-11.1009,-11.2283,-11.1002,-11.1514,-11.222,-11.0115,-10.9605,-10.9798,-10.8904,-10.8708,-10.8589,-10.8085,-10.8007,-10.8007,-10.8007,-10.8003,-10.7995,-10.7987,-10.8003,-10.802,-10.802,-10.841,-10.8488,-10.8098,-10.841,-10.8488,-10.8098,-10.802,-10.802,-10.802,-10.802,-10.802,-10.802,-10.841,-10.8488,-10.802,-10.802,-10.8215,-10.8605,-10.9113,-10.9308,-10.9308,-10.9308,-10.9113,-10.8684,-10.8215,-10.802,-10.802,-10.802,-10.802,-10.802,-10.802,-10.802,-10.802,-10.8918,-10.8801,-9.9297,-10.069,-10.2199,-10.3204,-10.4403,-10.5022,-10.3514,-10.4403,-10.5216,-10.4519,-10.51,-10.5989,-10.6802,-10.7614,-10.7885,-10.7382,-10.7691,-10.7885,-10.7614,-10.8001,-10.8001,-10.7382,-10.7885,-10.8001,-10.7111,-10.6995,-10.7111,-10.7305,-10.7885,-10.8001,-10.7305,-10.7111,-10.6995,-10.6995,-10.6995,-10.6995,-10.6995,-10.6995,-10.7111,-10.7305,-10.8001,-10.8423,-10.8504,-10.9198,-10.9225,-10.8589,-10.8588,-10.8309,-10.7808,-10.7808,-10.781,-10.789,-10.8708,-10.9518,-11.028,-11.0498,-11.179,-11.319,-11.1714,-11.2302,-11.3513,-11.1718,-11.1015,-11.0701,-10.9804,-10.9414,-10.9218,-10.8515,-10.8086,-10.8008,-10.8008,-10.8007,-10.8001,-10.7991,-10.801,-10.7989,-10.7981,-10.8488,-10.8801,-10.8098,-10.8605,-10.8801,-10.8098,-10.802,-10.802,-10.802,-10.802,-10.8098,-10.8293,-10.8918,-10.9113,-10.8605,-10.8488,-10.8801,-10.9503,-10.9699,-11.0089,-11.0714,-11.0206,-10.9816,-10.9581,-10.8684,-10.8215,-10.802,-10.802,-10.802,-10.802,-10.802,-10.8098,-10.8293,-10.9191,-10.9113,-9.9994,-10.1193,-10.2315,-10.3901,-10.4403,-10.4287,-10.3398,-10.3901,-10.4519,-10.4403,-10.51,-10.5989,-10.6802,-10.7111,-10.7382,-10.8078,-10.7614,-10.7614,-10.9084,-10.8697,-10.831,-10.8194,-10.831,-10.8001,-10.7111,-10.6995,-10.7305,-10.8078,-10.831,-10.831,-10.8194,-10.7382,-10.6995,-10.6995,-10.6995,-10.6995,-10.6995,-10.6995,-10.7382,-10.8194,-10.831,-10.8305,-10.8298,-10.8492,-10.8194,-10.7422,-10.76,-10.772,-10.7612,-10.769,-10.7814,-10.7884,-10.7903,-10.8494,-10.9518,-11.0189,-11.2105,-11.4214,-11.3281,-11.4101,-11.5195,-11.3515,-11.2383,-11.1601,-11.0703,-10.9883,-10.9297,-10.9218,-10.8593,-10.8008,-10.8008,-10.8007,-10.8001,-10.7982,-10.801,-10.8003,-10.7981,-10.8098,-10.8098,-10.802,-10.8098,-10.8098,-10.802,-10.802,-10.802,-10.802,-10.802,-10.8293,-10.9113,-10.9308,-10.9503,-11.0206,-11.0284,-11.0284,-11.0401,-11.1104,-11.1611,-11.1689,-11.1611,-11.1182,-11.0401,-10.9581,-10.8801,-10.802,-10.802,-10.802,-10.802,-10.802,-10.841,-10.9191,-11.0011,-11.0011,-10.0419,-10.2392,-10.4287,-10.5022,-10.5603,-10.5603,-10.421,-10.421,-10.4403,-10.4403,-10.4713,-10.5293,-10.6686,-10.6995,-10.7111,-10.7498,-10.7189,-10.7189,-10.7885,-10.8194,-10.8078,-10.7614,-10.8001,-10.8001,-10.7111,-10.7498,-10.831,-10.9703,-10.8891,-10.8504,-10.9007,-10.7691,-10.6995,-10.6995,-10.6995,-10.6995,-10.6995,-10.6995,-10.7189,-10.7498,-10.7498,-10.7498,-10.7498,-10.7609,-10.7469,-10.7199,-10.7316,-10.7285,-10.7394,-10.7613,-10.771,-10.7715,-10.7791,-10.8514,-10.9407,-11.0194,-11.2186,-11.4296,-11.3515,-11.4297,-11.5508,-11.3789,-11.3008,-11.25,-11.1601,-11.1093,-11.0781,-11.0195,-10.9492,-10.8789,-10.8789,-10.8397,-10.8118,-10.869,-10.8797,-10.8784,-10.8809,-10.9191,-10.9191,-10.8215,-10.841,-10.8605,-10.8098,-10.841,-10.8801,-10.8801,-10.9191,-10.9581,-11.0011,-11.0518,-11.0909,-11.1182,-11.0792,-11.0714,-11.1182,-11.1611,-11.2002,-11.2509,-11.208,-11.1611,-11.1299,-11.0011,-10.9113,-10.8801,-10.8801,-10.8801,-10.8801,-10.9308,-10.9699,-11.0011,-11.0909,-11.0596,-10.1193,-10.3514,-10.5796,-10.5989,-10.6492,-10.6492,-10.479,-10.4403,-10.4403,-10.4403,-10.4403,-10.4906,-10.6686,-10.6995,-10.6995,-10.6995,-10.6802,-10.6686,-10.6995,-10.7498,-10.7691,-10.7111,-10.7807,-10.8001,-10.7111,-10.8001,-10.9084,-11.0322,-10.9587,-10.92,-10.9509,-10.8194,-10.7305,-10.6995,-10.6995,-10.6995,-10.6995,-10.6995,-10.6995,-10.6995,-10.6995,-10.6995,-10.6995,-10.6995,-10.7075,-10.7094,-10.7096,-10.7192,-10.7293,-10.7488,-10.7613,-10.7599,-10.7884,-10.8396,-10.91,-11.0195,-11.1914,-11.3711,-11.3281,-11.4218,-11.5195,-11.3711,-11.3203,-11.3086,-11.25,-11.2109,-11.1797,-11.1211,-11.0195,-10.9414,-10.9609,-10.8984,-10.8591,-10.9483,-10.9705,-10.9611,-10.9402,-10.9707,-10.9699,-10.8293,-10.8684,-10.9113,-10.8488,-10.9113,-10.9699,-10.9699,-11.0089,-11.0596,-11.0909,-11.1416,-11.1885,-11.2197,-11.1611,-11.1494,-11.208,-11.2197,-11.2392,-11.3095,-11.2509,-11.208,-11.1807,-11.0714,-10.9894,-10.9699,-10.9699,-10.9699,-10.9699,-11.0206,-11.0596,-11.0909,-11.1494,-11.0987,-10.2701,-10.4403,-10.5912,-10.6802,-10.6995,-10.6492,-10.479,-10.4403,-10.4403,-10.4403,-10.4403,-10.4906,-10.6686,-10.6995,-10.6995,-10.6995,-10.6299,-10.5989,-10.6879,-10.6995,-10.6995,-10.6995,-10.7807,-10.8001,-10.7111,-10.8504,-10.9509,-10.9509,-11.0283,-11.0399,-10.9509,-10.8697,-10.7885,-10.6995,-10.6995,-10.6995,-10.6995,-10.6995,-10.6995,-10.6995,-10.6995,-10.6995,-10.6995,-10.6995,-10.6995,-10.6995,-10.7091,-10.7084,-10.7105,-10.75,-10.7611,-10.76,-10.7917,-10.8008,-10.8203,-11.0,-11.1211,-11.1992,-11.289,-11.3789,-11.4414,-11.3515,-11.3203,-11.3203,-11.3203,-11.2617,-11.1914,-11.1914,-11.0586,-10.9492,-11.039,-10.9883,-10.9492,-11.0388,-11.0615,-11.0408,-10.9499,-10.9285,-10.9113,-10.8215,-10.8684,-10.9308,-10.9308,-11.0011,-11.0518,-11.0518,-11.0518,-11.0792,-11.1689,-11.1807,-11.208,-11.3017,-11.3095,-11.3095,-11.3095,-11.3095,-11.3095,-11.3095,-11.3095,-11.2704,-11.1807,-11.1807,-11.1416,-11.0518,-11.0518,-11.0518,-11.0518,-11.0518,-11.0909,-11.1807,-11.1807,-11.1299,-10.2315,-10.4017,-10.5603,-10.5293,-10.5719,-10.5719,-10.4017,-10.4017,-10.4403,-10.4403,-10.4403,-10.4906,-10.6686,-10.6995,-10.6995,-10.6995,-10.6802,-10.6686,-10.6995,-10.7498,-10.7885,-10.7885,-10.8078,-10.8388,-10.8697,-10.8697,-10.9393,-11.1095,-11.1018,-11.0709,-11.0399,-10.9587,-10.8504,-10.6995,-10.6995,-10.6995,-10.6995,-10.6995,-10.6995,-10.6995,-10.6995,-10.6995,-10.6995,-10.6995,-10.6995,-10.6995,-10.6989,-10.6989,-10.7091,-10.7402,-10.7488,-10.7597,-10.7913,-10.8008,-10.8203,-11.0,-11.1211,-11.1992,-11.289,-11.3789,-11.4414,-11.3515,-11.3203,-11.3203,-11.3203,-11.3008,-11.2695,-11.2109,-11.1484,-11.1015,-11.0703,-11.039,-11.039,-11.1286,-11.1514,-11.1189,-11.0398,-11.0612,-11.0596,-10.9191,-10.9581,-11.0089,-11.0089,-11.0792,-11.1416,-11.1416,-11.1885,-11.2392,-11.2704,-11.2704,-11.2783,-11.3095,-11.3095,-11.3095,-11.3095,-11.3095,-11.3095,-11.3095,-11.3095,-11.3017,-11.2704,-11.208,-11.1689,-11.1416,-11.1416,-11.1416,-11.1416,-11.2002,-11.2392,-11.2704,-11.1494,-11.0792,-10.2411,-10.3913,-10.5498,-10.5029,-10.5498,-10.5725,-10.4017,-10.3984,-10.441,-10.4403,-10.4403,-10.4906,-10.6686,-10.6995,-10.6995,-10.6995,-10.6995,-10.7111,-10.7382,-10.7691,-10.7807,-10.7807,-10.8078,-10.8504,-10.9007,-10.8891,-10.9509,-11.1521,-11.1405,-11.1095,-11.0786,-11.0283,-10.92,-10.7498,-10.7189,-10.6995,-10.6995,-10.6995,-10.6995,-10.6995,-10.6995,-10.6995,-10.6995,-10.6995,-10.6995,-10.6995,-10.6995,-10.6995,0.0,-10.7381,-10.7511,-10.7503,-10.7913,-10.8008,-10.8203,-11.0,-11.0898,-11.1601,-11.2812,-11.3593,-11.3906,-11.3398,-11.3203,-11.3203,-11.3203,-11.3203,-11.3086,-11.25,-11.2187,-11.1914,-11.1601,-11.1289,-11.1289,-11.2186,-11.2102,-11.1819,-11.1184,-11.1205,-11.0987,-11.0011,-11.0401,-11.0987,-11.0987,-11.1689,-11.2314,-11.2314,-11.2783,-11.3095,-11.3095,-11.3095,-11.3095,-11.3095,-11.3095,-11.3095,-11.3095,-11.3095,-11.3095,-11.3095,-11.3095,-11.3095,-11.3095,-11.2587,-11.2314,-11.2314,-11.2314,-11.2314,-11.2314,-11.2783,-11.3095,-11.3095,-11.1299,-11.0518,0.0,-10.4087,-10.5469,-10.5426,-10.601,-10.6164,-10.4681,-10.43,0.0,-10.441,-10.4403,-10.4984,-10.6802,-10.6995,-10.6995,-10.7111,-10.6995,-10.7305,-10.8194,-10.7691,-10.7305,-10.7305,-10.8001,-10.8504,-10.8504,-10.92,-11.0012,-11.0786,-11.1598,-11.1714,-11.0902,-11.0786,-11.009,-10.8504,-10.7614,-10.7111,-10.6995,-10.6995,-10.6995,-10.6995,-10.6995,-10.6995,-10.6995,-10.6995,-10.6995,-10.6995,-10.6995,-10.6995,-10.7021,-10.7381,-10.7511,-10.7503,-10.7913,-10.8008,-10.8281,-11.0,-11.0586,-11.0898,-11.2617,-11.3203,-11.3203,-11.3203,-11.3203,-11.3203,-11.3203,-11.3203,-11.3203,-11.3203,-11.2617,-11.2187,-11.3008,-11.2617,-11.2187,-11.3008,-11.2613,-11.2014,-11.1897,-11.129,-11.0714,-11.0596,-11.1299,-11.1885,-11.1885,-11.2587,-11.3095,-11.3095,-11.3095,-11.3095,-11.3095,-11.3095,-11.3095,-11.3095,-11.3095,-11.3095,-11.3095,-11.3095,-11.3095,-11.3095,-11.3095,-11.3095,-11.3095,-11.3095,-11.3095,-11.3095,-11.3095,-11.3095,-11.3095,-11.3095,-11.3095,-11.3095,-11.1299,-11.0518,-10.1786,0.0,-10.4498,-10.3907,-10.4266,-10.458,0.0,-10.3306,-10.3499,-10.4189,-10.441,-10.51,-10.7614,-10.7382,-10.7189,-10.7885,-10.7382,-10.7305,-10.8194,-10.92,-10.9896,-10.9896,-11.009,-11.0206,-11.0206,-11.0399,-11.0902,-11.1714,-11.2024,-11.2024,-11.1792,-11.1211,-11.0593,-11.0206,-10.8813,-10.7691,-10.6995,-10.6995,-10.6995,-10.6995,-10.6995,-10.6995,-10.6995,-10.6995,-10.6995,-10.6995,-10.6995,-10.6995,-10.7021,-10.7381,-10.7511,-10.7503,-10.7913,-10.8398,-10.9101,-11.0195,-11.1015,-11.1718,-11.2812,-11.3203,-11.3203,-11.3203,-11.3203,-11.3203,-11.3203,-11.3203,-11.3203,-11.3203,-11.3086,-11.289,-11.3086,-11.3008,-11.289,-11.3203,-11.3003,-11.26,-11.2014,-11.2188,-11.2314,-11.1611,-11.2197,-11.2791,-11.2806,-11.2986,-11.3103,-11.3118,-11.3103,-11.3095,-11.3095,-11.3095,-11.3095,-11.3095,-11.3095,-11.3095,-11.3095,-11.3095,-11.3095,-11.3095,-11.3095,-11.3095,-11.3095,-11.3095,-11.3095,-11.3095,-11.3095,-11.3095,-11.3095,-11.3095,-11.3095,-11.3095,-11.1299,-11.0518,-10.1478,-10.2894,-10.4194,-10.3797,-10.431,-10.4588,-10.3808,-10.331,-10.3117,-10.3615,-10.4106,-10.4984,-10.6802,-10.7382,-10.7614,-10.7691,-10.7614,-10.7807,-10.8194,-11.009,-11.1095,-11.0283,-11.0593,-11.0786,-11.0786,-11.0786,-11.1211,-11.2024,-11.2101,-11.2101,-11.2101,-11.1714,-11.1211,-11.0786,-10.9509,-10.8388,-10.7614,-10.7189,-10.6995,-10.6995,-10.6995,-10.6995,-10.6995,-10.7382,-10.7382,-10.6995,-10.7382,-10.7401,-10.7115,-10.7383,-10.7597,-10.7716,-10.792,-10.8281,-10.8906,-11.0117,-11.0898,-11.1484,-11.2812,-11.3203,-11.3203,-11.3203,-11.3203,-11.3203,-11.3203,-11.3203,-11.3203,-11.3203,-11.3203,-11.3203,-11.3203,-11.3203,-11.3203,-11.3203,-11.2886,-11.2483,-11.2483,-11.25,-11.2509,-11.2408,-11.2799,-11.3118,-11.3092,-11.3092,-11.3086,-11.3098,-11.3086,-11.3111,-11.3111,-11.3103,-11.3095,-11.3095,-11.3095,-11.3095,-11.3095,-11.3095,-11.3095,-11.3095,-11.3103,-11.3103,-11.3095,-11.3103,-11.3103,-11.3095,-11.3095,-11.3095,-11.3095,-11.3095,-11.3095,-11.3095,-11.1689,-11.0909,-10.1704,-10.3083,-10.4498,-10.4305,-10.4782,-10.5016,-10.4392,-10.3588,-10.2897,-10.3001,-10.3687,-10.4681,-10.5912,-10.7189,-10.8001,-10.7614,-10.8194,-10.8697,-10.8697,-11.0709,-11.1598,-11.009,-11.0515,-11.1018,-11.1018,-11.1018,-11.1289,-11.2024,-11.2101,-11.2101,-11.2101,-11.2101,-11.1792,-11.1018,-11.0012,-10.92,-10.8504,-10.7498,-10.6995,-10.6995,-10.7111,-10.7189,-10.7189,-10.8078,-10.8001,-10.7189,-10.7989,-10.8017,-10.7401,-10.7498,-10.7704,-10.7989,-10.8003,-10.8203,-10.8593,-11.0117,-11.0781,-11.1211,-11.2695,-11.3203,-11.3203,-11.3203,-11.3203,-11.3203,-11.3203,-11.3203,-11.3203,-11.3203,-11.3203,-11.3203,-11.3203,-11.3203,-11.3203,-11.3203,-11.2613,-11.2291,-11.2994,-11.2506,-11.2213,-11.3008,-11.3086,-11.3092,-11.3108,-11.3108,-11.3108,-11.3108,-11.3098,-11.3086,-11.3086,-11.3111,-11.3103,-11.3095,-11.3095,-11.3095,-11.3103,-11.3103,-11.3103,-11.3103,-11.3118,-11.3118,-11.3103,-11.3111,-11.3111,-11.3095,-11.3095,-11.3095,-11.3095,-11.3095,-11.3095,-11.3095,-11.2197,-11.1299,-10.2511,-10.4117,-10.5299,-10.4603,-10.431,-10.4286,-10.417,-10.3401,-10.2788,-10.2897,-10.3696,-10.5001,-10.7498,-10.7498,-10.7885,-10.9896,-11.0322,-11.0399,-11.0399,-11.1405,-11.2024,-11.1714,-11.1792,-11.1908,-11.1908,-11.1908,-11.2024,-11.2101,-11.2101,-11.2101,-11.2101,-11.2101,-11.2024,-11.1908,-11.0322,-10.9393,-10.9316,-10.7807,-10.6995,-10.6995,-10.7691,-10.8078,-10.8078,-10.8891,-10.8891,-10.8111,-10.8394,-10.8375,-10.8319,-10.7898,-10.8198,-10.8809,-10.8199,-10.8906,-11.0195,-11.0508,-11.1484,-11.2812,-11.3086,-11.3203,-11.3203,-11.3203,-11.3203,-11.3203,-11.3203,-11.3203,-11.3203,-11.3203,-11.3203,-11.3203,-11.3203,-11.3203,-11.3203,-11.3203,-11.3085,-11.3001,-11.3196,-11.2994,-11.2908,-11.3103,-11.3103,-11.3108,-11.3196,-11.3112,-11.3112,-11.3196,-11.3112,-11.3098,-11.3086,-11.3086,-11.3111,-11.3095,-11.3095,-11.3103,-11.3118,-11.3079,-11.3086,-11.3103,-11.3092,-11.3086,-11.3079,-11.3111,-11.3103,-11.3095,-11.3095,-11.3095,-11.3095,-11.3095,-11.3095,-11.3095,-11.2197,-11.1299,-10.2125,-10.3194,-10.4377,-10.5022,-10.5696,-10.6287,-10.6287,-10.5598,-10.4789,-10.4395,-10.501,-10.6006,-10.7421,-10.8001,-10.8891,-11.0515,-11.0786,-11.0786,-11.0786,-11.1598,-11.2101,-11.2101,-11.2101,-11.2101,-11.2101,-11.2101,-11.2101,-11.2101,-11.2101,-11.2101,-11.2101,-11.2101,-11.2101,-11.2101,-11.0902,-11.0012,-10.9509,-10.831,-10.7691,-10.7691,-10.8078,-10.8504,-10.9007,-10.9316,-10.9105,-10.8394,-10.8996,-10.9093,-10.879,-10.9115,-10.9487,-10.9792,-10.8983,-10.9492,-11.0703,-11.1093,-11.2109,-11.3203,-11.3203,-11.3203,-11.3203,-11.3203,-11.3203,-11.3203,-11.3203,-11.3203,-11.3203,-11.3203,-11.3203,-11.3203,-11.3203,-11.3203,-11.3203,-11.3203,-11.3202,-11.3199,-11.3199,-11.3115,-11.3108,-11.3115,-11.3193,-11.3196,-11.3202,-11.32,-11.32,-11.3202,-11.3199,-11.3193,-11.3186,-11.3103,-11.3098,-11.3086,-11.3086,-11.3092,-11.3098,-11.3098,-11.3103,-11.3193,-11.3108,-11.3098,-11.3098,-11.3086,-11.3111,-11.3095,-11.3095,-11.3095,-11.3095,-11.3095,-11.3095,-11.3095,-11.2704,-11.1807,-10.1784,-10.2585,-10.3692,-10.5305,-10.6426,-10.7401,-10.798,-10.7214,-10.6292,-10.5933,-10.6512,-10.7208,-10.7503,-10.9007,-11.0206,-11.0515,-11.0786,-11.1095,-11.1095,-11.1714,-11.2101,-11.2101,-11.2101,-11.2101,-11.2101,-11.2101,-11.2101,-11.2101,-11.2101,-11.2101,-11.2101,-11.2101,-11.2101,-11.2101,-11.1289,-11.0515,-10.9819,-10.9007,-10.8504,-10.831,-10.8504,-10.9007,-10.978,-11.0111,-10.98,-10.9203,-10.9905,-10.9982,-10.9699,-11.019,-11.0612,-11.0781,-10.9883,-11.0117,-11.1015,-11.1914,-11.2812,-11.3515,-11.3281,-11.3281,-11.3515,-11.3281,-11.3203,-11.3203,-11.3203,-11.3203,-11.3203,-11.3203,-11.3203,-11.3203,-11.3203,-11.3203,-11.3203,-11.3203,-11.3202,-11.32,-11.32,-11.3196,-11.3115,-11.3199,-11.32,-11.3202,-11.3203,-11.3203,-11.3203,-11.3203,-11.3202,-11.3083,-11.2886,-11.2998,-11.2994,-11.2795,-11.299,-11.3108,-11.3112,-11.3112,-11.3118,-11.32,-11.3193,-11.3112,-11.3108,-11.3092,-11.3118,-11.3095,-11.3095,-11.3095,-11.3095,-11.3095,-11.3095,-11.3095,-11.29,-11.208,-10.2404,-10.3403,-10.4399,-10.5392,-10.5083,-10.5199,-10.7594,-10.6678,-10.5716,-10.6477,-10.7407,-10.8218,-10.9089,-11.0709,-11.1405,-10.9819,-11.1018,-11.2024,-11.2024,-11.2101,-11.2101,-11.2101,-11.2101,-11.2101,-11.2101,-11.2101,-11.2101,-11.2101,-11.2101,-11.2101,-11.2101,-11.2101,-11.2101,-11.2101,-11.1289,-11.0786,-11.0709,-10.9819,-10.9007,-10.831,-10.9084,-10.9896,-11.0709,-11.1681,-11.1702,-11.0899,-11.1291,-11.1486,-11.1385,-11.0813,-11.1093,-11.1718,-11.0781,-11.1015,-11.1914,-11.2812,-11.3711,-11.4297,-11.3515,-11.3711,-11.4297,-11.3515,-11.3203,-11.3203,-11.3203,-11.3203,-11.3203,-11.3203,-11.3203,-11.3203,-11.3203,-11.3203,-11.3203,-11.3203,-11.3203,-11.3203,-11.3203,-11.3203,-11.3203,-11.3203,-11.3203,-11.3203,-11.3203,-11.3203,-11.3203,-11.3203,-11.3203,-11.289,-11.2105,-11.2691,-11.2884,-11.2092,-11.2717,-11.3112,-11.3196,-11.3202,-11.3203,-11.3203,-11.32,-11.3196,-11.3108,-11.3092,-11.3118,-11.3095,-11.3095,-11.3095,-11.3095,-11.3095,-11.3095,-11.3095,-11.2314,-11.1807,-10.1789,-10.3019,-10.4174,-10.4592,-10.4897,-10.567,-10.8398,-10.8681,-10.853,-10.837,-10.899,-10.953,-10.9514,-11.0902,-11.1714,-11.0515,-11.1289,-11.2101,-11.2101,-11.2101,-11.2101,-11.2101,-11.2101,-11.2101,-11.2101,-11.2101,-11.2101,-11.2101,-11.2101,-11.2101,-11.2101,-11.2101,-11.2101,-11.2101,-11.1792,-11.1289,-11.0786,-11.0515,-11.0189,-10.9974,-11.0285,-11.0983,-11.1798,-11.1811,-11.1606,-11.1393,-11.1505,-11.168,-11.1787,-11.2108,-11.2383,-11.2695,-11.2304,-11.2109,-11.1992,-11.289,-11.3789,-11.4414,-11.3515,-11.4101,-11.5195,-11.4297,-11.3984,-11.3984,-11.3984,-11.3509,-11.2981,-11.2981,-11.2908,-11.2891,-11.3083,-11.3203,-11.3203,-11.3203,-11.3203,-11.3203,-11.3203,-11.3203,-11.3203,-11.3203,-11.3203,-11.3203,-11.3203,-11.3203,-11.3203,-11.3203,-11.3203,-11.3086,-11.2812,-11.2499,-11.2499,-11.2693,-11.3005,-11.32,-11.3202,-11.3203,-11.3203,-11.3203,-11.3203,-11.32,-11.3196,-11.3108,-11.3092,-11.3118,-11.3103,-11.3095,-11.3095,-11.3095,-11.3095,-11.3095,-11.2783,-11.2314,-10.1827,-10.2674,-10.3675,-10.3981,-10.4789,-10.5983,-10.8482,-10.9299,-10.9688,-11.0071,-11.038,-11.0416,-10.9978,-11.0902,-11.1521,-11.0902,-11.1521,-11.2101,-11.2101,-11.2101,-11.2101,-11.2101,-11.2101,-11.2101,-11.2101,-11.2101,-11.2101,-11.2101,-11.2101,-11.2101,-11.2101,-11.2101,-11.2101,-11.2101,-11.2101,-11.1792,-11.1211,-11.1211,-11.1298,-11.1495,-11.1593,-11.1888,-11.2394,-11.2109,-11.189,-11.2002,-11.211,-11.2213,-11.2383,-11.3008,-11.3203,-11.3203,-11.3203,-11.2812,-11.2383,-11.3008,-11.3906,-11.4804,-11.3906,-11.4687,-11.6015,-11.5195,-11.4687,-11.4492,-11.4492,-11.3815,-11.29,-11.29,-11.2814,-11.2703,-11.2916,-11.302,-11.2986,-11.3115,-11.3118,-11.3081,-11.3203,-11.3203,-11.3203,-11.3203,-11.3203,-11.3203,-11.3203,-11.3203,-11.3086,-11.2812,-11.2812,-11.2617,-11.1992,-11.1914,-11.2109,-11.2695,-11.2812,-11.2812,-11.2812,-11.2812,-11.289,-11.3203,-11.289,-11.289,-11.3199,-11.3193,-11.3103,-11.3086,-11.3111,-11.3103,-11.3095,-11.3095,-11.3095,-11.3095,-11.2783,-11.2509,-10.2597,-10.2598,-10.2905,-10.3791,-10.4716,-10.5794,-10.7566,-10.7914,-10.8608,-11.1192,-11.119,-11.0604,-11.079,-11.0786,-11.0786,-11.0786,-11.1521,-11.2101,-11.2101,-11.2101,-11.2101,-11.2101,-11.2101,-11.2101,-11.2101,-11.2101,-11.2101,-11.2101,-11.2101,-11.2101,-11.2101,-11.2101,-11.2101,-11.2101,-11.2101,-11.2101,-11.2101,-11.2101,-11.2189,-11.2388,-11.2484,-11.2615,-11.2576,-11.2811,-11.29,-11.2908,-11.3118,-11.3203,-11.3203,-11.3203,-11.3203,-11.3203,-11.3203,-11.3203,-11.3203,-11.3203,-11.4297,-11.5703,-11.4804,-11.5586,-11.6914,-11.6015,-11.5195,-11.4492,-11.4492,-11.3811,-11.29,-11.29,-11.2814,-11.2615,-11.2615,-11.2615,-11.2626,-11.292,-11.29,-11.3001,-11.3202,-11.3203,-11.3203,-11.3203,-11.3203,-11.3203,-11.3203,-11.3203,-11.289,-11.1992,-11.1914,-11.1289,-10.9492,-11.0781,-11.1914,-11.1914,-11.1914,-11.1914,-11.1914,-11.1914,-11.2304,-11.3086,-11.2383,-11.2304,-11.3199,-11.3199,-11.319,-11.3086,-11.3086,-11.3118,-11.3095,-11.3095,-11.3095,-11.3095,-11.2197,-11.2314,-10.0981,-10.2213,-10.3406,-10.2405,-10.46,-10.722,-10.772,-10.8297,-10.9108,-11.0496,-11.0575,-11.0611,-11.0604,-11.1216,-11.1521,-11.0902,-11.1521,-11.2101,-11.2101,-11.2101,-11.2101,-11.2101,-11.2101,-11.2101,-11.2101,-11.2101,-11.2101,-11.2101,-11.2101,-11.2101,-11.2101,-11.2101,-11.2101,-11.2101,-11.2101,-11.2101,-11.2101,-11.2174,-11.2414,-11.2484,-11.2709,-11.2811,-11.2822,-11.2981,-11.3118,-11.3118,-11.3203,-11.3203,-11.3203,-11.3203,-11.3203,-11.3203,-11.3203,-11.3203,-11.3203,-11.3203,-11.4297,-11.5586,-11.4804,-11.6015,-11.7812,-11.6914,-11.6484,-11.6093,-11.5407,-11.4521,-11.3483,-11.2698,-11.24,-11.2195,-11.2195,-11.2401,-11.2482,-11.2783,-11.29,-11.3001,-11.3202,-11.3203,-11.3203,-11.3203,-11.3203,-11.3203,-11.3203,-11.2695,-11.2187,-11.1914,-11.1406,-11.0586,-10.9414,-11.0312,-11.0781,-11.0117,-11.1211,-11.1914,-11.1914,-11.25,-11.289,-11.3203,-11.3008,-11.289,-11.3203,-11.32,-11.3196,-11.3193,-11.3098,-11.3079,-11.3118,-11.3103,-11.3095,-11.3095,-11.2783,-11.29,-10.2212,-10.3405,-10.4367,-10.3599,-10.5293,-10.7411,-10.8024,-10.9178,-11.0223,-11.0804,-11.069,-11.0612,-11.1107,-11.1409,-11.1521,-11.1289,-11.1792,-11.2101,-11.2101,-11.2101,-11.2101,-11.2101,-11.2101,-11.2101,-11.2101,-11.2101,-11.2101,-11.2101,-11.2101,-11.2101,-11.2101,-11.2101,-11.2101,-11.2101,-11.2101,-11.2101,-11.2101,-11.2292,-11.2472,-11.2615,-11.2811,-11.2916,-11.2986,-11.3083,-11.3203,-11.3203,-11.3203,-11.3203,-11.3203,-11.3203,-11.3203,-11.3203,-11.3203,-11.3203,-11.3203,-11.3203,-11.4101,-11.5195,-11.5,-11.6211,-11.7812,-11.7617,-11.7304,-11.6795,-11.5819,-11.4816,-11.371,-11.2697,-11.2282,-11.2101,-11.2101,-11.2228,-11.2401,-11.2695,-11.2793,-11.3001,-11.3202,-11.3203,-11.3203,-11.3203,-11.289,-11.2812,-11.3086,-11.2187,-11.1406,-11.1406,-11.0312,-10.9492,-10.9297,-10.9492,-10.9492,-10.9297,-11.0508,-11.1211,-11.0898,-11.1718,-11.2187,-11.2187,-11.2187,-11.2304,-11.2695,-11.2889,-11.3083,-11.3085,-11.3006,-11.3001,-11.2998,-11.3079,-11.3095,-11.3095,-11.3095,-11.3095,-10.4676,-10.5212,-10.5705,-10.618,-10.6488,-10.718,-10.8832,-11.0406,-11.1606,-11.1732,-11.1192,-11.0997,-11.1912,-11.1405,-11.1211,-11.2024,-11.2101,-11.2101,-11.2101,-11.2101,-11.2101,-11.2101,-11.2101,-11.2101,-11.2101,-11.2101,-11.2101,-11.2101,-11.2101,-11.2101,-11.2101,-11.2101,-11.2101,-11.2101,-11.2101,-11.2101,-11.2101,-11.232,-11.2495,-11.2615,-11.2783,-11.2986,-11.3203,-11.3203,-11.3203,-11.3203,-11.3203,-11.3203,-11.3203,-11.3203,-11.3203,-11.3203,-11.3203,-11.3203,-11.3203,-11.3203,-11.3789,-11.4609,-11.5312,-11.6211,-11.6992,-11.7812,-11.75,-11.6717,-11.5702,-11.4699,-11.371,-11.2682,-11.2302,-11.2097,-11.2097,-11.2091,-11.2174,-11.2503,-11.2683,-11.2916,-11.32,-11.3203,-11.3203,-11.3203,-11.2617,-11.2304,-11.3086,-11.1797,-11.0703,-11.0586,-10.9297,-10.8515,-10.9218,-10.8593,-10.8398,-10.9218,-11.0,-11.0195,-10.9492,-11.0117,-11.0586,-11.0703,-11.0781,-11.1211,-11.1992,-11.259,-11.2908,-11.2891,-11.2903,-11.2912,-11.2886,-11.299,-11.3103,-11.3212,-11.3212,-11.329,-10.1597,-10.3289,-10.5289,-10.4715,-10.6603,-10.899,-11.056,-11.1837,-11.2187,-11.092,-11.1693,-11.25,-11.1996,-11.1912,-11.1908,-11.2101,-11.2101,-11.2101,-11.2101,-11.2101,-11.2101,-11.2101,-11.2101,-11.2101,-11.2101,-11.2101,-11.2101,-11.2101,-11.2101,-11.2101,-11.2101,-11.2101,-11.2101,-11.2101,-11.2101,-11.2101,-11.2101,-11.2386,-11.2619,-11.2615,-11.3001,-11.3202,-11.3203,-11.3203,-11.3203,-11.3203,-11.3203,-11.3203,-11.3203,-11.2986,-11.3008,-11.3008,-11.3008,-11.3008,-11.3014,-11.3083,-11.3789,-11.4492,-11.4687,-11.5312,-11.6093,-11.6211,-11.6093,-11.5819,-11.4804,-11.4192,-11.3706,-11.2795,-11.2511,-11.2309,-11.2309,-11.2425,-11.25,-11.2487,-11.262,-11.2787,-11.3081,-11.3203,-11.3203,-11.3203,-11.3008,-11.3008,-11.3203,-11.2304,-11.1406,-11.0703,-11.0312,-10.9883,-10.9414,-10.9101,-10.9101,-10.9297,-10.9492,-10.9804,-11.0312,-11.0508,-11.0898,-11.1601,-11.2304,-11.2695,-11.289,-11.2903,-11.2908,-11.3008,-11.2803,-11.2791,-11.3003,-11.3007,-11.3381,-11.411,-11.411,-11.45,-10.2405,-10.3713,-10.4982,-10.5717,-10.749,-10.9495,-11.0602,-11.1994,-11.2618,-11.1188,-11.2079,-11.2964,-11.2109,-11.2105,-11.2101,-11.2101,-11.2101,-11.2101,-11.2101,-11.2101,-11.2101,-11.2101,-11.2101,-11.2101,-11.2101,-11.2101,-11.2101,-11.2101,-11.2101,-11.2101,-11.2101,-11.2101,-11.2101,-11.2101,-11.2101,-11.2101,-11.2101,-11.2394,-11.2615,-11.2615,-11.302,-11.3203,-11.3203,-11.3203,-11.3203,-11.3203,-11.3203,-11.3083,-11.299,-11.2916,-11.2793,-11.2787,-11.2881,-11.29,-11.2908,-11.3081,-11.3515,-11.3906,-11.4414,-11.4804,-11.5195,-11.5586,-11.5703,-11.5585,-11.4492,-11.411,-11.3815,-11.2905,-11.25,-11.2388,-11.2388,-11.2388,-11.2388,-11.2388,-11.25,-11.268,-11.3014,-11.3108,-11.3115,-11.3203,-11.289,-11.2695,-11.3086,-11.25,-11.1601,-11.0703,-11.0195,-10.9804,-10.9414,-10.8906,-10.8789,-10.9297,-10.9687,-11.0117,-11.0586,-11.1015,-11.1406,-11.1914,-11.2695,-11.3398,-11.3789,-11.3996,-11.3711,-11.29,-11.319,-11.3212,-11.2891,-11.3394,-11.3896,-11.4383,-11.4813,-11.529,-10.3791,-10.4599,-10.5214,-10.7605,-10.8878,-10.9802,-11.049,-11.1922,-11.2773,-11.1999,-11.2619,-11.3,-11.2221,-11.2101,-11.2101,-11.2101,-11.2101,-11.2101,-11.2101,-11.2101,-11.2101,-11.2101,-11.2101,-11.2101,-11.2101,-11.2101,-11.2101,-11.2101,-11.2101,-11.2101,-11.2101,-11.2101,-11.2101,-11.2101,-11.2101,-11.2101,-11.2101,-11.2394,-11.2615,-11.2615,-11.302,-11.3203,-11.3203,-11.3203,-11.3203,-11.3203,-11.3202,-11.3108,-11.29,-11.2783,-11.2695,-11.258,-11.2787,-11.2793,-11.2891,-11.3118,-11.3203,-11.3281,-11.3984,-11.4297,-11.4414,-11.5117,-11.539,-11.5194,-11.4308,-11.4009,-11.3779,-11.289,-11.2484,-11.24,-11.2414,-11.2273,-11.2196,-11.232,-11.241,-11.258,-11.2793,-11.29,-11.3001,-11.3202,-11.2617,-11.2383,-11.3086,-11.2617,-11.1914,-11.1211,-11.039,-10.9883,-10.9804,-10.9101,-10.8984,-10.9883,-11.0508,-11.0898,-11.1211,-11.1718,-11.1992,-11.2109,-11.289,-11.3711,-11.4492,-11.549,-11.5077,-11.3191,-11.3786,-11.3815,-11.3201,-11.3996,-11.4608,-11.4899,-11.561,-11.6008,-10.1673,-10.4022,-10.6796,-10.93,-11.0189,-11.0729,-11.219,-11.281,-11.3005,-11.2812,-11.3005,-11.2887,-11.2112,-11.1993,-11.2101,-11.2101,-11.2101,-11.2101,-11.2101,-11.2101,-11.2101,-11.2101,-11.2101,-11.2101,-11.2101,-11.2101,-11.2101,-11.2101,-11.2101,-11.2101,-11.2101,-11.2101,-11.2101,-11.2101,-11.2101,-11.2101,-11.2101,-11.2394,-11.2615,-11.2615,-11.302,-11.3203,-11.3203,-11.3203,-11.3203,-11.3203,-11.2981,-11.2908,-11.2891,-11.2581,-11.2502,-11.2386,-11.2619,-11.261,-11.2695,-11.3112,-11.3203,-11.3203,-11.3281,-11.3398,-11.3398,-11.3515,-11.3515,-11.3515,-11.3397,-11.3181,-11.3017,-11.2881,-11.2709,-11.2503,-11.24,-11.2401,-11.232,-11.2196,-11.2202,-11.2281,-11.2799,-11.29,-11.3001,-11.3202,-11.3086,-11.3086,-11.3203,-11.3086,-11.3008,-11.289,-11.2812,-11.2383,-11.1601,-11.1484,-11.1718,-11.2617,-11.2109,-11.2304,-11.3906,-11.2695,-11.2187,-11.3008,-11.3789,-11.4414,-11.4492,-11.6718,-11.7099,-11.518,-11.4992,-11.4898,-11.4998,-11.5101,-11.5709,-11.6696,-11.6813,-11.7204,-10.2212,-10.46,-10.7104,-10.9685,-11.042,-11.0883,-11.25,-11.25,-11.25,-11.3423,-11.3312,-11.2774,-11.2037,-11.1918,-11.1993,-11.2101,-11.2101,-11.2101,-11.2101,-11.2101,-11.2101,-11.2101,-11.2101,-11.2101,-11.2101,-11.2101,-11.2101,-11.2101,-11.2101,-11.2101,-11.2101,-11.2101,-11.2101,-11.2101,-11.2101,-11.2202,-11.2311,-11.25,-11.2709,-11.2916,-11.3118,-11.3203,-11.3203,-11.3203,-11.3203,-11.3203,-11.3118,-11.2916,-11.2709,-11.26,-11.24,-11.2204,-11.2386,-11.2523,-11.261,-11.2908,-11.3118,-11.3203,-11.3203,-11.3203,-11.3203,-11.3203,-11.3203,-11.3203,-11.3203,-11.3083,-11.3112,-11.3112,-11.2793,-11.2598,-11.2503,-11.2388,-11.222,-11.2097,-11.2101,-11.229,-11.3311,-11.3113,-11.2783,-11.3083,-11.3593,-11.3906,-11.3906,-11.4297,-11.4609,-11.4609,-11.4218,-11.3789,-11.3398,-11.289,-11.3008,-11.3789,-11.3593,-11.3789,-11.5117,-11.4101,-11.3711,-11.4492,-11.5,-11.539,-11.5898,-11.7383,-11.7886,-11.7015,-11.6389,-11.5921,-11.5485,-11.5992,-11.651,-11.7013,-11.7482,-11.7916,-10.3097,-10.4831,-10.6487,-10.93,-11.0112,-11.0613,-11.25,-11.219,-11.2071,-11.3681,-11.3416,-11.2768,-11.2504,-11.2309,-11.2228,-11.2105,-11.2067,-11.2101,-11.2101,-11.2101,-11.2101,-11.2101,-11.2101,-11.2101,-11.2101,-11.2101,-11.2101,-11.2101,-11.2101,-11.2101,-11.2101,-11.2101,-11.2101,-11.2101,-11.2101,-11.2189,-11.2388,-11.26,-11.291,-11.3203,-11.3203,-11.3203,-11.3203,-11.3203,-11.3203,-11.3203,-11.3083,-11.2908,-11.2615,-11.26,-11.2414,-11.2097,-11.232,-11.2517,-11.2593,-11.2783,-11.2986,-11.3203,-11.3203,-11.3203,-11.3203,-11.3203,-11.3203,-11.3203,-11.3515,-11.3398,-11.3203,-11.3307,-11.2978,-11.2598,-11.2482,-11.2398,-11.2411,-11.2411,-11.2604,-11.2918,-11.3711,-11.3577,-11.3496,-11.3786,-11.4414,-11.4804,-11.4804,-11.5312,-11.5703,-11.5703,-11.5195,-11.4804,-11.4804,-11.4218,-11.4218,-11.5,-11.5117,-11.5508,-11.6289,-11.5586,-11.5312,-11.5703,-11.5898,-11.6211,-11.6718,-11.7695,-11.8198,-11.8084,-11.7511,-11.6891,-11.6183,-11.6886,-11.7183,-11.7294,-11.7997,-11.8313,-10.3405,-10.3982,-10.4906,-10.8299,-10.9185,-10.9802,-11.2387,-11.2309,-11.2113,-11.3808,-11.3416,-11.2988,-11.3808,-11.3468,-11.2887,-11.1998,-11.1993,-11.2101,-11.2101,-11.2101,-11.2101,-11.2101,-11.2101,-11.2101,-11.2101,-11.2101,-11.2101,-11.2101,-11.2101,-11.2101,-11.2101,-11.2101,-11.2101,-11.2101,-11.2101,-11.2189,-11.2388,-11.2695,-11.3014,-11.3203,-11.3203,-11.3203,-11.3203,-11.3203,-11.3203,-11.3203,-11.3014,-11.2799,-11.2598,-11.2511,-11.2302,-11.2097,-11.232,-11.2517,-11.2593,-11.2783,-11.2986,-11.3203,-11.3203,-11.3203,-11.3203,-11.3203,-11.3203,-11.3398,-11.4218,-11.3906,-11.3316,-11.3711,-11.3295,-11.2484,-11.2212,-11.2716,-11.33,-11.33,-11.3881,-11.439,-11.4022,-11.4813,-11.5585,-11.5586,-11.5586,-11.5586,-11.5586,-11.5703,-11.5781,-11.5703,-11.5703,-11.5586,-11.5586,-11.5586,-11.5898,-11.6797,-11.6914,-11.7187,-11.8086,-11.7383,-11.6484,-11.5703,-11.6484,-11.6601,-11.5781,-11.7383,-11.8281,-11.8281,-11.8203,-11.8115,-11.7897,-11.7905,-11.8019,-11.8203,-11.8281,-11.8281,-10.4137,-10.4289,-10.4599,-10.7488,-10.8605,-10.9373,-11.092,-11.1378,-11.218,-11.4373,-11.422,-11.3791,-11.4681,-11.3928,-11.3005,-11.2809,-11.2379,-11.2101,-11.2101,-11.2101,-11.2101,-11.2101,-11.2101,-11.2101,-11.2101,-11.2101,-11.2101,-11.2101,-11.2101,-11.2101,-11.2101,-11.2101,-11.2101,-11.2101,-11.2101,-11.2204,-11.2503,-11.2787,-11.302,-11.3203,-11.3203,-11.3081,-11.302,-11.302,-11.302,-11.302,-11.2916,-11.2799,-11.2615,-11.2503,-11.2388,-11.2101,-11.2196,-11.2388,-11.2576,-11.268,-11.2908,-11.3203,-11.3203,-11.3203,-11.3203,-11.3203,-11.3593,-11.4101,-11.4414,-11.4602,-11.4687,-11.489,-11.4486,-11.4004,-11.3911,-11.401,-11.3997,-11.3494,-11.4193,-11.489,-11.4819,-11.529,-11.5781,-11.5703,-11.6211,-11.6484,-11.6484,-11.6992,-11.7383,-11.7383,-11.7383,-11.7383,-11.7383,-11.7383,-11.75,-11.7812,-11.7812,-11.8008,-11.8281,-11.75,-11.6914,-11.6601,-11.6797,-11.6914,-11.6484,-11.7695,-11.8281,-11.8281,-11.8281,-11.8319,-11.8193,-11.8193,-11.8198,-11.8281,-11.8281,-11.8281,-10.4292,-10.4291,-10.4523,-10.6796,-10.7718,-10.8524,-10.9992,-11.0721,-11.1791,-11.4291,-11.4407,-11.4291,-11.5484,-11.4694,-11.3699,-11.3198,-11.2575,-11.2101,-11.2101,-11.2101,-11.2101,-11.2101,-11.2101,-11.2101,-11.2101,-11.2101,-11.2101,-11.2101,-11.2101,-11.2101,-11.2101,-11.2101,-11.2101,-11.2101,-11.2202,-11.2297,-11.2615,-11.2683,-11.29,-11.3118,-11.2986,-11.2916,-11.2811,-11.2811,-11.2811,-11.2811,-11.2811,-11.2722,-11.2615,-11.2615,-11.2386,-11.2101,-11.2101,-11.2292,-11.2484,-11.2598,-11.2811,-11.3118,-11.3203,-11.3203,-11.3203,-11.3203,-11.3789,-11.4609,-11.4804,-11.5217,-11.5506,-11.5777,-11.5405,-11.4926,-11.4775,-11.4707,-11.4499,-11.3881,-11.4512,-11.5187,-11.5187,-11.5992,-11.6601,-11.6601,-11.6992,-11.7383,-11.7383,-11.789,-11.8281,-11.8281,-11.8281,-11.8281,-11.8281,-11.8281,-11.8281,-11.8281,-11.8281,-11.8281,-11.8281,-11.7812,-11.7304,-11.6992,-11.7304,-11.7304,-11.6992,-11.7812,-11.8281,-11.8281,-11.8281,-11.8281,-11.8281,-11.8281,-11.8281,-11.8281,-11.8281,-11.8281,0.0,0.0,0.0,-10.5987,-10.6409,-10.71,-10.9607,0.0,-11.0906,-11.3407,-11.3984,-11.4484,-11.6176,-11.588,-11.489,-11.3314,-11.25,-11.2101,-11.2101,-11.2101,-11.2101,-11.2101,-11.2101,-11.2101,-11.2101,-11.2101,-11.2101,-11.2101,-11.2101,-11.2101,-11.2101,-11.2101,-11.2101,-11.2101,-11.2302,-11.2511,-11.2598,-11.2598,-11.2695,-11.29,-11.2695,-11.2615,-11.2598,-11.2598,-11.2598,-11.2598,-11.2598,-11.2598,-11.2598,-11.2598,-11.2386,-11.2101,-11.2101,-11.2182,-11.2375,-11.2581,-11.2683,-11.2916,-11.3081,-11.3203,-11.3203,-11.3203,-11.3789,-11.4687,-11.5508,-11.5685,-11.5682,-11.6407,-11.5807,-11.491,-11.468,-11.4577,-11.4612,-11.4612,-11.4901,-11.5187,-11.5187,-11.6812,-11.8281,-11.8203,-11.8203,-11.8203,-11.8203,-11.8203,-11.8203,-11.8281,-11.8281,-11.8281,-11.8281,-11.8281,-11.8281,-11.8281,-11.8281,-11.8281,-11.8281,-11.8281,-11.789,-11.7109,-11.7812,-11.789,-11.7109,-11.789,-11.8281,-11.8281,-11.8281,-11.8281,-11.8281,-11.8281,-11.8281,-11.8281,-11.8281,-11.8281,-10.4792,0.0,0.0,0.0,0.0,0.0,-10.7292,0.0,0.0,-11.2522,-11.3099,-11.3791,-11.6099,-11.6004,-11.5203,-11.4085,-11.3429,-11.2727,-11.2217,-11.2101,-11.2101,-11.2101,-11.2101,-11.2101,-11.2101,-11.2101,-11.2101,0.0,-11.2101,-11.2101,-11.2101,-11.2101,-11.2101,-11.2101,-11.2202,-11.2302,-11.2487,-11.2487,-11.2503,-11.268,-11.2593,-11.2503,-11.2487,-11.2487,-11.2487,-11.2487,-11.2487,-11.2487,-11.2487,-11.2487,-11.2281,-11.2101,-11.2101,-11.2182,-11.2375,-11.2581,-11.2683,-11.2916,-11.3081,-11.3203,-11.3281,-11.3906,-11.4687,-11.5586,-11.6406,-11.6906,-11.7086,-11.7309,-11.7012,-11.6605,-11.6685,-11.5784,-11.491,-11.5,-11.5221,-11.5202,-11.4617,-11.5993,-11.7187,-11.6484,-11.6406,-11.6406,-11.6406,-11.6484,-11.6718,-11.7304,-11.7383,-11.7617,-11.8203,-11.8281,-11.8281,-11.8281,-11.8281,-11.8281,-11.8281,-11.7695,-11.75,-11.789,-11.7617,-11.75,-11.789,-11.8203,-11.8281,-11.8281,-11.8281,-11.8281,-11.8281,-11.8281,-11.8281,-11.8281,-11.8281,-11.8281,-10.5675,-10.5522,-10.5216,-10.5601,0.0,0.0,-10.729,-10.8213,0.0,0.0,-11.3791,-11.4484,-11.6599,-11.6813,-11.6128,-11.4587,-11.4009,-11.3426,-11.2299,-11.2101,-11.2101,-11.2101,-11.2101,-11.2217,-11.2604,-11.2295,-11.2295,-11.2604,-11.2295,-11.2101,-11.2101,-11.2101,-11.2101,-11.2101,-11.2101,-11.2189,-11.2388,-11.232,-11.2401,-11.2482,-11.2394,-11.2479,-11.2777,-11.2777,-11.2777,-11.2777,-11.2777,-11.2583,-11.2273,-11.2273,-11.222,-11.2101,-11.2101,-11.2196,-11.2331,-11.2511,-11.2888,-11.3318,-11.3098,-11.3589,-11.4297,-11.4414,-11.5312,-11.6406,-11.6914,-11.7281,-11.7681,-11.7681,-11.7504,-11.7201,-11.7006,-11.5924,-11.4888,-11.4704,-11.4491,-11.4305,-11.3798,-11.4596,-11.5508,-11.5703,-11.5703,-11.5703,-11.5703,-11.5781,-11.6015,-11.6914,-11.6992,-11.7304,-11.8203,-11.8281,-11.8281,-11.8281,-11.8281,-11.8203,-11.7812,-11.7304,-11.7187,-11.7695,-11.6914,-11.6992,-11.8203,-11.8008,-11.789,-11.8281,-11.8281,-11.8281,-11.8281,-11.8281,-11.8281,-11.8281,-11.8281,-11.8281,-10.6431,-10.648,-10.6408,-10.6411,-10.6178,0.0,-10.8098,-10.8406,-10.9483,0.0,0.0,-11.4907,-11.6599,-11.7073,-11.6508,-11.42,-11.4125,-11.3812,-11.2299,-11.2101,-11.2101,-11.2217,-11.2217,-11.2604,-11.3378,-11.2797,-11.272,-11.3494,-11.272,-11.2217,-11.2101,-11.2101,-11.2101,-11.2101,-11.2101,-11.2196,-11.2414,-11.2228,-11.2228,-11.2414,-11.2273,-11.2604,-11.33,-11.3416,-11.3416,-11.3416,-11.3416,-11.2991,-11.2411,-11.2411,-11.2295,-11.2101,-11.2101,-11.2101,-11.2097,-11.2281,-11.3,-11.3784,-11.3212,-11.4191,-11.5585,-11.5,-11.5781,-11.6992,-11.7109,-11.7398,-11.772,-11.7702,-11.74,-11.7119,-11.6402,-11.5626,-11.4781,-11.4078,-11.3502,-11.3111,-11.2994,-11.3112,-11.3789,-11.5195,-11.539,-11.539,-11.5506,-11.5389,-11.5702,-11.6717,-11.6795,-11.7187,-11.8203,-11.8281,-11.8281,-11.8281,-11.8281,-11.8008,-11.7187,-11.6992,-11.6914,-11.6992,-11.6093,-11.6289,-11.8086,-11.7383,-11.7383,-11.8281,-11.8281,-11.8281,-11.8281,-11.8281,-11.8281,-11.8281,-11.8281,-11.8281,-10.5117,-10.4812,-10.4897,-10.5409,-10.5024,0.0,-10.5599,-10.529,-10.5482,0.0,0.0,0.0,0.0,0.0,0.0,-11.1305,-11.231,-11.2966,-11.2183,-11.2101,-11.2295,-11.2991,-11.3107,-11.3416,-11.4306,-11.419,-11.419,-11.4383,-11.361,-11.2797,-11.2101,-11.2101,-11.2101,-11.2101,-11.2101,-11.2097,-11.2202,-11.2097,-11.2097,-11.2202,-11.2793,-11.3107,-11.33,-11.3997,-11.4306,-11.4306,-11.4306,-11.4306,-11.4113,-11.4113,-11.33,-11.2101,-11.2101,-11.2101,-11.2097,-11.2281,-11.288,-11.37,-11.388,-11.4587,-11.5585,-11.6286,-11.6718,-11.7109,-11.7812,-11.7905,-11.7683,-11.759,-11.7384,-11.7075,-11.6586,-11.5794,-11.5014,-11.4282,-11.4186,-11.3982,-11.3318,-11.371,-11.4101,-11.3789,-11.3711,-11.3591,-11.3483,-11.3509,-11.4016,-11.5585,-11.5819,-11.6384,-11.8085,-11.8281,-11.8281,-11.8281,-11.8281,-11.8203,-11.8086,-11.6797,-11.6289,-11.6992,-11.5586,-11.5508,-11.7187,-11.7109,-11.7383,-11.8281,-11.8281,-11.8281,-11.8281,-11.8281,-11.8281,-11.8281,-11.8281,-11.8281,-10.4686,-10.4305,-10.4392,-10.4707,-10.4404,0.0,0.0,-10.4908,-10.5216,0.0,0.0,0.0,-11.0483,0.0,0.0,0.0,0.0,0.0,0.0,0.0,0.0,0.0,0.0,-11.4196,-11.5085,-11.4812,-11.4383,-11.3997,-11.3494,-11.2914,-11.2101,-11.2101,-11.2101,-11.2101,-11.2101,-11.2101,-11.2101,-11.2101,-11.2295,-11.272,-11.3107,-11.3803,-11.4616,-11.5002,-11.5196,-11.5196,-11.5196,-11.5002,-11.4616,-11.4616,-11.4113,-11.33,-11.2914,-11.272,-11.2716,-11.2802,-11.3489,-11.441,-11.459,-11.5701,-11.69,-11.6991,-11.7304,-11.7695,-11.8203,-11.8091,-11.7803,-11.7605,-11.7404,-11.7327,-11.7099,-11.6512,-11.5721,-11.5117,-11.4683,-11.4297,-11.3398,-11.3515,-11.371,-11.319,-11.3108,-11.2981,-11.2908,-11.329,-11.4013,-11.5206,-11.5799,-11.6586,-11.7985,-11.82,-11.8281,-11.8281,-11.8281,-11.8086,-11.7695,-11.6914,-11.6484,-11.6992,-11.5781,-11.5898,-11.7617,-11.7187,-11.7383,-11.8281,-11.8281,-11.8281,-11.8281,-11.8281,-11.8281,-11.8281,-11.8281,-11.8281,-10.421,-10.399,-10.4112,-10.4078,-10.3971,-10.4016,0.0,0.0,0.0,0.0,0.0,0.0,0.0,0.0,0.0,0.0,0.0,0.0,0.0,0.0,0.0,0.0,0.0,0.0,-11.5591,-11.4969,-11.4383,-11.3803,-11.33,-11.2914,-11.2411,-11.2217,-11.2101,-11.2101,-11.2101,-11.2101,-11.2101,-11.2101,-11.2488,-11.33,-11.3494,-11.4383,-11.5892,-11.6085,-11.6201,-11.6201,-11.6201,-11.5815,-11.5118,-11.5118,-11.5118,-11.5002,-11.3997,-11.361,-11.361,-11.361,-11.4309,-11.5287,-11.5403,-11.6713,-11.8118,-11.7499,-11.7695,-11.8281,-11.8319,-11.8091,-11.7898,-11.7597,-11.7504,-11.7492,-11.739,-11.7019,-11.6311,-11.548,-11.4919,-11.4297,-11.3398,-11.3203,-11.3083,-11.2916,-11.3017,-11.3086,-11.3006,-11.3619,-11.44,-11.5307,-11.6102,-11.7019,-11.7897,-11.8189,-11.8281,-11.8281,-11.8281,-11.8008,-11.7304,-11.7109,-11.6992,-11.6992,-11.6289,-11.6601,-11.8008,-11.75,-11.7695,-11.8515,-11.8593,-11.8593,-11.8593,-11.8711,-11.8593,-11.8281,-11.8515,-11.8515,-10.2817,-10.2701,-10.3288,-10.3223,-10.3112,-10.3083,-10.2981,0.0,-10.2174,-10.3097,0.0,-10.3905,-10.5482,0.0,0.0,0.0,0.0,0.0,0.0,0.0,0.0,0.0,0.0,0.0,0.0,-11.4969,-11.4886,-11.5583,-11.3494,-11.2488,-11.3107,-11.2488,-11.2101,-11.2101,-11.2101,-11.2101,-11.2101,-11.2101,-11.2488,-11.33,-11.4113,-11.5002,-11.5892,-11.6704,-11.7091,-11.7091,-11.7091,-11.7014,-11.6898,-11.6898,-11.6898,-11.6704,-11.5118,-11.4499,-11.4499,-11.4499,-11.5033,-11.5902,-11.6179,-11.7014,-11.7793,-11.8115,-11.8203,-11.8319,-11.8091,-11.7911,-11.7699,-11.7702,-11.7575,-11.7283,-11.6598,-11.6512,-11.6178,-11.4488,-11.4282,-11.4297,-11.3398,-11.3203,-11.3083,-11.2916,-11.3485,-11.3892,-11.3606,-11.3591,-11.4213,-11.5781,-11.6299,-11.6906,-11.7887,-11.8189,-11.8281,-11.8281,-11.8281,-11.8281,-11.8203,-11.7383,-11.6992,-11.6992,-11.6914,-11.6914,-11.7109,-11.7812,-11.8593,-11.9414,-11.9492,-11.9492,-11.9492,-12.0195,-11.9804,-11.8281,-11.9101,-11.8984,-10.3204,-10.3282,-10.363,-10.2631,-10.3101,-10.3494,-10.2283,-10.1784,-10.1593,-10.1828,0.0,0.0,0.0,0.0,0.0,0.0,-10.7213,0.0,0.0,0.0,0.0,0.0,0.0,0.0,0.0,0.0,0.0,0.0,-11.3997,-11.2914,-11.33,-11.2991,-11.2604,-11.2101,-11.2101,-11.2101,-11.2101,-11.2604,-11.33,-11.4113,-11.4886,-11.5815,-11.6704,-11.7014,-11.7207,-11.7207,-11.7207,-11.7207,-11.7207,-11.7207,-11.7207,-11.7091,-11.6395,-11.5815,-11.5389,-11.5389,-11.572,-11.6172,-11.6922,-11.7515,-11.7895,-11.8196,-11.8281,-11.8281,-11.8196,-11.8097,-11.8014,-11.7787,-11.7703,-11.752,-11.7103,-11.7078,-11.7013,-11.5791,-11.5396,-11.5,-11.4101,-11.3509,-11.3086,-11.3411,-11.3685,-11.4095,-11.4793,-11.4969,-11.5298,-11.5926,-11.6711,-11.7287,-11.7779,-11.8097,-11.8281,-11.8281,-11.8281,-11.8281,-11.8281,-11.8008,-11.7812,-11.7812,-11.7812,-11.8008,-11.8515,-11.8398,-11.8515,-11.8789,-11.9297,-11.9609,-11.9609,-12.0508,-12.0508,-11.9804,-12.0195,-12.0195,-10.3707,-10.3784,-10.4094,-10.2585,-10.3204,-10.3714,-10.2276,-10.2009,-10.1977,-10.1982,-10.2712,0.0,0.0,0.0,-10.529,-10.4789,0.0,-10.729,0.0,0.0,0.0,0.0,0.0,0.0,0.0,0.0,0.0,0.0,0.0,-11.2914,-11.361,-11.3494,-11.2991,-11.2101,-11.2101,-11.2101,-11.2101,-11.2914,-11.3803,-11.4616,-11.5505,-11.6395,-11.7207,-11.7207,-11.7207,-11.7207,-11.6898,-11.682,-11.682,-11.682,-11.682,-11.6898,-11.7091,-11.682,-11.6318,-11.6318,-11.6295,-11.6607,-11.739,-11.7898,-11.8097,-11.8318,-11.8281,-11.8281,-11.8281,-11.8319,-11.8107,-11.7803,-11.7681,-11.7703,-11.7489,-11.759,-11.7482,-11.6818,-11.6109,-11.5412,-11.4602,-11.3782,-11.3399,-11.4003,-11.4416,-11.5076,-11.6388,-11.6289,-11.622,-11.6295,-11.7075,-11.7699,-11.7787,-11.8091,-11.8281,-11.8281,-11.8281,-11.8281,-11.8281,-11.8281,-11.8515,-11.8984,-11.8789,-11.8984,-11.9883,-11.9101,-11.8711,-11.8711,-11.9297,-11.9687,-12.0,-12.0781,-12.1289,-12.1289,-12.1289,-12.1093,-10.3707,-10.3784,-10.421,-10.3398,-10.3204,-10.3211,-10.2894,-10.2897,-10.2979,-10.3675,-10.4482,-10.529,-10.6097,-10.629,-10.579,-10.4212,-10.4713,0.0,0.0,0.0,0.0,0.0,0.0,0.0,0.0,0.0,0.0,0.0,0.0,0.0,-11.4383,-11.3803,-11.2914,-11.2101,-11.2101,-11.2101,-11.2101,-11.2914,-11.3687,-11.4616,-11.5505,-11.6395,-11.7207,-11.7207,-11.7207,-11.7207,-11.6318,-11.5892,-11.5892,-11.5892,-11.5892,-11.6008,-11.6898,-11.7207,-11.7207,-11.7207,-11.7207,-11.7196,-11.762,-11.7995,-11.8281,-11.8281,-11.8281,-11.8281,-11.8281,-11.8189,-11.7995,-11.781,-11.7681,-11.7584,-11.7297,-11.7478,-11.7486,-11.6707,-11.5789,-11.5019,-11.4413,-11.3984,-11.4119,-11.4693,-11.6196,-11.7482,-11.8207,-11.6975,-11.6301,-11.7306,-11.762,-11.7787,-11.7995,-11.8189,-11.8281,-11.8281,-11.8281,-11.8281,-11.8281,-11.8281,-11.8984,-12.0703,-12.0,-11.9883,-12.0781,-12.0,-11.9609,-11.9609,-11.9609,-12.0,-12.0898,-12.1718,-12.2187,-12.2187,-12.2187,-12.1718,-10.5022,-10.5912,-10.6415,-10.3784,-10.4906,-10.5879,-10.3465,-10.3781,-10.4404,-10.3984,-10.4599,-10.4982,-10.4789,-10.5213,-10.5213,-10.4097,-10.5097,-10.5405,0.0,0.0,0.0,0.0,0.0,0.0,0.0,0.0,0.0,0.0,0.0,0.0,0.0,-11.4306,-11.3494,-11.2101,-11.2101,-11.2101,-11.2101,-11.3494,-11.4306,-11.4616,-11.5505,-11.6395,-11.7207,-11.6008,-11.5815,-11.6318,-11.5389,-11.5002,-11.508,-11.5699,-11.5892,-11.6008,-11.6898,-11.7207,-11.7207,-11.7207,-11.7207,-11.7196,-11.762,-11.7995,-11.8281,-11.8281,-11.8281,-11.8281,-11.8281,-11.8189,-11.7995,-11.781,-11.7584,-11.7492,-11.7308,-11.7414,-11.7489,-11.7178,-11.6611,-11.5984,-11.5814,-11.5599,-11.5598,-11.639,-11.7384,-11.8276,-11.91,-11.8885,-11.8491,-11.8305,-11.8091,-11.7895,-11.8014,-11.8697,-11.8906,-11.8398,-11.9297,-11.9804,-11.9218,-11.9687,-12.0508,-12.1718,-12.0898,-12.0586,-12.0898,-12.0586,-11.9883,-11.8789,-11.9883,-12.0312,-12.0,-12.1484,-12.2187,-12.2187,-12.2812,-12.289,-10.5796,-10.6492,-10.6918,-10.4984,-10.5989,-10.6807,-10.4808,-10.4894,-10.5366,-10.5023,-10.5024,-10.5291,-10.5597,-10.5597,-10.5405,-10.4905,-10.5405,-10.5405,0.0,-10.3483,0.0,0.0,0.0,0.0,0.0,0.0,0.0,0.0,0.0,0.0,0.0,0.0,-11.3997,-11.2604,-11.2217,-11.2217,-11.2488,-11.3919,-11.4616,-11.4616,-11.5505,-11.6008,-11.6201,-11.5118,-11.4886,-11.5389,-11.4499,-11.4113,-11.419,-11.508,-11.5389,-11.5583,-11.6704,-11.7207,-11.7207,-11.7207,-11.7302,-11.7423,-11.772,-11.7983,-11.8281,-11.8281,-11.8281,-11.8281,-11.8281,-11.8189,-11.7995,-11.781,-11.7597,-11.75,-11.7313,-11.7302,-11.7414,-11.7489,-11.7103,-11.6789,-11.6802,-11.6909,-11.719,-11.8121,-11.8813,-11.9603,-12.0595,-12.0596,-12.0313,-11.9419,-11.909,-11.9007,-11.8989,-11.9605,-11.9804,-11.9297,-12.0195,-12.0703,-12.0117,-12.0586,-12.1289,-12.2109,-12.1718,-12.1406,-12.1406,-12.1406,-12.0781,-11.9687,-12.0508,-12.0898,-12.1015,-12.1797,-12.2383,-12.2695,-12.3203,-12.3515]},{"header":{"parameterUnit":"m.s-1","parameterCategory":1,"la1":30.6,"la2":29.2853,"lo1":-89.7004,"lo2":-87.6739,"dx":0.0162,"dy":0.0183,"nx":112,"ny":82,"refTime":"2022-12-13T18:00:00:Z","depth":0,"parameterNumber":3,"parameterNumberName":"V-component_of_WINDS"},"data":[0.0,0.0,0.0,0.0,0.0,0.0,0.0,0.0,0.0,0.0,0.0,0.0,0.0,0.0,0.0,0.0,0.0,0.0,0.0,0.0,0.0,0.0,0.0,0.0,0.0,0.0,0.0,0.0,0.0,0.0,0.0,0.0,0.0,0.0,0.0,0.0,0.0,0.0,0.0,0.0,0.0,0.0,0.0,0.0,0.0,0.0,0.0,0.0,0.0,0.0,0.0,0.0,0.0,0.0,0.0,0.0,0.0,0.0,0.0,0.0,0.0,0.0,0.0,0.0,0.0,0.0,0.0,0.0,0.0,0.0,0.0,0.0,0.0,0.0,0.0,0.0,0.0,0.0,0.0,0.0,0.0,0.0,0.0,0.0,0.0,0.0,0.0,0.0,0.0,0.0,0.3003,0.3114,0.3187,0.3232,0.3236,0.3238,0.3185,0.3059,0.0,0.0,0.0,0.0,0.0,0.0,0.0,0.0,0.0,0.0,0.0,0.0,0.0,0.0,0.0,0.0,0.0,0.0,0.0,0.0,0.0,0.0,0.0,0.0,0.0,0.0,0.0,0.0,0.0,0.0,0.0,0.0,0.0,0.0,0.0,0.0,0.0,0.0,0.0,0.0,0.0,0.0,0.0,0.0,0.0,0.0,0.0,0.0,0.0,0.0,0.0,0.0,0.0,0.0,0.0,0.0,0.0,0.0,0.0,0.0,0.0,0.0,0.0,0.0,0.0,0.0,0.0,0.0,0.0,0.0,0.0,0.0,0.0,0.0,0.0,0.0,0.0,0.0,0.0,0.0,0.0,0.0,0.0,0.0,0.0,0.0,0.0,0.0,0.0,0.0,0.0,0.0,0.0,0.0,0.0,0.0,0.0,0.0,0.0,0.0,0.0,0.0,0.0,0.0,0.3035,0.3228,0.3238,0.324,0.3266,0.3269,0.3206,0.3062,0.0,0.0,0.0,0.0,0.0,0.0,0.0,0.0,0.0,0.0,0.0,0.0,0.0,0.0,0.0,0.0,0.0,0.0,0.0,0.0,0.0,0.0,0.0,0.0,0.0,0.0,0.0,0.0,0.0,0.0,0.0,0.0,0.0,0.0,0.0,0.0,0.0,0.0,0.0,0.0,0.0,0.0,0.0,0.0,0.0,0.0,0.0,0.0,0.0,0.0,0.0,0.0,0.0,0.0,0.0,0.0,0.0,0.0,0.0,0.0,0.0,0.0,0.0,0.0,0.0,0.0,0.0,0.0,0.0,0.0,0.0,0.0,0.0,0.0,0.0,0.0,0.0,0.0,0.0,0.0,0.0,0.0,0.0,0.0,0.0,0.0,0.0,0.0,0.0,0.0,0.0,0.0,0.0,0.0,0.0,0.0,0.0,0.0,0.0,0.0,0.0,0.0,0.0,0.2996,0.3122,0.3283,0.3288,0.3292,0.3322,0.3295,0.3232,0.3133,0.308,0.0,0.0,0.0,0.0,0.0,0.0,0.0,0.0,0.0,0.0,0.0,0.0,0.0,0.0,0.0,0.0,0.0,0.0,0.0,0.0,0.0,0.0,0.0,0.0,0.0,0.0,0.0,0.0,0.0,0.0,0.0,0.0,0.0,0.0,0.0,0.0,0.0,0.0,0.0,0.0,0.0,0.0,0.0,0.0,0.0,0.0,0.0,0.0,0.0,0.0,0.0,0.0,0.0,0.0,0.0,0.0,0.0,0.0,0.0,0.0,0.0,0.0,0.0,0.0,0.0,0.0,0.0,0.0,0.0,0.0,0.0,0.0,0.0,0.0,0.0,0.0,0.0,0.0,0.0,0.0,0.0,0.0,0.0,0.0,0.0,0.0,0.0,0.0,0.0,0.0,0.0,0.0,0.0,0.0,0.0,0.0,0.0,0.0,0.0,0.0,0.0,0.0,0.3119,0.3212,0.331,0.3321,0.333,0.3354,0.3313,0.3255,0.3182,0.3106,0.0,0.0,0.0,0.0,0.0,0.0,0.0,0.0,0.0,0.0,0.0,0.0,0.0,0.0,0.0,0.0,0.0,0.0,0.0,0.0,0.0,0.0,0.0,0.0,0.0,0.0,0.0,0.0,0.0,0.0,0.0,0.0,0.0,0.0,0.0,0.0,0.0,0.0,0.0,0.0,0.0,0.0,0.0,0.0,0.0,0.0,0.0,0.0,0.0,0.0,0.0,0.0,0.0,0.0,0.0,0.0,0.0,0.0,0.0,0.0,0.0,0.0,0.0,0.0,0.0,0.0,0.0,0.0,0.0,0.0,0.0,0.0,0.0,0.0,0.0,0.0,0.0,0.0,0.0,0.0,0.0,0.0,0.0,0.0,0.0,0.0,0.0,0.0,0.0,0.0,0.0,0.0,0.0,0.0,0.0,0.0,0.0,0.0,0.0,0.0,0.0,0.0,0.316,0.328,0.3317,0.3321,0.3322,0.3324,0.3321,0.3269,0.3153,0.3114,0.0,0.0,0.0,0.0,0.0,0.0,0.0,0.0,0.0,0.0,0.0,0.0,0.0,0.0,0.0,0.0,0.0,0.0,0.0,0.0,0.0,0.0,0.0,0.0,0.0,0.0,0.0,0.0,0.0,0.0,0.0,0.0,0.0,0.0,0.0,0.0,0.0,0.0,0.0,0.0,0.0,0.0,0.0,0.0,0.0,0.0,0.0,0.0,0.0,0.0,0.0,0.0,0.0,0.0,0.0,0.0,0.0,0.0,0.0,0.0,0.0,0.0,0.0,0.0,0.0,0.0,0.0,0.0,0.0,0.0,0.0,0.0,0.0,0.0,0.0,0.0,0.0,0.0,0.0,0.0,0.0,0.0,0.0,0.0,0.0,0.0,0.0,0.0,0.0,0.0,0.0,0.0,0.0,0.0,0.0,0.0,0.0,0.0,0.0,0.0,0.0,0.0,0.3115,0.3225,0.3311,0.3321,0.3321,0.3321,0.3303,0.325,0.3149,0.0,0.0,0.0,0.0,0.0,0.0,0.0,0.0,0.0,0.0,0.0,0.0,0.0,0.0,0.0,0.0,0.0,0.0,0.0,0.0,0.0,0.0,0.0,0.0,0.0,0.0,0.0,0.0,0.0,0.0,0.0,0.0,0.0,0.0,0.0,0.0,0.0,0.0,0.0,0.0,0.0,0.0,0.0,0.0,0.0,0.0,0.0,0.0,0.0,0.0,0.0,0.0,0.0,0.0,0.0,0.0,0.0,0.0,0.0,0.0,0.0,0.0,0.0,0.0,0.0,0.0,0.0,0.0,0.0,0.0,0.0,0.0,0.0,0.0,0.0,0.0,0.0,0.0,0.0,0.0,0.0,0.0,0.0,0.0,0.0,0.0,0.0,0.0,0.0,0.0,0.0,0.0,0.0,0.0,0.0,0.0,0.0,0.0,0.0,0.0,0.0,0.0,0.2987,0.3111,0.3216,0.3298,0.3315,0.3317,0.3307,0.3287,0.3238,0.3148,0.0,0.0,0.0,0.0,0.0,0.0,0.0,0.0,0.0,0.0,0.0,0.0,0.0,0.0,0.0,0.0,0.0,0.0,0.0,0.0,0.0,0.0,0.0,0.0,0.0,0.0,0.0,0.0,0.0,0.0,0.0,0.0,0.0,0.0,0.0,0.0,0.0,0.0,0.0,0.0,0.0,0.0,0.0,0.0,0.0,0.0,0.0,0.0,0.0,0.0,0.0,0.0,0.0,0.0,0.0,0.0,0.0,0.0,0.0,0.0,0.0,0.0,0.0,0.0,0.0,0.0,0.0,0.0,0.0,0.0,0.0,0.0,0.0,0.0,0.0,0.0,0.0,0.0,0.0,0.0,0.0,0.0,0.0,0.0,0.0,0.0,0.0,0.0,0.0,0.0,0.0,0.0,0.0,0.0,0.0,0.0,0.0,0.0,0.0,0.0,0.0,0.0,0.2995,0.3164,0.3276,0.3276,0.3302,0.3307,0.3277,0.3276,0.3236,0.0,0.0,0.0,0.0,0.0,0.0,0.0,0.0,0.0,0.0,0.0,0.0,0.0,0.0,0.0,0.0,0.0,0.0,0.0,0.0,0.0,0.0,0.0,0.0,0.0,0.0,0.0,0.0,0.0,0.0,0.0,0.0,0.0,0.0,0.0,0.0,0.0,0.0,0.0,0.0,0.0,0.0,0.0,0.0,0.0,0.0,0.0,0.0,0.0,0.0,0.0,0.0,0.0,0.0,0.0,0.0,0.0,0.0,0.0,0.0,0.0,0.0,0.0,0.0,0.0,0.0,0.0,0.0,0.0,0.0,0.0,0.0,0.0,0.0,0.0,0.0,0.0,0.0,0.0,0.0,0.0,0.0,0.0,0.0,0.0,0.0,0.0,0.0,0.0,0.0,0.0,0.0,0.0,0.0,0.0,0.0,0.0,0.0,0.0,0.0,0.0,0.0,0.0,0.2966,0.3131,0.3243,0.3243,0.3251,0.3253,0.3245,0.3243,0.3187,0.3055,0.0,0.0,0.0,0.0,0.0,0.0,0.0,0.0,0.0,0.0,0.0,0.0,0.0,0.0,0.0,0.0,0.0,0.0,0.0,0.0,0.0,0.0,0.0,0.0,0.0,0.0,0.0,0.0,0.0,0.0,0.0,0.0,0.0,0.0,0.0,0.0,0.0,0.0,0.0,0.0,0.0,0.0,0.0,0.0,0.0,0.0,0.0,0.0,0.0,0.0,0.0,0.0,0.0,0.0,0.0,0.0,0.0,0.0,0.0,0.0,0.0,0.0,0.0,0.0,0.0,0.0,0.0,0.0,0.0,0.0,0.0,0.0,0.0,0.0,0.0,0.0,0.0,0.0,0.0,0.0,0.0,0.0,0.0,0.0,0.0,0.0,0.0,0.0,0.0,0.0,0.0,0.0,0.0,0.0,0.0,0.0,0.0,0.0,0.0,0.0,0.0,0.0,0.2973,0.3126,0.323,0.323,0.323,0.323,0.323,0.323,0.3182,0.3069,0.0,0.0,0.0,0.0,0.0,0.0,0.0,0.0,0.0,0.0,0.0,0.0,0.0,0.0,0.0,0.0,0.0,0.0,0.0,0.0,0.0,0.0,0.0,0.0,0.0,0.0,0.0,0.0,0.0,0.0,0.0,0.0,0.0,0.0,0.0,0.0,0.0,0.0,0.0,0.0,0.0,0.0,0.0,0.0,0.0,0.0,0.0,0.0,0.0,0.0,0.0,0.0,0.0,0.0,0.0,0.0,0.0,0.0,0.0,0.0,0.0,0.0,0.0,0.0,0.0,0.0,0.0,0.0,0.0,0.0,0.0,0.0,0.0,0.0,0.0,0.0,0.0,0.0,0.0,0.0,0.0,0.0,0.0,0.0,0.0,0.0,0.0,0.0,0.0,0.0,0.0,0.0,0.0,0.0,0.0,0.0,0.0,0.0,0.0,0.0,0.0,0.0,0.3002,0.314,0.3234,0.3234,0.3236,0.3239,0.3239,0.3236,0.3208,0.3146,0.0,0.0,0.0,0.0,0.0,0.0,0.0,0.0,0.0,0.0,0.0,0.0,0.0,0.0,0.0,0.0,0.0,0.0,0.0,0.0,0.0,0.0,0.0,0.0,0.0,0.0,0.0,0.0,0.0,0.0,0.0,0.0,0.0,0.0,0.0,0.0,0.0,0.0,0.0,0.0,0.0,0.0,0.0,0.0,0.0,0.0,0.0,0.0,0.0,0.0,0.0,0.0,0.0,0.0,0.0,0.0,0.0,0.0,0.0,0.0,-0.0375,-0.0557,0.0,0.0,0.0,0.0,0.0,0.0,0.0,0.0,0.0,0.0,0.0,0.0,0.0,0.0,0.0,0.0,0.0,0.0,0.0,0.0,0.0,0.0,0.0,0.0,0.0,0.0,0.0,0.0,0.0,0.0,0.0,0.0,0.0,0.0,0.0,0.0,0.0,0.0,0.0,0.0,0.2999,0.3159,0.3266,0.3266,0.3287,0.3302,0.3302,0.328,0.3231,0.3148,0.3125,0.0,0.0,0.0,0.0,0.0,0.0,0.0,0.0,0.0,0.0,0.0,0.0,0.0,0.0,0.0,0.0,0.0,0.0,0.0,0.0,0.0,0.0,0.0,0.0,0.0,0.0,0.0,0.0,0.0,0.0,0.0,0.0,0.0,0.0,0.0,0.0,0.0,0.0,0.0,0.0,0.0,0.0,0.0,0.0,0.0,0.0,0.0,0.0,0.0,0.0,0.0,0.0,0.0,0.0,0.0,0.0,0.0,0.0,0.0,0.1152,0.0955,0.0,0.0,0.0,0.0,0.0,0.0,0.0,0.0,0.0,0.0,0.0,0.0,0.0,0.0,0.0,0.0,0.0,0.0,0.0,0.0,0.0,0.0,0.0,0.0,0.0,0.0,0.0,0.0,0.0,0.0,0.0,0.0,0.0,0.0,0.0,0.0,0.0,0.0,0.0,0.0,0.3069,0.3204,0.3298,0.3298,0.3311,0.3321,0.3321,0.3306,0.3277,0.3231,0.3175,0.0,0.0,0.0,0.0,0.0,0.0,0.0,0.0,0.0,0.0,0.0,0.0,0.0,0.0,0.0,0.0,0.0,0.0,0.0,0.0,0.0,0.0,0.0,0.0,0.0,0.0,0.0,0.0,0.0,0.0,0.0,0.0,0.0,0.0,0.0,0.0,0.0,0.0,0.0,0.0,0.0,0.0,0.0,0.0,0.0,0.0,0.0,0.0,0.0,0.0,0.0,0.0,0.0,0.3178,0.319,0.3167,0.3198,0.3201,0.318,0.276,0.237,0.2392,0.1999,0.0,0.0,0.0,0.0,0.0,0.0,0.0,0.0,0.0,0.0,0.0,0.0,0.0,0.0,0.0,0.0,0.0,0.0,0.0,0.0,0.0,0.0,0.3066,0.3086,0.3111,0.31,0.2994,0.0,0.0,0.0,0.0,0.0,0.0,0.0,0.0,0.0,0.0,0.0,0.3149,0.3255,0.3329,0.3329,0.3333,0.3337,0.3337,0.3332,0.3329,0.3329,0.3231,0.3167,0.0,0.0,0.0,0.0,0.0,0.0,0.0,0.0,0.0,0.0,0.0,0.0,0.0,0.0,0.0,0.0,0.0,0.0,0.0,0.0,0.0,0.0,0.0,0.0,0.0,0.0,0.0,0.0,0.0,0.0,0.0,0.0,0.0,0.0,0.0,0.0,0.0,0.0,0.0,0.0,0.0,0.0,0.0,0.0,0.0,0.0,0.0,0.1163,0.317,0.3174,0.3189,0.3213,0.3247,0.3262,0.326,0.329,0.3315,0.3337,0.3332,0.0,0.2394,0.2432,0.0,0.0,0.0,0.0,0.0,0.0,0.0,0.0,0.0,0.0,0.0,0.0,0.0,0.0,0.0,0.0,0.0,0.0,0.0,0.0,0.0,0.0,0.3273,0.3251,0.3249,0.324,0.3198,0.3069,0.2958,0.2951,0.2946,0.2927,0.0,0.0,0.0,0.0,0.0,0.0,0.3172,0.3287,0.336,0.336,0.3384,0.34,0.34,0.3375,0.336,0.336,0.3321,0.3264,0.3186,0.3145,0.0,0.0,0.0,0.0,0.0,0.0,0.0,0.0,0.0,0.0,0.0,0.0,0.0,0.0,0.0,0.0,0.0,0.0,0.0,0.0,0.0,0.0,0.0,0.0,0.0,0.0,0.0,0.0,0.0,0.0,0.0185,0.0379,0.0381,0.0572,0.0,0.0,0.0,0.0,0.0,0.0,0.0,0.0,0.0,0.0,0.1182,0.2394,0.3236,0.3254,0.3285,0.3332,0.3345,0.3352,0.3352,0.3366,0.337,0.3367,0.3385,0.3161,0.2921,0.2913,0.2898,0.2669,0.0,0.0,0.0,0.0,0.2587,0.258,0.2605,0.2623,0.2629,0.259,0.0,0.0,0.0,0.0,0.0,0.0,0.0,0.3182,0.324,0.3276,0.3305,0.3343,0.3326,0.3302,0.3306,0.3217,0.3123,0.3073,0.3063,0.3039,0.2962,0.2991,0.0,0.0,0.0,0.3198,0.3255,0.3339,0.3385,0.3369,0.3393,0.3405,0.3388,0.339,0.3392,0.3392,0.3363,0.3329,0.329,0.321,0.3129,0.0,0.0,0.0,0.0,0.0,0.0,0.0,0.0,0.0,0.0,0.0,0.0,0.0,0.0,0.0,0.0,0.0,0.0,0.0,0.0,0.0,0.0,0.0,0.0,0.0,0.0,0.0,0.0,-0.0188,0.0381,0.0785,0.0979,0.1166,0.0,0.0,0.0,0.0,0.0,0.0,0.0393,0.0395,0.0595,0.0995,0.2434,0.3287,0.331,0.334,0.3378,0.3423,0.3415,0.3412,0.3412,0.342,0.3415,0.3403,0.3425,0.3452,0.3475,0.3415,0.3385,0.3373,0.332,0.3294,0.3285,0.327,0.3265,0.3269,0.33,0.3325,0.3337,0.3291,0.3266,0.3245,0.3201,0.0,0.0,0.0,0.0,0.3236,0.3295,0.331,0.3328,0.3396,0.3371,0.3339,0.3362,0.3318,0.3258,0.32,0.3189,0.3161,0.3078,0.312,0.0,0.3135,0.3213,0.3287,0.3317,0.3367,0.3388,0.3358,0.3382,0.339,0.3369,0.3395,0.3408,0.34,0.3386,0.3371,0.3355,0.3277,0.3212,0.3167,0.0,0.0,0.0,0.0,0.0,0.0,0.0,0.0,0.0,0.0,0.0,0.0,0.0,0.0,0.0,0.0,0.0,0.0,0.0,0.0,0.0,0.0,0.0,0.0,0.0,0.0,0.0,0.0,0.0,0.0795,0.1194,0.0,0.0,0.0,0.0,0.302,0.2621,0.243,0.3061,0.3064,0.3076,0.3103,0.3371,0.3403,0.3405,0.3435,0.3452,0.3454,0.3426,0.3412,0.3412,0.3442,0.3469,0.3495,0.3499,0.3513,0.3534,0.3476,0.3435,0.3407,0.3374,0.3344,0.3322,0.335,0.3359,0.3365,0.3395,0.3405,0.3407,0.3404,0.3363,0.3315,0.3313,0.3273,0.0,0.0,0.3314,0.3328,0.3389,0.3405,0.3407,0.3411,0.3388,0.3365,0.3366,0.3318,0.3283,0.3307,0.3311,0.3292,0.323,0.0,0.3225,0.3224,0.3253,0.3287,0.3317,0.335,0.3356,0.3326,0.3351,0.3369,0.3366,0.3395,0.34,0.337,0.3395,0.3384,0.3325,0.3345,0.3315,0.3227,0.3168,0.0,0.0,0.0,0.0,0.0,0.0,0.0,0.0,0.0,0.0,0.0,0.0,0.0,0.0,0.0,0.0,0.0,0.0,0.0,0.0,0.0,0.0,0.0,0.0,0.0,0.0,0.0,0.0,-0.0204,0.1227,0.0,0.284,0.2894,0.2915,0.3291,0.3101,0.3124,0.3362,0.3363,0.3377,0.3408,0.343,0.3441,0.3441,0.3433,0.3438,0.3457,0.3465,0.3479,0.3499,0.3527,0.3558,0.3587,0.3587,0.3604,0.3628,0.3589,0.352,0.344,0.3429,0.3407,0.3381,0.3392,0.3408,0.3423,0.3415,0.3425,0.3438,0.3418,0.3397,0.338,0.338,0.3365,0.3352,0.3373,0.338,0.3385,0.3407,0.3412,0.3416,0.3437,0.3403,0.3377,0.3416,0.3377,0.335,0.3399,0.3345,0.3285,0.3264,0.3276,0.3281,0.3262,0.3302,0.3339,0.335,0.336,0.3355,0.3324,0.333,0.3337,0.3337,0.3365,0.3386,0.3395,0.3388,0.3373,0.3351,0.3324,0.3302,0.3288,0.323,0.3175,0.0,0.0,0.0,0.0,0.0,0.0,0.0,0.0,0.0,0.0,0.0,0.0,0.0,0.0,0.0,0.0,0.0,0.0,0.0,0.0,0.0,0.0,0.0,0.0,0.0,-0.3228,-0.1225,0.0208,0.1871,0.2899,0.3292,0.3355,0.338,0.334,0.3365,0.3395,0.3426,0.2569,0.2148,0.2385,0.2386,0.2388,0.2396,0.3024,0.3463,0.3502,0.3513,0.3531,0.3562,0.3589,0.3618,0.3636,0.3645,0.3663,0.3681,0.366,0.3596,0.3517,0.3495,0.3468,0.3442,0.3442,0.3461,0.3482,0.3453,0.3442,0.3438,0.3419,0.3412,0.3412,0.3412,0.3419,0.3427,0.3427,0.3434,0.3442,0.3442,0.3442,0.3448,0.3468,0.3442,0.3423,0.3464,0.3441,0.3425,0.3464,0.339,0.3325,0.3335,0.3345,0.3344,0.3325,0.3356,0.3378,0.3367,0.3366,0.3355,0.3324,0.333,0.3336,0.3336,0.3355,0.3375,0.3395,0.3378,0.3362,0.3351,0.3322,0.3311,0.3321,0.3281,0.3227,0.3157,0.0,0.0,0.0,0.0,0.0,0.0,0.0,0.0,0.0,0.0,0.0,0.0,0.0,0.0,0.0,0.0,0.0,0.0,0.0,0.0,0.0,0.0,0.0,-0.633,-0.332,-0.084,0.1894,0.2925,0.3326,0.3326,0.3355,0.3373,0.3371,0.3399,0.3429,0.346,0.1296,0.0,0.0,0.0,0.0,0.0221,0.2417,0.3534,0.3587,0.3558,0.3562,0.3589,0.3621,0.3639,0.3639,0.367,0.3684,0.3681,0.3681,0.3663,0.3628,0.3569,0.3527,0.3502,0.3502,0.352,0.354,0.3513,0.3465,0.3415,0.3415,0.3415,0.3415,0.3415,0.3435,0.3459,0.3459,0.348,0.3502,0.3502,0.3502,0.3502,0.3502,0.3502,0.3502,0.3502,0.3502,0.3502,0.3502,0.3456,0.3423,0.3452,0.3431,0.3411,0.3411,0.3411,0.0,0.337,0.3366,0.3355,0.3325,0.3348,0.3366,0.3366,0.3366,0.3367,0.3367,0.3367,0.3354,0.3324,0.335,0.335,0.3321,0.3321,0.3277,0.3189,0.0,0.0,0.0,0.0,0.0,0.0,0.0,0.0,0.0,0.0,0.0,0.0,0.0,0.0,0.0,0.0,0.0,0.0,0.0,0.0,0.0,-1.3341,-1.268,-1.0843,-0.6512,-0.3396,-0.2992,0.043,0.2805,0.2805,0.2842,0.308,0.3495,0.3502,0.352,0.3551,0.2868,0.2434,0.2473,0.2681,0.2684,0.2705,0.3113,0.354,0.3558,0.3549,0.3562,0.3594,0.3645,0.3681,0.3701,0.3733,0.3733,0.3712,0.3712,0.3684,0.3632,0.3594,0.3558,0.3531,0.3509,0.3506,0.3516,0.3527,0.3509,0.3478,0.3478,0.3478,0.3478,0.3478,0.3483,0.349,0.349,0.3495,0.3502,0.3502,0.3502,0.3506,0.3527,0.3516,0.3509,0.3527,0.3516,0.3509,0.3531,0.3502,0.3474,0.346,0.3414,0.338,0.338,0.3397,0.3401,0.337,0.3366,0.3363,0.3355,0.3341,0.3343,0.3365,0.3366,0.3375,0.3397,0.3378,0.3363,0.3354,0.332,0.3296,0.3288,0.331,0.3277,0.0,0.0,0.0,0.0,0.0,0.0,0.0,0.0,0.0,0.0,0.0,0.0,0.0,0.0,0.0,0.0,0.0,0.0,0.0,0.0,0.0,0.0,-1.3645,-1.3825,-1.3306,-0.9409,-0.6211,-0.5405,-0.1736,0.0871,0.1092,0.1993,0.2897,0.3544,0.3555,0.3572,0.3589,0.2686,0.2022,0.2042,0.2026,0.2026,0.2042,0.2009,0.1999,0.2013,0.2013,0.2026,0.2278,0.3223,0.3716,0.3748,0.375,0.375,0.3744,0.3719,0.3701,0.3688,0.0,0.0,0.0,0.0,0.354,0.3524,0.3555,0.3538,0.3502,0.3502,0.3502,0.3502,0.3502,0.3509,0.352,0.352,0.3531,0.3538,0.3538,0.3538,0.3544,0.3558,0.3551,0.3544,0.3558,0.3551,0.3544,0.3562,0.354,0.0,0.3495,0.3444,0.34,0.3388,0.3411,0.3425,0.3407,0.3404,0.3404,0.3404,0.3377,0.3366,0.3384,0.3374,0.0,0.0,0.0,0.3366,0.3366,0.3321,0.0,0.0,0.0,0.3295,0.3243,0.3231,0.0,0.0,0.3191,0.3194,0.0,0.0,0.0,0.0,0.0,0.0,0.0,0.0,0.0,0.0,0.0,0.0,0.0,0.0,0.0,0.0,-1.3912,-1.4037,-1.414,-1.1772,-0.9089,-0.6332,-0.3691,-0.1952,-0.1312,0.0883,0.2441,0.3326,0.3576,0.3589,0.3589,0.1581,0.0,0.0,0.0,-0.0225,-0.0454,-0.0448,-0.0448,-0.0454,-0.0454,-0.0229,0.0232,0.2324,0.3503,0.3761,0.3733,0.3733,0.375,0.3699,0.3705,0.3744,0.3674,0.3628,0.3604,0.3628,0.36,0.3558,0.3583,0.0,0.0,0.3513,0.3513,0.3513,0.3513,0.3531,0.3549,0.3549,0.3569,0.3589,0.3589,0.3589,0.3589,0.3589,0.3589,0.3589,0.3589,0.3589,0.3589,0.3589,0.3572,0.3551,0.3544,0.3499,0.3453,0.3426,0.3445,0.3463,0.3463,0.3463,0.3463,0.3463,0.3438,0.0,0.3422,0.3397,0.3393,0.342,0.3393,0.3375,0.3371,0.3345,0.3344,0.3371,0.3345,0.3329,0.3326,0.3302,0.3287,0.328,0.3227,0.3219,0.0,0.0,0.0,0.0,0.0,0.0,0.0,0.0,0.0,0.0,0.0,0.0,0.0,0.0,0.0,-1.3912,-1.4113,-1.4265,-1.4276,-1.3717,-1.2339,-0.9997,-0.7071,-0.463,-0.2671,-0.1562,0.0,0.2684,0.3361,0.3589,0.3589,0.3143,0.2029,0.0227,0.0,-0.0908,-0.2747,-0.2968,-0.2968,-0.2976,-0.3205,0.0,0.0,0.0461,0.1845,0.3699,0.3692,0.3677,0.3659,0.3649,0.3636,0.3632,0.3688,0.3692,0.366,0.3643,0.3628,0.3614,0.3596,0.3583,0.3572,0.3572,0.3572,0.3572,0.3572,0.3576,0.0,0.358,0.3587,0.3589,0.3589,0.3589,0.3589,0.3589,0.3589,0.3589,0.3589,0.3589,0.3589,0.3589,0.3604,0.3603,0.3551,0.3516,0.3491,0.3486,0.349,0.3493,0.3493,0.3493,0.3493,0.3493,0.3489,0.3484,0.3484,0.3479,0.3479,0.3484,0.3456,0.3429,0.3404,0.3397,0.3397,0.3403,0.3397,0.3382,0.3358,0.3377,0.336,0.3311,0.33,0.3311,0.0,0.0,0.0,0.0,0.0,0.0,0.0,0.0,0.0,0.0,0.0,-1.3705,-1.377,0.0,-1.4069,-1.4124,-1.4238,-1.432,-1.432,-1.432,-1.387,-1.2747,-1.0211,-0.7981,-0.6481,-0.3804,-0.1343,0.0672,0.2243,0.3365,0.3589,0.2477,0.1356,0.0,-0.1135,-0.2504,-0.4125,-0.5025,-0.5711,-0.5962,-0.5733,-0.4367,-0.1848,-0.0693,0.1388,0.3701,0.3688,0.3674,0.366,0.366,0.3639,0.3618,0.3681,0.3684,0.3656,0.366,0.3649,0.3632,0.3618,0.3604,0.3589,0.3589,0.3589,0.3589,0.3589,0.3589,0.3589,0.3589,0.3589,0.3589,0.3589,0.3589,0.3589,0.3589,0.3589,0.3589,0.3589,0.3589,0.3594,0.3611,0.3625,0.3625,0.3596,0.358,0.3555,0.3509,0.3513,0.3524,0.3524,0.3524,0.3524,0.3524,0.3509,0.3502,0.3502,0.3502,0.3502,0.3502,0.3489,0.3474,0.3457,0.3457,0.3457,0.3457,0.3442,0.3419,0.3389,0.3389,0.3373,0.3344,0.3359,0.3374,0.0,0.0,0.0,0.0,0.0,0.0,0.0,-1.3499,-1.3651,-1.37,-1.3857,-1.4031,-1.4151,-1.4178,-1.4205,-1.4336,-1.4363,-1.4363,-1.439,-1.4477,-1.4504,-1.4407,-1.2501,-1.0903,-0.94,-0.582,-0.2686,-0.0672,0.0896,0.2019,0.2467,0.0226,-0.1131,-0.1584,-0.3618,-0.4991,-0.5946,-0.7516,-0.8666,-0.9196,-0.852,-0.6708,-0.3493,-0.1628,0.0929,0.3715,0.3677,0.3663,0.3663,0.3663,0.3649,0.3628,0.366,0.3656,0.3639,0.3663,0.3656,0.3636,0.3628,0.3611,0.3589,0.3589,0.3589,0.3589,0.3589,0.3589,0.3589,0.3589,0.3594,0.36,0.36,0.3604,0.3607,0.3607,0.3607,0.3607,0.3607,0.3607,0.3614,0.3639,0.3649,0.3652,0.3645,0.3649,0.3621,0.3534,0.3538,0.3555,0.3555,0.3555,0.3555,0.3555,0.3534,0.352,0.352,0.352,0.3516,0.3509,0.3509,0.3509,0.3509,0.3506,0.3506,0.3509,0.3482,0.3454,0.3429,0.3405,0.3393,0.3393,0.3418,0.3426,-0.4274,-0.6718,-1.0436,-1.2714,-1.3401,-1.3455,0.0,-1.3749,-1.3825,-1.4037,-1.4097,-1.4151,-1.4276,-1.4309,-1.4336,-1.4461,-1.4488,-1.4515,-1.4619,-1.4646,-1.4646,-1.4629,-1.4301,-1.2429,-0.792,-0.652,-0.4027,0.0449,-0.0448,-0.1343,-0.1119,-0.3583,-0.5601,-0.7166,-0.8057,-0.9219,-1.0902,-1.1882,-1.2195,-1.1601,-1.1686,-0.8908,-0.3754,-0.3497,-0.0694,0.3684,0.3625,0.36,0.36,0.36,0.3596,0.3596,0.3628,0.3639,0.3636,0.3639,0.3639,0.3632,0.3604,0.3594,0.3589,0.3589,0.3589,0.3589,0.3589,0.3589,0.3589,0.3589,0.3611,0.3632,0.3632,0.3649,0.367,0.367,0.367,0.367,0.367,0.367,0.367,0.3674,0.3699,0.3708,0.3681,0.3699,0.3684,0.3594,0.3583,0.3587,0.3587,0.3587,0.3587,0.3587,0.3583,0.358,0.358,0.358,0.3569,0.354,0.354,0.354,0.354,0.3516,0.3513,0.354,0.3513,0.3495,0.3493,0.3489,0.3487,0.3487,0.3491,0.3478,-0.7247,-0.9537,-1.2063,-1.3273,-1.358,-1.3662,-1.3765,-1.389,-1.4021,-1.4124,-1.4195,-1.4265,-1.4309,-1.4379,-1.4445,-1.4488,-1.4559,-1.4602,-1.4575,-1.3488,-1.3053,-1.436,-1.3393,-1.2227,-1.1555,-0.9888,-0.7828,-0.559,-0.47,-0.4251,-0.3804,-0.6262,-0.7828,-0.8494,-1.0289,-1.1714,-1.3014,-1.2834,-1.2944,-1.3339,-1.2732,-0.9441,-0.4228,-0.4001,-0.1167,0.3677,0.3636,0.3618,0.3614,0.3596,0.36,0.3614,0.3611,0.3621,0.3639,0.3656,0.3663,0.366,0.3645,0.3643,0.3643,0.3643,0.3643,0.3643,0.3643,0.3643,0.3643,0.3643,0.3652,0.3663,0.3663,0.367,0.3681,0.3681,0.3681,0.3681,0.3681,0.3681,0.3688,0.3705,0.3719,0.3723,0.3708,0.3719,0.3708,0.3652,0.3628,0.3611,0.3594,0.3604,0.3625,0.3643,0.3628,0.3618,0.3618,0.36,0.3583,0.3572,0.3572,0.3572,0.3572,0.3558,0.3558,0.3569,0.354,0.3534,0.3555,0.3534,0.3527,0.3527,0.3544,0.3538,-1.0453,-1.2161,-1.345,-1.3575,-1.37,-1.3798,-1.3825,-1.3993,-1.4151,-1.4178,-1.4265,-1.4336,-1.4363,-1.4445,-1.4532,-1.4586,-1.418,-1.3746,-1.369,-1.1663,-1.0752,-1.2286,-1.1563,-1.1555,-1.3368,-1.1692,-1.0281,-0.9167,-0.8051,-0.7379,-0.693,-0.9167,-1.0293,-1.032,-1.2121,-1.3358,-1.3797,-1.3578,-1.3679,-1.4098,-1.3234,-1.0408,-0.5655,-0.3786,-0.0471,0.3716,0.3667,0.3649,0.3645,0.3614,0.3614,0.3632,0.3611,0.3621,0.3649,0.3674,0.3681,0.3681,0.3681,0.3681,0.3681,0.3681,0.3681,0.3681,0.3681,0.3681,0.3681,0.3681,0.3688,0.3694,0.3694,0.3699,0.3705,0.3705,0.3705,0.3705,0.3705,0.3705,0.3712,0.3733,0.3739,0.3739,0.3739,0.3739,0.373,0.3699,0.3674,0.3649,0.3618,0.3636,0.3656,0.3677,0.366,0.3645,0.3636,0.3614,0.36,0.3589,0.3589,0.3589,0.3589,0.3589,0.3589,0.3589,0.3569,0.3572,0.3604,0.358,0.3569,0.3569,0.3594,0.3587,-1.2553,-1.3423,-1.345,-1.3575,-1.37,-1.3814,-1.3928,-1.4048,-1.4167,-1.4292,-1.432,-1.4363,-1.4477,-1.4504,-1.4575,-1.4814,-1.2906,-1.1266,-1.1353,-0.9213,-0.7567,-0.7796,-0.9558,-1.0869,-1.1095,-1.0784,-0.9839,-0.7384,-0.939,-1.0508,-1.0508,-1.2752,-1.3922,-1.3358,-1.4043,-1.4381,-1.3919,-1.4616,-1.4686,-1.4098,-1.4098,-1.2032,-0.8308,-0.283,0.1182,0.3806,0.3719,0.3681,0.3677,0.3645,0.3636,0.3636,0.3636,0.3652,0.3681,0.3681,0.3681,0.3681,0.3681,0.3681,0.3681,0.3681,0.3681,0.3681,0.3681,0.3681,0.3681,0.3681,0.3701,0.3726,0.3726,0.3748,0.3768,0.3768,0.3768,0.3768,0.3768,0.3768,0.3768,0.3772,0.3772,0.3772,0.3772,0.3772,0.3761,0.373,0.3723,0.3712,0.3681,0.3677,0.3681,0.3681,0.3681,0.3667,0.3639,0.3636,0.3621,0.3594,0.3589,0.3589,0.3589,0.3589,0.3589,0.3589,0.3589,0.3604,0.3636,0.3632,0.3632,0.3632,0.3632,0.3618,-1.33,-1.3542,-1.3553,-1.3597,-1.3754,-1.3912,-1.395,-1.4113,-1.4292,-1.4417,-1.4445,-1.4477,-1.4586,-1.4689,-1.4302,-1.2756,-1.181,-1.0621,-0.898,-0.6634,-0.5677,-0.7224,-0.792,-0.9056,-1.064,-1.2135,-1.2752,-1.1862,-1.281,-1.3278,-1.3202,-1.3949,-1.4461,-1.4274,-1.4499,-1.4613,-1.4622,-1.4852,-1.4912,-1.4565,-1.2745,-0.9739,-0.5988,-0.2389,0.0955,0.3813,0.3764,0.3754,0.3768,0.3715,0.3708,0.3723,0.3705,0.3701,0.3712,0.3712,0.3723,0.3737,0.3719,0.3723,0.3739,0.3739,0.3739,0.3739,0.3739,0.3739,0.3739,0.3739,0.3748,0.3757,0.3757,0.3764,0.3772,0.3772,0.3772,0.3772,0.3772,0.3772,0.3772,0.3772,0.3772,0.3772,0.3772,0.3772,0.3768,0.3757,0.3723,0.3699,0.3708,0.3712,0.3719,0.3739,0.3723,0.3705,0.3699,0.3659,0.3632,0.3621,0.36,0.3589,0.3589,0.3589,0.3589,0.3589,0.3611,0.3636,0.3667,0.3684,0.3694,0.3694,0.3674,0.3649,-1.3558,-1.3602,-1.3613,-1.3662,-1.3847,-1.4031,-1.408,-1.4282,-1.4477,-1.4548,-1.4559,-1.4602,-1.4716,-1.4798,-1.4386,-1.277,-1.1139,-0.9257,-0.7573,-0.4572,-0.3411,-0.5652,-0.6803,-0.8192,-1.0692,-1.3128,-1.445,-1.445,-1.4477,-1.4477,-1.439,-1.4461,-1.4515,-1.4559,-1.4602,-1.4727,-1.4923,-1.4923,-1.4956,-1.5037,-1.2819,-0.9563,-0.5047,-0.3376,-0.0242,0.3862,0.382,0.3813,0.3827,0.3779,0.3764,0.3768,0.375,0.3744,0.3744,0.3744,0.3754,0.3768,0.375,0.3754,0.3772,0.3772,0.3772,0.3772,0.3772,0.3772,0.3772,0.3772,0.3772,0.3772,0.3772,0.3772,0.3772,0.3772,0.3772,0.3772,0.3772,0.3772,0.3772,0.3772,0.3772,0.3772,0.3772,0.3772,0.3772,0.3772,0.3737,0.3719,0.3739,0.3744,0.375,0.3768,0.3754,0.3737,0.3726,0.3692,0.3659,0.3636,0.3618,0.36,0.3589,0.36,0.36,0.3589,0.3632,0.366,0.3681,0.3712,0.3726,0.3726,0.3694,0.3663,-1.3542,-1.3607,-1.364,-1.376,-1.3966,-1.4178,-1.4292,-1.4504,-1.4673,-1.4689,-1.4689,-1.4716,-1.4841,-1.4869,-1.4869,-1.4638,-1.0676,-0.7637,-0.712,-0.3217,-0.115,-0.3443,-0.5968,-0.8485,-1.0784,-1.3305,-1.4689,-1.4689,-1.4575,-1.4504,-1.4488,-1.4504,-1.4559,-1.4673,-1.4787,-1.4912,-1.5037,-1.5037,-1.5037,-1.5037,-1.4565,-1.1287,-0.5525,-0.509,-0.1712,0.3945,0.3887,0.3859,0.3859,0.3831,0.3799,0.3775,0.3775,0.3772,0.3772,0.3772,0.3772,0.3772,0.3772,0.3772,0.3772,0.3771,0.3771,0.3772,0.3771,0.3771,0.3772,0.3771,0.3771,0.3771,0.3771,0.3771,0.3771,0.3772,0.3772,0.3772,0.3772,0.3772,0.3772,0.3772,0.3772,0.3772,0.3772,0.3772,0.3772,0.3772,0.3772,0.3772,0.3772,0.3772,0.3772,0.3772,0.3772,0.3761,0.373,0.3726,0.3701,0.3643,0.3639,0.3625,0.3594,0.3621,0.3625,0.3594,0.3652,0.3684,0.3684,0.3712,0.373,0.3726,0.3699,0.3667,-1.3586,-1.3673,-1.3749,-1.3781,-1.4031,-1.4276,-1.4309,-1.4504,-1.47,-1.4787,-1.4814,-1.4841,-1.4967,-1.4994,-1.4285,-1.2407,-1.1184,-0.9049,-0.5327,-0.5298,-0.4359,-0.138,-0.6458,-0.9715,-0.8558,-1.2326,-1.4939,-1.4939,-1.4744,-1.4548,-1.4379,-1.4532,-1.4646,-1.4673,-1.4787,-1.4912,-1.5037,-1.5037,-1.5037,-1.5037,-1.5034,-1.2014,-0.6252,-0.5849,-0.2457,0.3206,0.3644,0.3873,0.3891,0.3838,0.3813,0.3806,0.3806,0.3793,0.3772,0.3772,0.3772,0.3772,0.3772,0.3772,0.3771,0.33,0.33,0.3771,0.33,0.33,0.3771,0.33,0.3064,0.3064,0.3064,0.3064,0.3064,0.3771,0.3772,0.3772,0.3772,0.3772,0.3772,0.3772,0.3772,0.3772,0.3772,0.3772,0.3772,0.3772,0.3772,0.3772,0.3772,0.3772,0.3772,0.3772,0.3772,0.3768,0.3761,0.3739,0.3708,0.367,0.367,0.3656,0.3625,0.3652,0.3667,0.3656,0.3694,0.3715,0.3715,0.3744,0.3761,0.3757,0.373,0.3708,-1.3656,-1.3732,-1.3814,-1.3917,-1.4167,-1.4407,-1.4407,-1.4629,-1.4841,-1.4858,-1.4896,-1.4956,-1.5021,-1.5081,-1.4602,-1.3101,-1.1945,-1.0292,-0.7439,-0.7188,-0.6954,-0.5101,-0.8608,-1.1192,-1.0723,-1.3348,-1.501,-1.4967,-1.4787,-1.4646,-1.4559,-1.4629,-1.47,-1.476,-1.4869,-1.4967,-1.5037,-1.5037,-1.5037,-1.5037,-1.5276,-1.2014,-0.6011,-0.5859,-0.2457,0.3437,0.365,0.388,0.3883,0.3848,0.3827,0.3817,0.3831,0.3817,0.3793,0.3793,0.3793,0.3788,0.3539,0.3309,0.3315,0.283,0.3064,0.33,0.2593,0.2593,0.2828,0.2593,0.2356,0.2356,0.2356,0.2593,0.2828,0.33,0.3535,0.3772,0.3772,0.3772,0.3772,0.3772,0.3772,0.3772,0.3772,0.3772,0.3772,0.3772,0.3772,0.3772,0.3772,0.3772,0.3772,0.3772,0.3772,0.3772,0.3772,0.3757,0.3733,0.3701,0.3701,0.3688,0.3656,0.3684,0.3694,0.3681,0.3723,0.3739,0.3726,0.3757,0.3772,0.3772,0.3739,0.3726,-1.3727,-1.3798,-1.3863,-1.408,-1.432,-1.4504,-1.4504,-1.4771,-1.4983,-1.4885,-1.4956,-1.5037,-1.5037,-1.5124,-1.5135,-1.4939,-1.3187,-1.1826,-1.1216,-0.9606,-0.9175,-1.0579,-1.1512,-1.2438,-1.4326,-1.4798,-1.4994,-1.4885,-1.4771,-1.4744,-1.4825,-1.4744,-1.4754,-1.4869,-1.4983,-1.5037,-1.5037,-1.5037,-1.5053,-1.5064,-1.5293,-1.2257,-0.6247,-0.6099,-0.2691,0.3166,0.365,0.3876,0.3851,0.3608,0.3591,0.3813,0.3118,0.3354,0.3817,0.3339,0.3343,0.3585,0.2844,0.2614,0.2628,0.2602,0.2595,0.2597,0.1885,0.1885,0.1885,0.1885,0.1649,0.1649,0.1649,0.2121,0.2593,0.2828,0.33,0.3772,0.3772,0.3772,0.3772,0.3772,0.3772,0.3772,0.3772,0.3772,0.3772,0.3772,0.3772,0.3772,0.3772,0.3772,0.3772,0.3772,0.3772,0.3772,0.3772,0.3775,0.3764,0.3733,0.3737,0.3726,0.3694,0.3719,0.3719,0.3694,0.3744,0.3757,0.3733,0.3757,0.3772,0.3772,0.3748,0.3737,-1.3749,-1.3857,-1.3961,-1.4097,-1.432,-1.4504,-1.4504,-1.47,-1.4885,-1.4858,-1.4956,-1.5037,-1.5037,-1.5053,-1.5092,-1.5151,-1.4712,-1.3803,-1.1708,-1.2856,-1.2578,-0.8778,-1.1784,-1.3626,-1.2214,-1.3859,-1.5021,-1.501,-1.4896,-1.4787,-1.4716,-1.4787,-1.4885,-1.4994,-1.5021,-1.5037,-1.5037,-1.5037,-1.5092,-1.5189,-1.532,-1.3697,-1.0341,-0.7276,-0.4127,-0.0723,0.24,0.3827,0.3581,0.1658,0.189,0.3306,-0.0708,0.0,0.3579,0.0953,0.1201,0.2912,0.2409,0.2174,0.194,0.1425,0.1657,0.1901,0.118,0.1414,0.1885,0.1178,0.1178,0.1178,0.1178,0.1649,0.2121,0.2593,0.33,0.3772,0.3772,0.3772,0.3772,0.3772,0.3772,0.3772,0.3772,0.3772,0.3772,0.3772,0.3772,0.3772,0.3772,0.3772,0.3772,0.3772,0.3772,0.3772,0.3772,0.3795,0.3795,0.3764,0.3788,0.3788,0.3757,0.3761,0.3761,0.3757,0.3764,0.3768,0.3764,0.3768,0.3772,0.3772,0.3793,0.3788,-1.3841,-1.401,-1.4178,-1.4292,-1.4504,-1.4657,-1.4532,-1.4689,-1.4841,-1.4771,-1.4858,-1.4967,-1.5021,-1.5092,-1.5135,-1.5124,-1.5179,-1.4739,-1.3537,-1.4497,-1.4246,-1.1818,-1.3714,-1.4628,-1.3387,-1.4326,-1.5037,-1.5037,-1.5037,-1.4994,-1.4869,-1.4912,-1.4983,-1.5037,-1.5037,-1.5037,-1.5037,-1.5037,-1.5064,-1.5124,-1.5249,-1.3624,-1.0755,-0.9148,-0.5775,-0.1196,-0.0715,0.0238,0.1657,0.0471,0.0706,0.1648,0.0236,0.119,0.312,0.1199,0.1211,0.2205,0.1695,0.146,0.1224,0.0721,0.0957,0.1198,0.0713,0.0712,0.0948,0.0472,0.0471,0.0471,0.0471,0.0943,0.1649,0.2121,0.3064,0.3772,0.3772,0.3786,0.3788,0.3775,0.3786,0.3788,0.3775,0.3772,0.3772,0.3772,0.3772,0.3772,0.3772,0.3786,0.3788,0.3772,0.3772,0.3779,0.3793,0.381,0.3817,0.3817,0.3817,0.381,0.3795,0.3779,0.3772,0.3772,0.3772,0.3772,0.3772,0.3772,0.3772,0.3772,0.3803,0.3799,-1.3955,-1.4151,-1.4363,-1.4504,-1.4673,-1.476,-1.4548,-1.4673,-1.4787,-1.4689,-1.4771,-1.4896,-1.501,-1.5124,-1.5162,-1.5092,-1.5135,-1.5162,-1.5124,-1.5179,-1.5179,-1.5092,-1.5162,-1.5179,-1.5053,-1.5037,-1.5053,-1.5081,-1.5162,-1.5179,-1.5081,-1.5053,-1.5037,-1.5037,-1.5037,-1.5037,-1.5037,-1.5037,-1.5053,-1.5081,-1.5179,-1.3793,-1.1404,-1.0755,-0.7638,-0.3081,-0.4266,-0.3309,-0.0941,-0.0941,-0.0706,0.0,0.0712,0.1673,0.2647,0.1446,0.1219,0.1729,0.0975,0.0735,0.0743,0.0244,0.0242,0.0725,0.024,0.0,0.0,0.0,0.0,0.0,0.0,0.0471,0.1178,0.1885,0.2828,0.3535,0.3771,0.3788,0.3799,0.3775,0.3793,0.3799,0.3775,0.3772,0.3772,0.3772,0.3772,0.3775,0.3782,0.3803,0.381,0.3793,0.3788,0.3799,0.3824,0.3831,0.3844,0.3866,0.3848,0.3835,0.3827,0.3795,0.3779,0.3772,0.3772,0.3772,0.3772,0.3772,0.3775,0.3782,0.3813,0.381,-1.4053,-1.4222,-1.4379,-1.4602,-1.4673,-1.4657,-1.4532,-1.4602,-1.4689,-1.4673,-1.4771,-1.4896,-1.501,-1.5053,-1.5092,-1.5189,-1.5124,-1.5124,-1.5331,-1.5276,-1.5222,-1.5206,-1.5222,-1.5179,-1.5053,-1.5037,-1.5081,-1.5189,-1.5222,-1.5222,-1.5206,-1.5092,-1.5037,-1.5037,-1.5037,-1.5037,-1.5037,-1.5037,-1.5092,-1.5206,-1.5222,-1.498,-1.4739,-1.1882,-1.018,-0.9162,-0.611,-0.4468,-0.4228,-0.4231,-0.2823,-0.1177,-0.3768,-0.2131,0.1673,-0.1202,-0.0978,0.0997,0.0247,0.0,0.0,0.0,0.0,0.0,0.0,0.0,0.0,0.0,0.0,0.0,0.0,0.0471,0.1178,0.2356,0.2828,0.3064,0.3771,0.3775,0.3775,0.3772,0.3775,0.3775,0.3772,0.3772,0.3772,0.3772,0.3772,0.3782,0.381,0.3817,0.3824,0.3848,0.3851,0.3851,0.3855,0.388,0.3898,0.39,0.3898,0.3883,0.3855,0.3827,0.3799,0.3772,0.3772,0.3772,0.3772,0.3772,0.3786,0.3813,0.3842,0.3842,-1.4113,-1.439,-1.4657,-1.476,-1.4841,-1.4841,-1.4646,-1.4646,-1.4673,-1.4673,-1.4716,-1.4798,-1.4994,-1.5037,-1.5053,-1.5108,-1.5064,-1.5064,-1.5162,-1.5206,-1.5189,-1.5124,-1.5179,-1.5179,-1.5053,-1.5108,-1.5222,-1.5418,-1.5304,-1.5249,-1.532,-1.5135,-1.5037,-1.5037,-1.5037,-1.5037,-1.5037,-1.5037,-1.5064,-1.5108,-1.5108,-1.5108,-1.5108,-1.369,-1.2244,-1.0322,-1.0333,-0.9386,-0.751,-0.5875,-0.4703,-0.3526,-0.2117,-0.0473,0.1193,-0.0481,-0.049,0.0249,0.0,0.0,0.0,0.0,0.0,0.0,0.0,0.0,0.0,0.0,0.0,0.0,0.0,0.0473,0.1179,0.2134,0.2611,0.3086,0.3562,0.3813,0.3813,0.3779,0.3786,0.3793,0.3775,0.3786,0.3799,0.3799,0.3813,0.3827,0.3842,0.3859,0.3873,0.3883,0.3869,0.3866,0.3883,0.3898,0.3911,0.3929,0.3914,0.3898,0.3887,0.3842,0.381,0.3799,0.3799,0.3799,0.3799,0.3817,0.3831,0.3842,0.3873,0.3862,-1.4222,-1.4548,-1.4869,-1.4896,-1.4967,-1.4967,-1.4727,-1.4673,-1.4673,-1.4673,-1.4673,-1.4744,-1.4994,-1.5037,-1.5037,-1.5037,-1.501,-1.4994,-1.5037,-1.5108,-1.5135,-1.5053,-1.5151,-1.5179,-1.5053,-1.5179,-1.5331,-1.5505,-1.5401,-1.5347,-1.5391,-1.5206,-1.5081,-1.5037,-1.5037,-1.5037,-1.5037,-1.5037,-1.5037,-1.5037,-1.5037,-1.5037,-1.5037,-1.5037,-1.3859,-1.1729,-1.3387,-1.2924,-1.0567,-0.7281,-0.5875,-0.5404,-0.1177,0.0709,0.0476,0.024,0.0,0.0,0.0,0.0,0.0,0.0,0.0,0.0,0.0,0.0,0.0,0.0,0.0,0.0,0.0,0.0238,0.0711,0.1433,0.2154,0.287,0.3343,0.3591,0.3831,0.3782,0.3795,0.381,0.3788,0.381,0.3831,0.3831,0.3844,0.3862,0.3873,0.3891,0.3907,0.3918,0.3898,0.3893,0.3914,0.3918,0.3925,0.3949,0.3929,0.3914,0.3904,0.3866,0.3838,0.3831,0.3831,0.3831,0.3831,0.3848,0.3862,0.3873,0.3893,0.3876,-1.4434,-1.4673,-1.4885,-1.501,-1.5037,-1.4967,-1.4727,-1.4673,-1.4673,-1.4673,-1.4673,-1.4744,-1.4994,-1.5037,-1.5037,-1.5037,-1.4939,-1.4896,-1.5021,-1.5037,-1.5037,-1.5037,-1.5151,-1.5179,-1.5053,-1.5249,-1.5391,-1.5391,-1.5499,-1.5516,-1.5391,-1.5276,-1.5162,-1.5037,-1.5037,-1.5037,-1.5037,-1.5037,-1.5037,-1.5037,-1.5037,-1.5037,-1.5037,-1.5037,-1.5037,-1.5037,-1.4337,-1.4098,-1.3626,-0.8696,-0.6582,-0.611,-0.1648,0.0,0.0,0.0,0.0,0.0,0.0,0.0,0.0,0.0,0.0,0.0,0.0,0.0,0.0,0.0,0.0,0.0,0.0,0.0,0.0239,0.0722,0.1448,0.2168,0.2628,0.3339,0.381,0.3779,0.3795,0.3817,0.3817,0.3842,0.3859,0.3859,0.3859,0.3869,0.39,0.3904,0.3914,0.3947,0.3949,0.3949,0.3949,0.3949,0.3949,0.3949,0.3949,0.3936,0.3904,0.3904,0.3891,0.3859,0.3859,0.3859,0.3859,0.3859,0.3873,0.3904,0.3904,0.3887,-1.4379,-1.4619,-1.4841,-1.4798,-1.4858,-1.4858,-1.4619,-1.4619,-1.4673,-1.4673,-1.4673,-1.4744,-1.4994,-1.5037,-1.5037,-1.5037,-1.501,-1.4994,-1.5037,-1.5108,-1.5162,-1.5162,-1.5189,-1.5233,-1.5276,-1.5276,-1.5374,-1.5613,-1.5603,-1.5559,-1.5516,-1.5401,-1.5249,-1.5037,-1.5037,-1.5037,-1.5037,-1.5037,-1.5037,-1.5037,-1.5037,-1.5037,-1.5037,-1.5037,-1.5037,-1.5037,-1.4798,-1.4798,-1.4337,-0.9396,-0.7281,-0.6817,-0.1884,0.0,0.0,0.0,0.0,0.0,0.0,0.0,0.0,0.0,0.0,0.0,0.0,0.0,0.0,0.0,0.0,0.0,0.0,0.0,0.0241,0.0728,0.146,0.2183,0.265,0.338,0.3862,0.3813,0.3827,0.3844,0.3844,0.3869,0.3891,0.3891,0.3907,0.3925,0.3936,0.3936,0.3938,0.3949,0.3949,0.3949,0.3949,0.3949,0.3949,0.3949,0.3949,0.3947,0.3936,0.3914,0.39,0.3891,0.3891,0.3891,0.3891,0.3911,0.3925,0.3936,0.3893,0.3869,-1.5077,-1.5067,-1.5297,-1.4995,-1.5297,-1.5094,-1.4619,-1.4845,-1.4906,-1.4673,-1.4673,-1.4744,-1.4994,-1.5037,-1.5037,-1.5037,-1.5037,-1.5053,-1.5092,-1.5135,-1.5151,-1.5151,-1.5189,-1.5249,-1.532,-1.5304,-1.5391,-1.5673,-1.5657,-1.5613,-1.557,-1.5499,-1.5347,-1.5108,-1.5064,-1.5037,-1.5037,-1.5037,-1.5037,-1.5037,-1.5037,-1.5037,-1.5037,-1.5037,-1.5037,-1.5037,-1.5037,-1.5037,0.0,-0.9631,-0.7518,-0.7046,-0.1884,0.0,0.0,0.0,0.0,0.0,0.0,0.0,0.0,0.0,0.0,0.0,0.0,0.0,0.0,0.0,0.0,0.0,0.0,0.0,0.0,0.049,0.1223,0.1952,0.2426,0.3155,0.3876,0.3842,0.3855,0.3876,0.3876,0.39,0.3922,0.3922,0.3938,0.3949,0.3949,0.3949,0.3949,0.3949,0.3949,0.3949,0.3949,0.3949,0.3949,0.3949,0.3949,0.3949,0.3949,0.3932,0.3922,0.3922,0.3922,0.3922,0.3922,0.3938,0.3949,0.3949,0.3887,0.3859,0.0,-1.602,-1.5762,-1.5521,-1.5843,-1.5866,-1.4945,-1.5123,0.0,-1.4906,-1.4673,-1.4754,-1.501,-1.5037,-1.5037,-1.5053,-1.5037,-1.5081,-1.5206,-1.5135,-1.5081,-1.5081,-1.5179,-1.5249,-1.5249,-1.5347,-1.5461,-1.557,-1.5684,-1.57,-1.5586,-1.557,-1.5472,-1.5249,-1.5124,-1.5053,-1.5037,-1.5037,-1.5037,-1.5037,-1.5037,-1.5037,-1.5037,-1.5037,-1.5037,-1.5037,-1.5037,-1.5037,-1.4565,-0.9631,-0.7518,-0.7046,-0.1884,0.0,0.0,0.0,0.0,0.0,0.0,0.0,0.0,0.0,0.0,0.0,0.0,0.0,0.0,0.0,0.0,0.0,0.0,0.0,0.0,0.0,0.0983,0.1955,0.1953,0.2914,0.3866,0.3862,0.3887,0.3907,0.3907,0.3932,0.3949,0.3949,0.3949,0.3949,0.3949,0.3949,0.3949,0.3949,0.3949,0.3949,0.3949,0.3949,0.3949,0.3949,0.3949,0.3949,0.3949,0.3949,0.3949,0.3949,0.3949,0.3949,0.3949,0.3949,0.3949,0.3949,0.3887,0.3859,-1.6805,0.0,-1.5384,-1.4834,-1.535,-1.563,0.0,-1.5439,-1.5468,-1.5339,-1.4906,-1.4771,-1.5124,-1.5092,-1.5064,-1.5162,-1.5092,-1.5081,-1.5206,-1.5347,-1.5445,-1.5445,-1.5472,-1.5488,-1.5488,-1.5516,-1.5586,-1.57,-1.5744,-1.5744,-1.5711,-1.563,-1.5543,-1.5488,-1.5293,-1.5135,-1.5037,-1.5037,-1.5037,-1.5037,-1.5037,-1.5037,-1.5037,-1.5037,-1.5037,-1.5037,-1.5037,-1.5037,-1.4565,-0.9631,-0.7518,-0.7046,-0.1884,0.0,0.0,0.0,0.0,0.0,0.0,0.0,0.0,0.0,0.0,0.0,0.0,0.0,0.0,0.0,0.0,0.0,0.0,0.0,0.0,0.0,0.0986,0.1965,0.1955,0.2938,0.3922,0.3898,0.3918,0.3692,0.32,0.3699,0.3703,0.3209,0.3703,0.3949,0.3949,0.3949,0.3949,0.3949,0.3949,0.3949,0.3949,0.3949,0.3949,0.3949,0.3949,0.3949,0.3949,0.3949,0.3949,0.3949,0.3949,0.3949,0.3949,0.3949,0.3949,0.3949,0.3887,0.3859,-1.6754,-1.6067,-1.5572,-1.505,-1.5589,-1.6098,-1.5514,-1.567,-1.5641,-1.5485,-1.5095,-1.4754,-1.501,-1.5092,-1.5124,-1.5135,-1.5124,-1.5151,-1.5206,-1.5472,-1.5613,-1.5499,-1.5543,-1.557,-1.557,-1.557,-1.563,-1.5744,-1.5755,-1.5755,-1.5755,-1.57,-1.563,-1.557,-1.5391,-1.5233,-1.5124,-1.5064,-1.5037,-1.5037,-1.5037,-1.5037,-1.5037,-1.5092,-1.5092,-1.5037,-1.5092,-1.4378,-1.2915,-0.9159,-0.6817,-0.541,-0.1413,0.0,0.0,0.0,0.0,0.0,0.0,0.0,0.0,0.0,0.0,0.0,0.0,0.0,0.0,0.0,0.0,0.0,0.0,0.0,0.0,0.0,0.0985,0.1963,0.1963,0.2946,0.3929,0.3434,0.3446,0.3209,0.2715,0.2715,0.2961,0.2468,0.2961,0.3456,0.3456,0.3703,0.3949,0.3949,0.3949,0.3949,0.3949,0.3949,0.3949,0.3949,0.3703,0.3703,0.3949,0.3703,0.3703,0.3949,0.3949,0.3949,0.3949,0.3949,0.3949,0.3949,0.39,0.3873,-1.6336,-1.5866,-1.5384,-1.5356,-1.6127,-1.6398,-1.5834,-1.6175,-1.6297,-1.5623,-1.5265,-1.4945,-1.4885,-1.5064,-1.5179,-1.5124,-1.5206,-1.5276,-1.5276,-1.5559,-1.5684,-1.5472,-1.5532,-1.5603,-1.5603,-1.5603,-1.5641,-1.5744,-1.5755,-1.5755,-1.5755,-1.5755,-1.5711,-1.5603,-1.5461,-1.5347,-1.5249,-1.5108,-1.5037,-1.5037,-1.5053,-1.5064,-1.5064,-1.5189,-1.5179,-1.5064,-1.4697,-1.3263,-1.1051,-0.8224,-0.5645,-0.3535,-0.0943,0.0,0.0,0.0,0.0,0.0,0.0,0.0,0.0,0.0,0.0,0.0,0.0,0.0,0.0,0.0,0.0,0.0,0.0,0.0,0.0,0.0,0.0983,0.1715,0.1726,0.27,0.3428,0.2959,0.2961,0.2715,0.1974,0.1974,0.1974,0.1974,0.2468,0.2961,0.2961,0.3456,0.3703,0.3949,0.3949,0.3949,0.3703,0.3703,0.3703,0.3703,0.3209,0.3209,0.3703,0.3456,0.3456,0.3949,0.3949,0.3949,0.3949,0.3949,0.3949,0.3949,0.3918,0.3887,-1.6236,-1.556,-1.5033,-1.4934,-1.5589,-1.6517,-1.6499,-1.6608,-1.697,-1.6297,-1.5729,-1.5458,-1.5108,-1.5108,-1.5162,-1.5445,-1.5505,-1.5516,-1.5516,-1.5657,-1.5744,-1.57,-1.5711,-1.5728,-1.5728,-1.5728,-1.5744,-1.5755,-1.5755,-1.5755,-1.5755,-1.5755,-1.5744,-1.5728,-1.5505,-1.5374,-1.5363,-1.5151,-1.5037,-1.5037,-1.5135,-1.5189,-1.5189,-1.5304,-1.5304,-1.4954,-1.3069,-1.1869,-1.0907,-0.6363,-0.4251,-0.3562,-0.0944,0.0,0.0,0.0,0.0,0.0,0.0,0.0,0.0,0.0,0.0,0.0,0.0,0.0,0.0,0.0,0.0,0.0,0.0,0.0,0.0,0.0,0.0493,0.1233,0.1235,0.1726,0.2217,0.2221,0.2221,0.1974,0.1235,0.1728,0.1728,0.1235,0.1728,0.2468,0.2961,0.2961,0.3456,0.3949,0.3949,0.3703,0.3209,0.3208,0.2961,0.2221,0.2715,0.2961,0.3208,0.3456,0.3703,0.3949,0.3949,0.3949,0.3949,0.3949,0.3949,0.3949,0.3918,0.3887,-1.6175,-1.5653,-1.5134,-1.476,-1.5561,-1.6359,-1.6359,-1.6725,-1.6831,-1.6068,-1.5928,-1.5606,-1.5097,-1.5179,-1.5304,-1.5532,-1.557,-1.557,-1.557,-1.5684,-1.5755,-1.5755,-1.5755,-1.5755,-1.5755,-1.5755,-1.5755,-1.5755,-1.5755,-1.5755,-1.5755,-1.5755,-1.5755,-1.5755,-1.5586,-1.5461,-1.5391,-1.5222,-1.5135,-1.5135,-1.5189,-1.5249,-1.532,-1.5363,-1.4606,-1.3069,-1.1937,-0.9784,-0.713,-0.4764,-0.3106,-0.1677,-0.0476,0.0,0.0,0.0,0.0,0.0,0.0,0.0,0.0,0.0,0.0,0.0,0.0,0.0,0.0,0.0,0.0,0.0,0.0,0.0,0.0,0.0,0.0494,0.0988,0.0988,0.1481,0.1974,0.1481,0.1482,0.1235,0.0494,0.0741,0.0741,0.0494,0.0988,0.1482,0.1976,0.2221,0.2468,0.2961,0.2961,0.2715,0.2468,0.2468,0.2221,0.1482,0.1974,0.2468,0.2468,0.2961,0.3456,0.3949,0.3949,0.3949,0.3949,0.3949,0.3949,0.3949,0.3936,0.3904,-1.6577,-1.6018,-1.5497,-1.5268,-1.5431,-1.6051,-1.6138,-1.6502,-1.6835,-1.5832,-1.5918,-1.6022,-1.5348,-1.532,-1.5488,-1.5532,-1.557,-1.5613,-1.5613,-1.57,-1.5755,-1.5755,-1.5755,-1.5755,-1.5755,-1.5755,-1.5755,-1.5755,-1.5755,-1.5755,-1.5755,-1.5755,-1.5755,-1.5755,-1.5641,-1.5532,-1.5434,-1.532,-1.5249,-1.5222,-1.5249,-1.532,-1.5429,-1.4741,-1.3482,-1.1478,-1.0341,-0.745,-0.3831,-0.3126,-0.1689,0.0,0.0,0.0,0.0,0.0,0.0,0.0,0.0,0.0,0.0,0.0,0.0,0.0,0.0,0.0,0.0,0.0,0.0,0.0,0.0,0.0,0.0,0.0,0.0494,0.0741,0.0741,0.1235,0.1481,0.0988,0.0741,0.0494,0.0,0.0,0.0,0.0,0.0494,0.074,0.0985,0.1479,0.1726,0.1969,0.1972,0.1974,0.1728,0.1728,0.1234,0.0741,0.1482,0.1728,0.1974,0.2715,0.3209,0.3949,0.3949,0.3949,0.3949,0.3949,0.3949,0.3949,0.3943,0.3914,-1.7137,-1.684,-1.6302,-1.5751,-1.5705,-1.5722,-1.608,-1.6896,-1.7217,-1.6151,-1.6531,-1.6656,-1.5574,-1.5559,-1.5657,-1.5434,-1.5603,-1.5744,-1.5744,-1.5755,-1.5755,-1.5755,-1.5755,-1.5755,-1.5755,-1.5755,-1.5755,-1.5755,-1.5755,-1.5755,-1.5755,-1.5755,-1.5755,-1.5755,-1.5641,-1.557,-1.5559,-1.5434,-1.532,-1.5222,-1.5331,-1.5445,-1.5559,-1.3218,-1.1987,-1.1411,-0.6563,-0.4137,-0.3646,-0.1209,-0.0242,0.0,0.0,0.0,0.0,0.0,0.0,0.0,0.0,0.0,0.0,0.0,0.0,0.0,0.0,0.0,0.0,0.0,0.0,0.0,0.0,0.0,0.0,0.0,0.0,0.0,0.0,0.0,0.0247,0.0,0.0,0.0,0.0,0.0,0.0,0.0,0.0,0.0246,0.0978,0.0983,0.1231,0.1957,0.1967,0.1728,0.1235,0.0494,0.0,0.0,0.0741,0.1235,0.1974,0.2715,0.3209,0.3949,0.3949,0.3949,0.3949,0.3949,0.3949,0.3949,0.3922,0.3904,-1.7262,-1.7009,-1.6966,-1.6332,-1.6145,-1.6264,-1.5717,-1.6728,-1.7189,-1.6438,-1.6775,-1.6858,-1.5635,-1.5586,-1.57,-1.5532,-1.5641,-1.5755,-1.5755,-1.5755,-1.5755,-1.5755,-1.5755,-1.5755,-1.5755,-1.5755,-1.5755,-1.5755,-1.5755,-1.5755,-1.5755,-1.5755,-1.5755,-1.5755,-1.5711,-1.5641,-1.557,-1.5532,-1.4751,-1.3016,-1.3053,-1.3136,-1.3232,-1.052,-0.8294,-0.6813,-0.4625,-0.2924,-0.1463,-0.0489,0.0,0.0,0.0,0.0,0.0,0.0,0.0,0.0,0.0,0.0,0.0,0.0,0.0,0.0,0.0,-0.1238,-0.2465,-0.2465,-0.3696,-0.4189,-0.074,0.0,0.0,0.0,0.0,0.0,0.0,0.0,0.0,0.0,0.0,0.0,0.0,0.0,0.0,0.0,0.0,0.0,0.0246,0.0491,0.0491,0.0738,0.074,0.0741,0.0494,0.0247,0.0,0.0,0.0247,0.0741,0.1235,0.1974,0.2715,0.3209,0.3703,0.3949,0.3949,0.3949,0.3949,0.3949,0.3938,0.3922,-1.7268,-1.7412,-1.7349,-1.6934,-1.6831,-1.6786,-1.6213,-1.6823,-1.7618,-1.6942,-1.6989,-1.6748,-1.5701,-1.5586,-1.5673,-1.5586,-1.5673,-1.5755,-1.5755,-1.5755,-1.5755,-1.5755,-1.5755,-1.5755,-1.5755,-1.5755,-1.5755,-1.5755,-1.5755,-1.5755,-1.5755,-1.5755,-1.5755,-1.5755,-1.5755,-1.5711,-1.563,-1.563,-1.4406,-1.1719,-1.0745,-1.0527,-1.0575,-0.7839,-0.5619,-0.3911,-0.2936,-0.1714,0.0,0.0,0.0,0.0,0.0,0.0,0.0,0.0,0.0,0.0,0.0,0.0,0.0,0.0,0.0,0.0,0.0,-0.1738,-0.3943,-0.3943,-0.5912,-0.714,-0.345,-0.2466,-0.2219,-0.1481,-0.1234,-0.0987,-0.0247,0.0,0.0,0.0,0.0,0.0,0.0,0.0,0.0,0.0,0.0,0.0,0.0,0.0,0.0,0.0,0.0,0.0,0.0,0.0,0.0,0.0,0.0,0.0246,0.0988,0.1482,0.2221,0.2961,0.3456,0.3703,0.3949,0.3949,0.3949,0.3949,0.3938,0.3929,-1.786,-1.763,-1.722,-1.7369,-1.7523,-1.7467,-1.7277,-1.7575,-1.7931,-1.786,-1.7114,-1.6283,-1.5817,-1.557,-1.557,-1.557,-1.5673,-1.5755,-1.5755,-1.5755,-1.5755,-1.5755,-1.5755,-1.5755,-1.5755,-1.5755,-1.5755,-1.5755,-1.5755,-1.5755,-1.5755,-1.5755,-1.5755,-1.5755,-1.5755,-1.5755,-1.5755,-1.5755,-1.4521,-1.1813,-0.91,-0.7875,-0.7872,-0.5172,-0.3943,-0.3696,-0.1234,0.0,0.0,0.0,0.0,0.0,0.0,0.0,0.0,0.0,0.0,0.0,0.0,0.0,0.0,0.0,0.0,0.0,0.0,-0.1987,-0.3943,-0.3943,-0.5912,-0.7875,-0.7875,-0.7875,-0.7135,-0.4437,-0.3943,-0.3206,-0.0494,0.0,0.0,0.0,0.0,0.0,0.0,0.0,0.0,0.0,0.0,0.0,0.0,0.0,0.0,0.0,0.0,0.0,0.0,0.0,0.0,0.0,0.0,0.0245,0.0988,0.0988,0.1729,0.2961,0.2961,0.3209,0.3949,0.3949,0.3949,0.3949,0.3918,0.3922,-1.7579,-1.7563,-1.7304,-1.7596,-1.7739,-1.7942,-1.8268,-1.8366,-1.8258,-1.8243,-1.7761,-1.7025,-1.6283,-1.5878,-1.5673,-1.5586,-1.5673,-1.5755,-1.5755,-1.5755,-1.5755,-1.5755,-1.5755,-1.5755,-1.5755,-1.5755,-1.5755,-1.5755,-1.5755,-1.5755,-1.5755,-1.5755,-1.5755,-1.5755,-1.5755,-1.5755,-1.5755,-1.4022,-1.1567,-0.91,-0.64,-0.5172,-0.4926,-0.2465,-0.1234,-0.1234,-0.0247,0.0,0.0,0.0,0.0,0.0,0.0,0.0,0.0,0.0,0.0,0.0,0.0,0.0,0.0,0.0,0.0,-0.0253,-0.2266,-0.45,-0.7189,-0.887,-1.1318,-1.3527,-1.3527,-1.2062,-0.9594,-0.4924,-0.3943,-0.3206,-0.0494,0.0,0.0,0.0,0.0,0.0,0.0,0.0,0.0,0.0,0.0,0.0,0.0,0.0,0.0,0.0,0.0,0.0,0.0,0.0,0.0,0.0,0.0,0.0,0.0247,0.0741,0.1235,0.1482,0.2468,0.3208,0.3209,0.3703,0.3949,0.3949,0.3938,0.3943,-1.7334,-1.7072,-1.6997,-1.7569,-1.7856,-1.8215,-1.8805,-1.9006,-1.8692,-1.8294,-1.7779,-1.7272,-1.6357,-1.5905,-1.5673,-1.5641,-1.5711,-1.5755,-1.5755,-1.5755,-1.5755,-1.5755,-1.5755,-1.5755,-1.5755,-1.5755,-1.5755,-1.5755,-1.5755,-1.5755,-1.5755,-1.5755,-1.5755,-1.5755,-1.5755,-1.5755,-1.5755,-1.3042,-1.0582,-0.7875,-0.5172,-0.345,-0.2219,-0.074,0.0,0.0,0.0,0.0,0.0,0.0,0.0,0.0,0.0,0.0,0.0,0.0,0.0,0.0,0.0,0.0,0.0,0.0,0.0,-0.051,-0.3033,-0.5766,-0.845,-1.11,-1.3786,-1.5755,-1.5755,-1.4526,-1.2062,-0.6646,-0.4678,-0.3206,-0.0494,0.0,0.0,0.0,0.0,0.0,0.0,0.0,0.0,0.0,0.0,0.0,0.0,0.0,0.0,0.0,0.0,0.0,0.0,0.0,0.0,0.0,0.0,0.0,0.0,-0.0493,-0.074,-0.0493,0.0493,0.1233,0.1479,0.3208,0.3949,0.3949,0.3949,0.3949,-1.7282,-1.6664,-1.6034,-1.753,-1.782,-1.8176,-1.8945,-1.9468,-1.9177,-1.7947,-1.7611,-1.7084,-1.5977,-1.5657,-1.563,-1.5744,-1.5755,-1.5755,-1.5755,-1.5755,-1.5755,-1.5755,-1.5755,-1.5755,-1.5755,-1.5755,-1.5755,-1.5755,-1.5755,-1.5755,-1.5755,-1.5755,-1.5755,-1.5755,-1.5755,-1.5755,-1.5755,-1.2797,-1.0337,-0.7875,-0.4924,-0.2219,0.0,0.0,0.0,0.0,0.0,0.0,0.0,-0.0247,-0.0247,-0.0247,-0.0247,-0.0247,-0.0247,0.0,0.0,0.0,0.0,0.0,0.0,0.0,0.0,-0.0509,-0.303,-0.576,-0.845,-1.085,-1.3292,-1.5505,-1.5505,-1.5255,-1.4022,-0.9348,-0.6152,-0.345,-0.0741,0.0,0.0,0.0,0.0,0.0,0.0,0.0,0.0,0.0,0.0,0.0,0.0,0.0,0.0,0.0,0.0,0.0,0.0,0.0,0.0,0.0,0.0,0.0,0.0,-0.2457,-0.3696,-0.2956,-0.2464,-0.1971,-0.0985,0.1972,0.3703,0.3953,0.3953,0.3956,-1.7458,-1.7053,-1.6676,-1.7289,-1.7839,-1.8483,-1.9495,-1.9217,-1.9025,-1.8313,-1.769,-1.6813,-1.6488,-1.5977,-1.5728,-1.5755,-1.5755,-1.5755,-1.5755,-1.5755,-1.5755,-1.5755,-1.5755,-1.5755,-1.5755,-1.5755,-1.5755,-1.5755,-1.5755,-1.5755,-1.5755,-1.5755,-1.5755,-1.5755,-1.5755,-1.5755,-1.5755,-1.1069,-0.8369,-0.7875,-0.3206,-0.0494,0.0,0.0,0.0,0.0,0.0,0.0,-0.0247,-0.2219,-0.2959,-0.2959,-0.2959,-0.2959,-0.2713,-0.074,0.0,0.0,0.0,0.0,0.0,0.0,0.0,-0.0505,-0.3006,-0.5735,-0.7951,-0.863,-1.0586,-1.2548,-1.2548,-1.1073,-0.9842,-1.0831,-0.8863,-0.5664,-0.0987,0.0,0.0,0.0,0.0,0.0,0.0,0.0,0.0,0.0,0.0,0.0,0.0,0.0,0.0,0.0,0.0,0.0,0.0,0.0,0.0,0.0,0.0,0.0,0.0,-0.2464,-0.3696,-0.2959,-0.4432,-0.3692,-0.0986,0.0247,0.1979,0.3985,0.3985,0.3998,-1.7366,-1.7123,-1.6862,-1.7454,-1.7506,-1.7832,-1.9253,-1.8993,-1.8341,-1.8606,-1.7752,-1.6883,-1.6255,-1.6005,-1.5755,-1.5755,-1.5755,-1.5755,-1.5755,-1.5755,-1.5755,-1.5755,-1.5755,-1.5755,-1.5755,-1.5755,-1.5755,-1.5755,-1.5755,-1.5755,-1.5755,-1.5755,-1.5755,-1.5755,-1.5755,-1.5755,-1.5755,-1.0575,-0.7875,-0.7875,-0.2466,0.0,0.0,0.0,0.0,0.0,0.0,-0.074,-0.1972,-0.345,-0.4678,-0.5664,-0.4435,-0.3943,-0.3696,-0.0987,0.0,0.0,0.0,0.0,0.0,0.0,0.0,-0.0504,-0.2998,-0.4982,-0.6214,-0.7648,-0.9842,-1.1813,-1.1813,-1.1813,-1.1813,-1.1813,-0.9842,-0.6892,-0.2713,-0.1974,-0.1481,-0.0247,0.0,0.0,0.0,0.0,0.0,0.0,0.0,0.0,0.0,0.0,0.0,0.0,0.0,0.0,0.0,0.0,0.0,0.0,0.0,0.0,0.0,-0.2487,-0.4219,-0.4929,-0.5437,-0.4943,-0.2956,-0.099,0.1491,0.3994,0.4009,0.3774,-1.7602,-1.7269,-1.69,-1.8007,-1.7488,-1.7145,-1.8986,-1.8478,-1.8114,-1.8491,-1.7585,-1.6636,-1.6021,-1.5755,-1.5755,-1.5755,-1.5755,-1.5755,-1.5755,-1.5755,-1.5755,-1.5755,-1.5755,-1.5755,-1.5755,-1.5755,-1.5755,-1.5755,-1.5755,-1.5755,-1.5755,-1.5755,-1.5755,-1.5755,-1.5755,-1.5755,-1.5755,-1.0575,-0.7875,-0.7875,-0.2466,0.0,0.0,0.0,0.0,0.0,-0.0494,-0.1974,-0.3943,-0.4924,-0.6646,-0.8366,-0.5664,-0.4678,-0.4189,-0.1234,0.0,0.0,0.0,0.0,0.0,0.0,0.0,-0.0503,-0.2494,-0.3483,-0.447,-0.6657,-0.91,-1.1318,-1.1567,-1.3537,-1.4771,-1.2797,-1.0824,-0.8366,-0.4678,-0.3943,-0.3206,-0.0494,0.0,0.0,0.0,0.0,0.0,0.0,0.0,0.0,0.0,0.0,0.0,0.0,0.0,0.0,0.0,0.0,0.0,0.0,0.0,0.0,0.0,-0.2016,-0.427,-0.618,-0.671,-0.6214,-0.519,-0.2487,0.05,0.3761,0.3532,0.3291,-1.7928,-1.7641,-1.7872,-1.8291,-1.7945,-1.7538,-1.8774,-1.8372,-1.7898,-1.7868,-1.7393,-1.6871,-1.6505,-1.6238,-1.5755,-1.5755,-1.5755,-1.5755,-1.5755,-1.5755,-1.5755,-1.5755,-1.5755,-1.5755,-1.5755,-1.5755,-1.5755,-1.5755,-1.5755,-1.5755,-1.5755,-1.5755,-1.5755,-1.5755,-1.5755,-1.5755,-1.5755,-1.0575,-0.7875,-0.7875,-0.2466,0.0,0.0,0.0,0.0,-0.0247,-0.2465,-0.3696,-0.4189,-0.886,-1.1081,-1.1069,-0.8369,-0.7381,-0.6646,-0.1728,0.0,0.0,0.0,0.0,0.0,0.0,0.0,0.0,-0.0495,-0.2223,-0.3947,-0.4435,-0.64,-0.8854,-1.1318,-1.2062,-1.2797,-1.4771,-1.5021,-1.2793,-0.5418,-0.3943,-0.3206,-0.0494,0.0,0.0,0.0,0.0,0.0,0.0,0.0,0.0,0.0,0.0,0.0,0.0,0.0,0.0,0.0,0.0,0.0,0.0,0.0,0.0,0.0,-0.0255,-0.1533,-0.3519,-0.8041,-0.8791,-0.6027,-0.5529,-0.2777,0.2292,0.2294,0.2302,-1.8023,-1.7973,-1.7923,-1.8355,-1.7983,-1.781,-1.8574,-1.8574,-1.8574,-1.898,-1.8454,-1.7862,-1.6744,-1.6477,-1.6238,-1.5755,-1.5755,-1.5755,-1.5755,-1.5755,-1.5755,-1.5755,-1.5755,-1.5755,-1.5755,-1.5755,-1.5755,-1.5755,-1.5755,-1.5755,-1.5755,-1.5755,-1.5755,-1.5755,-1.5755,-1.5021,-1.3541,-0.9842,-0.64,-0.345,-0.1234,0.0,0.0,0.0,0.0,0.0,-0.1234,-0.345,-0.64,-0.8615,-1.1318,-1.3777,-1.1069,-0.9103,-0.7381,-0.3696,-0.1234,0.0,0.0,0.0,0.0,0.0,0.0,0.0,0.0,-0.074,-0.1728,-0.1728,-0.4678,-0.8121,-0.9348,-1.1813,-1.4276,-1.5505,-1.5755,-1.4036,-0.7427,-0.6175,-0.4924,-0.074,0.0,0.0,0.0,0.0,0.0,0.0,0.0,0.0,0.0,0.0,0.0,0.0,0.0,0.0,0.0,0.0,0.0,0.0,0.0,0.0,0.0,0.0,-0.1029,-0.3575,-0.5591,-0.5568,-0.3781,-0.3797,-0.1779,0.2042,0.2051,0.1801,-1.8179,-1.8013,-1.8059,-1.8291,-1.7933,-1.7767,-1.8574,-1.8774,-1.9006,-1.9789,-1.9488,-1.8871,-1.7567,-1.7035,-1.6522,-1.6005,-1.5999,-1.5755,-1.5755,-1.5755,-1.5755,-1.5755,-1.5755,-1.5755,-1.5755,-1.5755,-1.5755,-1.5755,-1.5755,-1.5755,-1.5755,-1.5755,-1.5755,-1.5755,-1.5755,-1.4521,-1.1813,-0.8615,-0.4683,0.0,0.0,0.0,0.0,0.0,0.0,0.0,-0.074,-0.3696,-0.7875,-0.8615,-1.1567,-1.5505,-1.2797,-1.0091,-0.7626,-0.4924,-0.2219,0.0,0.0,0.0,0.0,0.0,0.0,0.0,0.0,0.0,-0.0247,-0.1731,-0.4933,-0.8121,-0.9594,-1.2806,-1.5798,-1.5798,-1.5825,-1.4365,-0.8949,-0.6947,-0.4707,-0.0745,0.0,0.0,0.0,0.0,0.0,0.0,0.0,0.0,0.0,0.0,0.0,0.0,0.0,0.0,0.0,0.0,0.0,0.0,0.0,0.0,0.0,0.0,-0.1032,-0.3092,-0.2564,-0.2295,-0.2535,-0.255,-0.1023,0.1535,0.1545,0.1291,-1.8233,-1.8335,-1.8262,-1.8123,-1.8271,-1.8128,-1.8052,-1.8291,-1.8761,-1.9045,-1.9488,-1.9669,-1.9045,-1.7972,-1.6871,-1.6738,-1.6238,-1.5755,-1.5755,-1.5755,-1.5755,-1.5755,-1.5755,-1.5755,-1.5755,-1.5755,-1.5755,-1.5755,-1.5755,-1.5755,-1.5755,-1.5755,-1.5755,-1.5755,-1.5755,-1.4521,-1.1813,-0.6646,-0.2713,0.0,0.0,0.0,0.0,0.0,0.0,-0.0247,-0.2713,-0.5418,-0.8121,-1.0586,-1.3292,-1.5505,-1.2797,-1.0091,-0.7626,-0.4924,-0.2219,0.0,0.0,0.0,0.0,0.0,0.0,0.0,0.0,0.0,-0.0989,-0.5959,-0.7674,-0.91,-1.4027,-1.559,-1.5923,-1.5923,-1.6005,-1.4552,-0.8974,-0.4009,-0.0252,0.0,0.0,0.0,0.0,0.0,0.0,0.0,0.0,0.0,0.0,0.0,0.0,0.0,0.0,0.0,0.0,0.0,0.0,0.0,0.0,0.0,0.0,0.0,0.0,-0.0258,-0.0258,-0.1546,-0.4117,-0.386,-0.2575,0.0,0.0,0.0,-1.8128,-1.8389,-1.8208,-1.8229,-1.8418,-1.8794,-1.8313,-1.8888,-1.9528,-1.991,-1.9883,-2.0064,-1.9964,-1.8554,-1.7393,-1.6859,-1.6294,-1.5755,-1.5755,-1.5755,-1.5755,-1.5755,-1.5755,-1.5755,-1.5755,-1.5755,-1.5755,-1.5755,-1.5755,-1.5755,-1.5755,-1.5755,-1.5755,-1.5755,-1.5755,-1.3777,-0.9348,-0.5664,-0.2466,0.0,0.0,-0.0987,-0.2466,-0.2466,-0.2466,-0.2466,-0.345,-0.5418,-0.7875,-0.8854,-1.1813,-1.5755,-1.4771,-1.1813,-0.7872,-0.6892,-0.3696,0.0,0.0,0.0,0.0,0.0,0.0,0.0,0.0,-0.125,-0.3003,-0.5016,-0.8006,-1.0977,-1.2979,-1.4757,-1.6021,-1.5951,-1.3263,-1.0304,-0.8281,-0.3774,0.0,0.0,0.0,0.0,0.0,0.0,0.0,0.0,0.0,0.0,0.0,0.0,0.0,0.0,0.0,0.0,0.0,0.0,0.0,0.0,0.0,0.0,0.0,0.0,0.0,0.0,0.0,-0.0516,-0.1547,-0.1547,-0.1032,0.0,0.0,0.0,-1.7921,-1.8155,-1.796,-1.7872,-1.8509,-1.8892,-1.8653,-1.9025,-1.9712,-2.0153,-2.0173,-2.0153,-2.0363,-1.9193,-1.8262,-1.7423,-1.6573,-1.5755,-1.5755,-1.5755,-1.5755,-1.5755,-1.5755,-1.5755,-1.5755,-1.5755,-1.5755,-1.5755,-1.5755,-1.5755,-1.5755,-1.5755,-1.5755,-1.5755,-1.5021,-1.2299,-0.7875,-0.6152,-0.3943,-0.1234,-0.2219,-0.345,-0.5172,-0.5172,-0.5172,-0.5172,-0.5172,-0.6154,-0.7875,-0.7875,-1.1069,-1.5755,-1.5755,-1.3042,-0.91,-0.8121,-0.5172,-0.1234,-0.0247,0.0,0.0,0.0,0.0,0.0,0.0,-0.2011,-0.4286,-0.5308,-0.8829,-1.2333,-1.3331,-1.4847,-1.6092,-1.6005,-1.1783,-0.8055,-0.8055,-0.3797,0.0,0.0,0.0,0.0,0.0,0.0,0.0,0.0,0.0,0.0,0.0,0.0,0.0,0.0,0.0,0.0,0.0,0.0,0.0,0.0,0.0,0.0,0.0,0.0,0.0,0.0,0.0,0.0,0.0,0.0,0.0,0.0,0.0,0.0,0.0,0.0,0.0,-1.7736,-1.8284,-1.8644,-1.8588,0.0,-1.9556,-1.9997,-2.0098,-2.0187,-2.0485,-1.9912,-1.8968,-1.7947,-1.6813,-1.5755,-1.5755,-1.5755,-1.5755,-1.5755,-1.5755,-1.5755,-1.5755,-1.5755,-1.5755,-1.5755,-1.5755,-1.5755,-1.5755,-1.5755,-1.5755,-1.5755,-1.3292,-1.0586,-0.8121,-0.8121,-0.6646,-0.3943,-0.6646,-0.7875,-0.8121,-0.8121,-0.8121,-0.8121,-0.8121,-0.8121,-0.8121,-0.8121,-1.1069,-1.5755,-1.5755,-1.4271,-1.1563,-0.886,-0.6152,-0.345,-0.0987,0.0,0.0,0.0,0.0,0.0,0.0,-0.2019,-0.4798,-0.7375,-1.0132,-1.2838,-1.5352,-1.6103,-1.5853,-1.5853,-1.1823,-0.8055,-0.8055,-0.3824,0.0,0.0,0.0,0.0,0.0,0.0,0.0,0.0,0.0,0.0,0.0,0.0,0.0,0.0,0.0,0.0,0.0,0.0,0.0,0.0,0.0,0.0,0.0,0.0,0.0,0.0,0.0,0.0,0.0,0.0,0.0,0.0,0.0,0.0258,-1.7301,0.0,0.0,0.0,0.0,0.0,-1.8677,0.0,0.0,-1.9841,-1.9942,-2.0064,-2.0471,-1.9412,-1.8504,-1.8069,-1.7205,-1.6345,-1.5771,-1.5755,-1.5755,-1.5755,-1.5755,-1.5755,-1.5755,-1.5755,-1.5755,0.0,-1.5755,-1.5755,-1.5755,-1.5755,-1.5755,-1.5755,-1.5021,-1.3292,-1.0831,-1.0831,-0.9348,-0.6892,-0.7626,-0.8854,-1.0831,-1.0831,-1.0831,-1.0831,-1.0831,-1.0831,-1.0831,-1.0831,-1.2793,-1.5755,-1.5755,-1.4271,-1.1563,-0.886,-0.6152,-0.345,-0.0987,0.0,0.0,0.0,0.0,0.0,0.0,-0.3317,-0.7161,-0.7946,-1.1525,-1.5093,-1.3811,-1.3448,-1.2838,-1.082,-0.7552,-0.503,-0.5004,-0.2278,0.0,0.0,0.0,0.0,0.0,0.0,0.0,0.0,0.0,0.0,0.0,0.0,0.0,0.0,0.0,0.0,0.0,0.0,0.0,0.0,0.0,0.0,0.0,0.0,0.0,0.0,0.0,0.0,0.0,0.0,0.0,0.0,0.0,0.0258,-1.6737,-1.6949,-1.7371,-1.8145,0.0,0.0,-1.8918,-1.9081,0.0,0.0,-2.0064,-2.0187,-2.056,-1.9548,-1.8653,-1.8149,-1.7548,-1.6699,-1.6032,-1.5755,-1.5755,-1.5755,-1.5755,-1.5771,-1.5825,-1.5782,-1.5782,-1.5825,-1.5782,-1.5755,-1.5755,-1.5755,-1.5755,-1.5755,-1.5755,-1.4521,-1.1813,-1.2797,-1.2062,-0.9594,-1.0575,-1.207,-1.3598,-1.3598,-1.3598,-1.3598,-1.3598,-1.3574,-1.3537,-1.3537,-1.4276,-1.5755,-1.5755,-1.4771,-1.3047,-1.0586,-0.7894,-0.5195,-0.2468,-0.0991,0.0,0.0,0.0,0.0,0.0,-0.3839,-0.8229,-0.8229,-1.2091,-1.595,-1.3073,-1.2184,-1.1569,-0.8776,-0.6,-0.3992,-0.3974,-0.175,0.0,0.0,0.0,0.0,0.0,0.0,0.0,0.0,0.0,0.0,0.0,0.0,0.0,0.0,0.0,0.0,0.0,0.0,0.0,0.0,0.0,0.0,0.0,0.0,0.0,0.0,0.0,0.0,0.0,0.0,0.0,0.0,0.0,0.0258,-1.5669,-1.6389,-1.6853,-1.7568,-1.8245,0.0,-1.9061,-1.9115,-1.9305,0.0,0.0,-2.0261,-2.056,-2.0117,-1.9236,-1.8343,-1.7565,-1.6756,-1.6032,-1.5755,-1.5755,-1.5771,-1.5771,-1.5825,-1.5934,-1.5853,-1.5842,-1.5951,-1.5842,-1.5771,-1.5755,-1.5755,-1.5755,-1.5755,-1.5755,-1.4771,-1.2311,-1.4526,-1.4526,-1.2311,-1.4781,-1.5825,-1.5923,-1.594,-1.594,-1.594,-1.594,-1.588,-1.5798,-1.5798,-1.5782,-1.5755,-1.5755,-1.5755,-1.5505,-1.2793,-1.0383,-0.7957,-0.4943,-0.2492,-0.0504,0.0,0.0,0.0,0.0,-0.3843,-0.8232,-0.8489,-1.2339,-1.5679,-1.2491,-1.1643,-1.1052,-0.8227,-0.5452,-0.3456,-0.3452,-0.1728,0.0,0.0,0.0,0.0,-0.0504,-0.0503,-0.0505,-0.0509,-0.051,-0.0256,0.0,0.0,0.0,0.0,0.0,0.0,0.0,0.0,0.0,0.0,0.0,0.0,0.0,0.0,0.0,0.0,0.0,0.0,0.0,0.0,0.0,0.0,0.0,0.0258,-1.5475,-1.5664,-1.6145,-1.7403,-1.7575,0.0,-1.8383,-1.8565,-1.8599,0.0,0.0,0.0,0.0,0.0,0.0,-1.8377,-1.8039,-1.7387,-1.6016,-1.5755,-1.5782,-1.588,-1.5896,-1.594,-1.6065,-1.6048,-1.6048,-1.6076,-1.5967,-1.5853,-1.5755,-1.5755,-1.5755,-1.5755,-1.5755,-1.5505,-1.5021,-1.5505,-1.5505,-1.5021,-1.5601,-1.5896,-1.5923,-1.6021,-1.6065,-1.6065,-1.6065,-1.6065,-1.6037,-1.6037,-1.5923,-1.5755,-1.5755,-1.5755,-1.5505,-1.2793,-1.1615,-1.0448,-0.5719,-0.3751,-0.3027,-0.0761,0.0,0.0,0.0,-0.386,-0.8745,-1.0805,-1.3893,-1.5413,-1.02,-0.8859,-0.8295,-0.5489,-0.2741,-0.0746,-0.0742,-0.0248,0.0,0.0,0.0,-0.0743,-0.2724,-0.322,-0.3235,-0.3027,-0.3033,-0.2285,-0.0258,0.0,0.0,0.0,0.0,0.0,0.0,0.0,0.0,0.0,0.0,0.0,0.0,0.0,0.0,0.0,0.0,0.0,0.0,0.0,0.0,0.0,0.0,0.0,-1.5179,-1.5356,-1.5834,-1.635,-1.6769,0.0,0.0,-1.8026,-1.8079,0.0,0.0,0.0,-1.9481,0.0,0.0,0.0,0.0,0.0,0.0,0.0,0.0,0.0,0.0,-1.6558,-1.6687,-1.6391,-1.6076,-1.6021,-1.5951,-1.5869,-1.5755,-1.5755,-1.5755,-1.5755,-1.5755,-1.5755,-1.5755,-1.5755,-1.5782,-1.5842,-1.5896,-1.5994,-1.6108,-1.6163,-1.619,-1.619,-1.619,-1.6163,-1.6108,-1.6108,-1.6037,-1.5923,-1.5869,-1.5842,-1.559,-1.435,-1.2179,-0.9507,-0.7009,-0.4293,-0.1785,-0.051,0.0,0.0,0.0,-0.2835,-0.6947,-1.1065,-1.3377,-1.3368,-0.9216,-0.8147,-0.7078,-0.3014,-0.1001,0.0,0.0,0.0,-0.0496,-0.1729,-0.1974,-0.2465,-0.3696,-0.3956,-0.448,-0.5786,-0.4803,-0.3562,-0.2317,-0.0774,0.0,0.0,0.0,0.0,0.0,0.0,0.0,0.0,0.0,0.0,0.0,0.0,0.0,0.0,0.0,0.0,0.0,0.0,0.0,0.0,0.0,0.0,-1.4646,-1.5078,-1.5327,-1.5555,-1.6003,-1.6474,0.0,0.0,0.0,0.0,0.0,0.0,0.0,0.0,0.0,0.0,0.0,0.0,0.0,0.0,0.0,0.0,0.0,0.0,-1.7275,-1.667,-1.6076,-1.5994,-1.5923,-1.5869,-1.5798,-1.5771,-1.5755,-1.5755,-1.5755,-1.5755,-1.5755,-1.5755,-1.5809,-1.5923,-1.5951,-1.6076,-1.6288,-1.6315,-1.6331,-1.6331,-1.6331,-1.6277,-1.6179,-1.6179,-1.6179,-1.6163,-1.6021,-1.5967,-1.5967,-1.5967,-1.3277,-0.9326,-0.8323,-0.5351,-0.1289,-0.0256,0.0,0.0,-0.0516,-0.2835,-0.5921,-1.0288,-1.2091,-1.1831,-0.9497,-0.8183,-0.635,-0.252,-0.0752,0.0,0.0,0.0,-0.074,-0.345,-0.3947,-0.4196,-0.5181,-0.5457,-0.6246,-0.8569,-0.6593,-0.4598,-0.4117,-0.1805,0.0,0.0,0.0,0.0,0.0,0.0,0.0,0.0,0.0,0.0,0.0,0.0,0.0,0.0,0.0,0.0,0.0,0.0,0.0,0.0,0.0,0.0,-1.445,-1.4434,-1.4746,-1.5197,-1.541,-1.5866,-1.7002,0.0,-1.7327,-1.8179,0.0,-1.8321,-1.8599,0.0,0.0,0.0,0.0,0.0,0.0,0.0,0.0,0.0,0.0,0.0,0.0,-1.667,-1.6146,-1.6244,-1.5951,-1.5809,-1.5896,-1.5809,-1.5755,-1.5755,-1.5755,-1.5755,-1.5755,-1.5755,-1.5809,-1.5923,-1.6037,-1.6163,-1.6288,-1.6402,-1.6456,-1.6456,-1.6456,-1.6445,-1.6429,-1.6429,-1.6429,-1.6402,-1.6179,-1.6092,-1.6092,-1.6092,-1.5655,-1.4745,-0.9909,-0.767,-0.6431,-0.1546,0.0,-0.0516,-0.2835,-0.5664,-0.7972,-0.8489,-1.0545,-1.2327,-1.1741,-0.8147,-0.5072,-0.6752,-0.3492,0.0,0.0,0.0,-0.074,-0.345,-0.3963,-0.5471,-1.0189,-1.1188,-1.1249,-1.1659,-0.9408,-0.6894,-0.4374,-0.1805,0.0,0.0,0.0,0.0,0.0,0.0,0.0,0.0,0.0,0.0,0.0,0.0,0.0,0.0,0.0,0.0,0.0,0.0,0.0,0.0,0.0,0.0,-1.4504,-1.4515,-1.4564,-1.4652,-1.4949,-1.5236,-1.6429,-1.6577,-1.6773,-1.7726,0.0,0.0,0.0,0.0,0.0,0.0,-1.8905,0.0,0.0,0.0,0.0,0.0,0.0,0.0,0.0,0.0,0.0,0.0,-1.6021,-1.5869,-1.5923,-1.588,-1.5825,-1.5755,-1.5755,-1.5755,-1.5755,-1.5825,-1.5923,-1.6037,-1.6146,-1.6277,-1.6402,-1.6445,-1.6472,-1.6472,-1.6472,-1.6472,-1.6472,-1.6472,-1.6472,-1.6456,-1.6358,-1.6277,-1.6217,-1.6217,-1.5235,-1.3493,-0.9459,-0.7187,-0.5147,-0.1289,0.0,-0.0258,-0.1289,-0.2577,-0.4121,-0.7204,-0.9005,-1.0282,-1.1792,-0.9471,-0.6388,-0.5815,-0.277,0.0,0.0,-0.1238,-0.2961,-0.5696,-0.77,-0.9982,-1.3841,-1.3353,-1.2882,-1.4234,-1.0981,-0.7687,-0.6688,-0.2577,0.0,0.0,0.0,0.0,0.0,0.0,0.0,0.0,0.0,0.0,0.0,0.0,0.0,0.0,0.0,0.0,0.0,0.0,0.0,0.0,0.0,0.0,-1.4575,-1.4586,-1.4629,-1.4417,-1.4504,-1.4807,-1.597,-1.6157,-1.6608,-1.7753,-1.8111,0.0,0.0,0.0,-1.8565,-1.8477,0.0,-1.8918,0.0,0.0,0.0,0.0,0.0,0.0,0.0,0.0,0.0,0.0,0.0,-1.5869,-1.5967,-1.5951,-1.588,-1.5755,-1.5755,-1.5755,-1.5755,-1.5869,-1.5994,-1.6108,-1.6233,-1.6358,-1.6472,-1.6472,-1.6472,-1.6472,-1.6429,-1.6418,-1.6418,-1.6418,-1.6418,-1.6429,-1.6456,-1.6418,-1.6347,-1.6347,-1.5053,-1.2771,-0.9497,-0.5921,-0.2577,-0.0774,0.0,0.0,0.0,-0.0516,-0.2062,-0.6947,-0.8229,-0.9005,-1.2608,-1.0805,-0.77,-0.5611,-0.3801,-0.2015,-0.125,-0.3228,-0.5943,-0.8722,-1.0765,-1.3111,-1.584,-1.4794,-1.3756,-1.5053,-1.1273,-0.7972,-0.7204,-0.2835,0.0,0.0,0.0,0.0,0.0,0.0,0.0,0.0,0.0,0.0,0.0,0.0,0.0,0.0,0.0,0.0,0.0,0.0,0.0,0.0,0.0,0.0,-1.4575,-1.4586,-1.4646,-1.4532,-1.4504,-1.4735,-1.6067,-1.6297,-1.6771,-1.8048,-1.8423,-1.8565,-1.8708,-1.8742,-1.8654,-1.8375,-1.8464,0.0,0.0,0.0,0.0,0.0,0.0,0.0,0.0,0.0,0.0,0.0,0.0,0.0,-1.6076,-1.5994,-1.5869,-1.5755,-1.5755,-1.5755,-1.5755,-1.5869,-1.5978,-1.6108,-1.6233,-1.6358,-1.6472,-1.6472,-1.6472,-1.6472,-1.6347,-1.6288,-1.6288,-1.6288,-1.6288,-1.6304,-1.6429,-1.6472,-1.6472,-1.6472,-1.6472,-1.5689,-1.0032,-0.4636,0.0,0.0,0.0,0.0,0.0,-0.1805,-0.4636,-0.7464,-0.8229,-0.9512,-1.4922,-1.2347,-0.8215,-0.8161,-0.7843,-0.7035,-0.4245,-0.5974,-0.8731,-1.1549,-1.2213,-1.3385,-1.6087,-1.644,-1.5311,-1.2847,-1.0032,-0.7204,-0.4636,-0.1805,0.0,0.0,0.0,0.0,0.0,0.0,0.0,0.0,0.0,0.0,0.0,0.0,0.0,0.0,0.0,0.0,0.0,0.0,0.0,0.0,0.0,0.0,-1.476,-1.4885,-1.4956,-1.4586,-1.4744,-1.5116,-1.5694,-1.6205,-1.6769,-1.7634,-1.8208,-1.8511,-1.8477,-1.8552,-1.8552,-1.8355,-1.8531,-1.8586,0.0,0.0,0.0,0.0,0.0,0.0,0.0,0.0,0.0,0.0,0.0,0.0,0.0,-1.6065,-1.5951,-1.5755,-1.5755,-1.5755,-1.5755,-1.5951,-1.6065,-1.6108,-1.6233,-1.6358,-1.6472,-1.6304,-1.6277,-1.6347,-1.6217,-1.6163,-1.6173,-1.626,-1.6288,-1.6304,-1.6429,-1.6472,-1.6472,-1.6472,-1.6472,-1.5689,-1.0032,-0.4636,0.0,0.0,0.0,0.0,0.0,-0.1805,-0.4636,-0.7464,-0.9512,-1.1831,-1.5444,-1.3637,-1.1054,-1.1025,-0.9434,-0.7856,-0.683,-0.8844,-1.1131,-1.2233,-1.3893,-1.5571,-1.6474,-1.5124,-1.35,-1.2695,-0.8517,-0.5147,-0.4121,-0.1813,0.0,0.0,0.0,0.0,0.0,0.0,0.0,0.0,0.0,0.0,0.0,0.0,0.0,0.0,0.0,0.0,0.0,0.0,0.0,0.0,0.0,0.0,-1.4869,-1.4967,-1.5026,-1.4754,-1.4896,-1.5248,-1.543,-1.591,-1.6688,-1.7339,-1.7811,-1.8329,-1.862,-1.862,-1.8586,-1.8498,-1.8586,-1.8586,0.0,-1.7782,0.0,0.0,0.0,0.0,0.0,0.0,0.0,0.0,0.0,0.0,0.0,0.0,-1.6021,-1.5825,-1.5771,-1.5771,-1.5809,-1.601,-1.6108,-1.6108,-1.6233,-1.6304,-1.6331,-1.6179,-1.6146,-1.6217,-1.6092,-1.6037,-1.6048,-1.6173,-1.6217,-1.6244,-1.6402,-1.6472,-1.6472,-1.6472,-1.5183,-1.286,-0.8232,-0.3862,0.0,0.0,0.0,0.0,0.0,-0.1805,-0.4636,-0.7464,-1.0288,-1.2868,-1.5705,-1.5183,-1.3637,-1.2608,-1.1792,-1.0988,-0.9962,-1.1772,-1.387,-1.398,-1.5378,-1.6543,-1.5609,-1.2941,-1.1055,-1.0973,-0.7023,-0.3636,-0.2856,-0.1044,0.0,0.0,0.0,0.0,0.0,0.0,0.0,0.0,0.0,0.0,0.0,0.0,0.0,0.0,0.0,0.0,0.0,0.0,0.0,0.0,0.0,0.0]}]]